[[[{"header":{"parameterUnit":"kt","parameterCategory":2,"dx":1,"dy":1,"la1":29.285339999999998,"la2":30.599998999999997,"lo1":-89.70041500000002,"lo2":-87.6738589999976,"nx":112,"ny":82,"refTime":"2022-10-22T00:00:00:Z","depth":0,"parameterNumber":1,"parameterNumberName":"U-component_of_WINDS"},"data":[-9.8302,-9.9698,0.0,-9.3009,-9.074,0.0,-8.2015,0.0,0.0,0.0,0.0,0.0,0.0,0.0,0.0,0.0,0.0,0.0,0.0,0.0,0.0,0.0,0.0,0.0,0.0,0.0,0.0,0.0,0.0,0.0,0.0,0.0,-8.6731,-8.6731,-8.8879,-9.0001,-9.0001,-9.1075,-9.1834,-9.2588,-9.4101,-9.5175,-9.5858,-9.6249,-9.6395,-9.6395,-9.6395,-9.6395,-9.6346,-9.5663,-9.4492,-9.3076,-9.2393,-9.127,-9.0001,-9.0001,-9.0001,-9.0001,-9.0001,-9.0001,-9.0001,-9.0001,-9.0001,-9.0001,-9.0001,-9.0001,-8.9532,-8.7379,-8.3503,-7.955,-7.741,-7.339,-7.0009,-7.0009,-7.0009,-7.0009,-7.0009,-7.0009,-7.0009,-7.0009,-7.0009,-7.0009,-7.0009,-7.0009,-7.0009,-7.0009,-7.0009,-7.0312,-7.1186,-7.1983,-7.259,-7.2894,-7.3426,-7.3312,-7.2249,-7.2628,-7.3501,-7.4906,-7.4678,-7.4413,-7.4185,-7.3084,-7.2249,-7.1717,-7.0085,-6.9477,-7.0009,-6.8604,-6.8224,-6.8794,-6.8794,-6.8224,0.0,0.0,-9.4056,-8.7112,0.0,0.0,0.0,0.0,0.0,0.0,0.0,0.0,0.0,0.0,0.0,0.0,0.0,0.0,0.0,0.0,0.0,0.0,0.0,0.0,0.0,0.0,0.0,0.0,0.0,0.0,0.0,-8.5901,-8.8,-8.8391,-8.9806,-9.0587,-9.0587,-9.2002,-9.2832,-9.3125,-9.4638,-9.5712,-9.6395,-9.6395,-9.6395,-9.6395,-9.6395,-9.6395,-9.6346,-9.5273,-9.415,-9.3027,-9.2002,-9.0977,-9.0001,-9.0001,-9.0001,-9.0001,-9.0001,-9.0001,-9.0001,-9.0001,-9.0001,-9.0001,-9.0001,-9.0001,-8.9532,-8.7259,-8.3503,-7.955,-7.7283,-7.3429,-7.0009,-7.0009,-7.0009,-7.0009,-7.0009,-7.0009,-7.0009,-7.0009,-7.0009,-7.0009,-7.0009,-7.0009,-7.0009,-7.0009,-7.0009,-7.0312,-7.1186,-7.1755,-7.2211,-7.2476,-7.2742,-7.2438,-7.1375,-7.2021,-7.3198,-7.4868,-7.4451,-7.3881,-7.335,-7.1983,-7.0996,-7.0464,-6.8794,-6.8338,-6.9135,-6.7731,-6.7351,-6.7921,-6.7921,-6.7161,0.0,0.0,0.0,-7.8467,0.0,0.0,0.0,0.0,-7.0498,0.0,0.0,0.0,0.0,0.0,0.0,0.0,0.0,0.0,0.0,0.0,0.0,0.0,0.0,0.0,0.0,0.0,0.0,0.0,0.0,0.0,-8.6487,-8.883,-9.0538,-9.1444,-9.1493,-9.1542,-9.1542,-9.376,-9.4248,-9.3223,-9.537,-9.6395,-9.6395,-9.6395,-9.6395,-9.6395,-9.6395,-9.6395,-9.6346,-9.5273,-9.415,-9.3027,-9.2002,-9.0977,-9.0001,-9.0001,-9.0001,-9.0001,-9.0001,-9.0001,-9.0001,-9.0001,-9.0001,-9.0001,-9.0001,-9.0001,-9.0001,-9.0001,-8.5294,-8.0049,-8.0049,-7.5027,-7.0009,-7.0009,-7.0009,-7.0009,-7.0009,-7.0009,-7.0009,-7.0009,-7.0009,-7.0009,-7.0009,-7.0009,-7.0009,-7.0009,-7.0009,-7.0312,-7.1186,-7.1299,-7.1565,-7.2362,-7.1755,-7.1261,-7.1261,-7.2021,-7.3198,-7.4792,-7.3426,-7.2514,-7.2438,-7.0123,-6.8832,-6.8756,-6.7085,-6.663,-6.7465,-6.6592,-6.6212,-6.625,-6.6212,-6.5756,-8.0037,0.0,0.0,0.0,0.0,0.0,0.0,0.0,0.0,0.0,0.0,0.0,0.0,0.0,0.0,0.0,0.0,0.0,0.0,0.0,0.0,0.0,0.0,0.0,0.0,0.0,0.0,0.0,0.0,0.0,-8.6585,-8.883,-9.0538,-9.1444,-9.1493,-9.1954,-9.2686,-9.4101,-9.4638,-9.4345,-9.5761,-9.6395,-9.6395,-9.6395,-9.6395,-9.6395,-9.6395,-9.6395,-9.6346,-9.5273,-9.415,-9.3027,-9.2002,-9.0977,-9.0001,-9.0001,-9.0001,-9.0001,-9.0001,-9.0001,-9.0001,-9.0001,-9.0001,-9.0001,-9.0001,-9.0001,-9.0001,-9.0001,-8.5294,-8.0049,-8.0049,-7.5027,-7.0009,-7.0009,-7.0009,-7.0009,-7.0009,-7.0009,-7.0009,-7.0009,-7.0009,-7.0009,-7.0009,-7.0009,-7.0009,-7.0009,-7.0009,-7.0312,-7.1186,-7.1299,-7.1375,-7.1603,-7.1413,-7.1034,-7.0426,-7.1679,-7.2704,-7.316,-7.3312,-7.259,-7.0768,-7.0047,-6.9097,-6.7845,-6.6782,-6.663,-6.7465,-6.6022,-6.5643,-6.6212,-6.5605,-6.5187,0.0,0.0,0.0,0.0,0.0,0.0,-7.1778,0.0,-6.9044,0.0,0.0,0.0,0.0,0.0,0.0,0.0,0.0,0.0,0.0,0.0,0.0,0.0,0.0,0.0,0.0,0.0,0.0,0.0,0.0,-8.5365,-8.7951,-8.9318,-9.0685,-9.2198,-9.2246,-9.2783,-9.3808,-9.4931,-9.5273,-9.4833,-9.5907,-9.6395,-9.6395,-9.6395,-9.6395,-9.6395,-9.6395,-9.6151,-9.5663,-9.454,-9.3467,-9.2393,-9.1368,-9.0587,-9.0001,-9.0001,-9.0001,-9.0001,-9.0001,-9.0001,-9.0001,-9.0001,-9.0001,-9.0001,-9.0001,-9.0001,-9.0001,-9.0001,-8.5294,-8.0049,-8.0049,-7.5027,-7.0009,-7.0009,-7.0009,-7.0009,-7.0009,-7.0009,-7.0009,-7.0009,-7.0009,-7.0009,-7.0009,-7.0009,-7.0009,-7.0009,-7.0009,-7.0198,-7.0692,-7.1072,-7.1148,-7.0806,-7.1072,-7.092,-7.0085,-7.1527,-7.2362,-7.2021,-7.3084,-7.278,-7.0654,-6.9515,-6.8148,-6.644,-6.5946,-6.5946,-6.6402,-6.5453,-6.5225,-6.5681,-6.5187,-6.4959,0.0,0.0,0.0,0.0,-7.0731,0.0,0.0,0.0,0.0,0.0,0.0,0.0,0.0,0.0,0.0,0.0,0.0,0.0,0.0,0.0,0.0,0.0,0.0,0.0,0.0,0.0,-8.4877,-8.966,-8.7317,-8.6975,-8.9855,-9.0001,-9.0977,-9.3076,-9.3125,-9.3711,-9.498,-9.5907,-9.5907,-9.498,-9.5956,-9.6395,-9.6395,-9.6395,-9.6346,-9.6249,-9.6346,-9.5712,-9.454,-9.3564,-9.2539,-9.1514,-9.0441,-9.0001,-9.0001,-9.0001,-9.0001,-9.0001,-9.0001,-9.0001,-9.0001,-9.0001,-9.0001,-9.0001,-9.0001,-9.0001,-9.0001,-9.0001,-8.5535,-8.0547,-8.0174,-7.5284,-7.0537,-7.0009,-7.0009,-7.0009,-7.0009,-7.0009,-7.0009,-7.0009,-7.0009,-7.0009,-7.0009,-7.0009,-7.0009,-7.0009,-7.0009,-7.0009,-7.0009,-7.0768,-7.0958,-7.0123,-7.0768,-7.092,-7.0085,-7.1451,-7.2059,-7.1337,-7.2628,-7.278,-7.1337,-6.8832,-6.6668,-6.4997,-6.4959,-6.4959,-6.4959,-6.4959,-6.4959,-6.4959,-6.4959,-6.4959,0.0,0.0,0.0,0.0,0.0,-6.9858,0.0,0.0,0.0,0.0,0.0,0.0,0.0,0.0,0.0,0.0,0.0,0.0,0.0,0.0,0.0,0.0,0.0,0.0,0.0,-8.7951,-8.8879,-8.9953,-8.9416,-8.9367,-9.0001,-9.0001,-9.0977,-9.3076,-9.3125,-9.4101,-9.6102,-9.6298,-9.6298,-9.6102,-9.6298,-9.6395,-9.6395,-9.6395,-9.5907,-9.5175,-9.6005,-9.5273,-9.3418,-9.3223,-9.2539,-9.1514,-9.0441,-9.0001,-9.0001,-9.0001,-9.0001,-9.0001,-9.0001,-9.0001,-9.0001,-9.0001,-9.0001,-9.0001,-9.0001,-9.0001,-9.0001,-9.0001,-8.714,-8.3381,-8.0796,-7.7029,-7.339,-7.0631,-7.0009,-7.0009,-7.0009,-7.0009,-7.0009,-7.0009,-7.0009,-7.0009,-7.0009,-7.0009,-7.0009,-7.0009,-7.0009,-7.0009,-7.0009,-7.0768,-7.0958,-7.0123,-7.0768,-7.092,-7.0085,-7.0958,-7.1451,-7.1299,-7.1565,-7.1603,-7.1299,-6.8832,-6.6668,-6.4997,-6.4959,-6.4959,-6.4959,-6.4959,-6.4959,-6.4959,-6.4959,-6.4959,0.0,0.0,0.0,-6.8869,0.0,0.0,0.0,0.0,0.0,0.0,0.0,0.0,0.0,0.0,0.0,0.0,0.0,0.0,0.0,0.0,0.0,0.0,0.0,0.0,-8.9172,-8.9708,-9.0001,-9.0001,-9.0001,-9.0001,-9.0001,-9.0538,-9.1514,-9.3076,-9.3662,-9.4736,-9.6395,-9.6395,-9.6395,-9.6395,-9.6395,-9.6395,-9.6395,-9.6395,-9.6102,-9.5614,-9.5614,-9.4638,-9.3076,-9.2588,-9.1758,-9.0782,-9.0245,-9.0001,-9.0001,-9.0001,-9.0001,-9.0001,-9.0001,-9.0001,-9.0001,-9.0001,-9.0001,-9.0001,-9.0001,-9.0001,-9.0001,-9.0001,-8.6376,-8.2155,-8.0547,-7.6307,-7.2036,-7.0405,-7.0009,-7.0009,-7.0009,-7.0009,-7.0009,-7.0009,-7.0009,-7.0009,-7.0009,-7.0009,-7.0009,-7.0009,-7.0009,-7.0009,-7.0009,-7.0768,-7.0958,-7.0123,-7.0768,-7.092,-7.0085,-7.0806,-7.111,-7.0654,-7.1034,-7.092,-7.0085,-6.8376,-6.6857,-6.5605,-6.5187,-6.4959,-6.4959,-6.4959,-6.4959,-6.4959,-6.4959,-6.4959,0.0,0.0,0.0,0.0,0.0,0.0,-7.0905,-7.1208,-7.2457,0.0,0.0,0.0,0.0,0.0,0.0,0.0,0.0,0.0,0.0,0.0,0.0,0.0,0.0,0.0,-8.9611,-8.9904,-9.0001,-9.0001,-9.0001,-9.0001,-9.0001,-9.1026,-9.21,-9.3076,-9.4199,-9.5321,-9.6395,-9.6395,-9.6395,-9.6395,-9.6395,-9.6395,-9.6395,-9.6395,-9.6151,-9.5712,-9.5077,-9.3955,-9.2491,-9.1737,-9.0977,-9.0001,-9.0001,-9.0001,-9.0001,-9.0001,-9.0001,-9.0001,-9.0001,-9.0001,-9.0001,-9.0001,-9.0001,-9.0001,-9.0001,-9.0001,-9.0001,-9.0001,-8.5655,-8.092,-8.0298,-7.554,-7.0762,-7.0141,-7.0009,-7.0009,-7.0009,-7.0009,-7.0009,-7.0009,-7.016,-7.0274,-7.0274,-7.0274,-7.0274,-7.0274,-7.0274,-7.0198,-7.0047,-7.0882,-7.1148,-7.0123,-7.0768,-7.092,-7.0085,-7.0654,-7.073,-7.0047,-7.0654,-7.035,-6.887,-6.7921,-6.7047,-6.625,-6.5415,-6.4959,-6.4959,-6.4959,-6.4959,-6.4959,-6.4959,-6.4959,0.0,0.0,0.0,0.0,0.0,0.0,-7.7594,-7.9144,-8.1042,0.0,0.0,0.0,0.0,0.0,0.0,0.0,0.0,0.0,0.0,0.0,0.0,0.0,0.0,0.0,-8.8586,-8.9464,-9.0001,-9.0001,-9.0001,-9.0001,-9.0001,-9.1026,-9.21,-9.3076,-9.4199,-9.5321,-9.6395,-9.6395,-9.6395,-9.6395,-9.6395,-9.6395,-9.6395,-9.6395,-9.5321,-9.3564,-9.4394,-9.3125,-9.0441,-9.127,-9.0977,-9.0001,-9.0001,-9.0001,-9.0001,-9.0001,-9.0001,-9.0001,-9.0001,-9.0001,-9.0001,-9.0001,-9.0001,-9.0001,-9.0001,-9.0001,-9.0001,-9.0001,-8.7259,-8.3747,-8.0796,-7.7283,-7.3649,-7.0631,-7.0009,-7.0009,-7.0009,-7.0009,-7.0009,-7.0009,-7.0616,-7.1148,-7.1148,-7.1148,-7.1148,-7.1148,-7.1148,-7.0882,-7.0123,-7.1375,-7.1755,-7.0198,-7.0768,-7.092,-7.0085,-7.0123,-7.0123,-7.0009,-7.0123,-6.9743,-6.8832,-6.7921,-6.7047,-6.625,-6.5415,-6.4959,-6.4959,-6.4959,-6.4959,-6.4959,-6.4959,-6.4959,0.0,0.0,0.0,0.0,0.0,0.0,0.0,-7.6625,0.0,0.0,0.0,0.0,0.0,0.0,0.0,0.0,0.0,0.0,0.0,0.0,0.0,0.0,0.0,0.0,0.0,-8.9757,-9.0001,-9.0001,-8.883,-8.8684,-8.9953,-9.1612,-9.2686,-9.3125,-9.4833,-9.5956,-9.6395,-9.6395,-9.6395,-9.6395,-9.6395,-9.6395,-9.6395,-9.6395,-9.5565,-9.4101,-9.3906,-9.2735,-9.0929,-9.0782,-9.0441,-9.0001,-9.0001,-9.0001,-9.0001,-9.0001,-9.0001,-9.0001,-9.0001,-9.0001,-9.0001,-9.0001,-9.0001,-9.0001,-9.0001,-9.0001,-9.0001,-9.0001,-8.9014,-8.6662,-8.1415,-7.6052,-7.1774,-7.0273,-7.0009,-7.0009,-7.0009,-7.0009,-7.0009,-7.0009,-7.0692,-7.1299,-7.1299,-7.1679,-7.1983,-7.1983,-7.1603,-7.1148,-7.0806,-7.092,-7.0768,-7.0085,-7.035,-7.0388,-7.0047,-7.0009,-7.0009,-7.0009,-7.0009,-6.9401,-6.8072,-6.7655,-6.682,-6.5529,-6.5149,-6.4959,-6.4959,-6.4959,-6.4959,-6.4959,-6.4959,-6.4959,-6.6487,0.0,0.0,0.0,0.0,0.0,0.0,0.0,0.0,0.0,0.0,0.0,0.0,0.0,0.0,0.0,0.0,0.0,0.0,0.0,0.0,0.0,0.0,0.0,0.0,0.0,0.0,0.0,-8.8537,-8.8342,-8.9953,-9.1466,-9.2539,-9.3125,-9.5273,-9.6395,-9.6395,-9.6395,-9.6395,-9.6395,-9.6395,-9.6395,-9.6395,-9.6395,-9.5663,-9.4296,-9.3467,-9.2393,-9.1124,-9.0343,-9.0001,-9.0001,-9.0001,-9.0001,-9.0001,-9.0001,-9.0001,-9.0001,-9.0001,-9.0001,-9.0001,-9.0001,-9.0001,-9.0001,-9.0001,-9.0001,-9.0001,-9.0001,-8.9249,-8.7259,-8.1539,-7.5027,-7.0009,-7.0009,-7.0009,-7.0009,-7.0009,-7.0009,-7.0009,-7.0009,-7.0882,-7.1603,-7.1603,-7.2097,-7.2514,-7.2514,-7.1793,-7.1186,-7.0958,-7.0806,-7.054,-7.0047,-7.0426,-7.0502,-7.0047,-7.0236,-7.0274,-7.0047,-6.9819,-6.9022,-6.7503,-6.7237,-6.644,-6.4997,-6.4959,-6.4959,-6.4959,-6.4959,-6.4959,-6.4959,-6.4959,-6.4959,0.0,0.0,0.0,0.0,0.0,0.0,0.0,0.0,0.0,0.0,0.0,0.0,0.0,0.0,0.0,0.0,0.0,0.0,0.0,0.0,0.0,0.0,0.0,0.0,0.0,0.0,0.0,0.0,-8.9953,-8.9953,-9.0001,-9.0099,-9.1026,-9.3076,-9.5273,-9.6395,-9.6395,-9.6395,-9.6395,-9.6395,-9.6395,-9.6395,-9.6395,-9.6395,-9.5224,-9.3174,-9.3125,-9.1954,-9.005,-9.005,-9.0001,-9.0001,-9.0001,-9.0001,-9.0001,-9.0001,-9.0001,-9.0001,-9.0001,-9.0001,-9.0001,-9.0001,-9.0001,-9.0001,-9.0001,-9.0001,-9.0001,-9.0001,-8.7616,-8.4355,-8.092,-7.5027,-7.0009,-7.0009,-7.0009,-7.0009,-7.0009,-7.0009,-7.0009,-7.0009,-7.1337,-7.2476,-7.2476,-7.2476,-7.2514,-7.2514,-7.1793,-7.0996,-7.016,-7.1451,-7.1831,-7.0198,-7.1451,-7.1793,-7.016,-7.0768,-7.0882,-7.0085,-6.9287,-6.8414,-6.7503,-6.6706,-6.587,-6.4997,-6.4959,-6.4959,-6.4959,-6.4959,-6.4959,-6.4959,-6.4959,-6.4959,-7.2127,0.0,0.0,0.0,0.0,-7.6766,0.0,0.0,0.0,0.0,0.0,0.0,0.0,0.0,0.0,0.0,0.0,0.0,0.0,0.0,0.0,0.0,0.0,0.0,0.0,0.0,0.0,0.0,0.0,0.0,-8.9953,-8.8635,-8.9464,-9.3027,-9.3857,-9.4931,-9.6395,-9.6395,-9.6395,-9.6395,-9.6395,-9.6395,-9.6395,-9.6395,-9.5224,-9.3125,-9.3125,-9.1954,-9.0001,-9.0001,-9.0001,-9.0001,-9.0001,-9.0001,-9.0001,-9.0001,-9.0001,-9.0001,-9.0001,-9.0001,-9.0001,-9.0001,-9.0001,-9.0001,-9.0001,-9.0001,-9.0001,-9.0001,-8.7497,-8.4112,-8.092,-7.669,-7.278,-7.0537,-7.0009,-7.0009,-7.0009,-7.0009,-7.0009,-7.0009,-7.1375,-7.2325,-7.1793,-7.259,-7.3122,-7.259,-7.1793,-7.1186,-7.0882,-7.1337,-7.1261,-7.0123,-7.1489,-7.2059,-7.0958,-7.111,-7.1148,-7.0882,-6.9553,-6.8376,-6.7503,-6.6668,-6.5832,-6.4997,-6.4959,-6.4959,-6.4959,-6.4959,-6.4959,-6.4959,-6.4959,-6.4959,0.0,0.0,0.0,-8.0084,-7.9532,-7.7908,0.0,0.0,0.0,0.0,0.0,0.0,0.0,0.0,0.0,0.0,0.0,0.0,0.0,0.0,0.0,0.0,0.0,0.0,0.0,0.0,0.0,0.0,0.0,-8.8537,-8.9953,-8.8684,-8.9513,-9.3027,-9.3125,-9.4199,-9.6395,-9.6395,-9.6395,-9.6395,-9.6395,-9.6395,-9.6395,-9.6395,-9.5224,-9.3125,-9.3125,-9.2149,-9.0587,-9.0197,-9.0001,-9.0001,-9.0001,-9.0001,-9.0001,-9.0001,-9.0001,-9.0001,-9.0001,-9.0001,-9.0001,-9.0001,-9.0001,-9.0001,-9.0001,-9.0001,-9.0001,-9.0001,-8.6735,-8.2769,-8.0672,-7.669,-7.2649,-7.0537,-7.0009,-7.0009,-7.0009,-7.0009,-7.0009,-7.0009,-7.1148,-7.1907,-7.1375,-7.2173,-7.2666,-7.2135,-7.1375,-7.0844,-7.0844,-7.1337,-7.1299,-7.016,-7.2021,-7.2818,-7.1413,-7.1565,-7.1717,-7.1717,-6.9895,-6.8528,-6.7958,-6.682,-6.5832,-6.4997,-6.4959,-6.4959,-6.4959,-6.4959,-6.4959,-6.4959,-6.5263,-6.5263,0.0,-7.3778,0.0,-7.9475,-7.9548,0.0,0.0,0.0,0.0,0.0,-8.3705,-8.5413,-8.639,0.0,0.0,0.0,0.0,0.0,0.0,0.0,0.0,0.0,0.0,0.0,0.0,0.0,0.0,0.0,-9.0001,-9.0001,-9.0001,-9.0001,-9.0977,-9.3076,-9.3125,-9.4199,-9.6395,-9.6395,-9.6395,-9.6395,-9.6395,-9.6395,-9.6395,-9.6395,-9.5224,-9.3125,-9.3125,-9.2539,-9.1347,-9.0441,-9.0001,-9.0001,-9.0001,-9.0001,-9.0001,-9.0001,-9.0001,-9.0001,-9.0001,-9.0001,-9.0001,-9.0001,-9.0001,-9.0001,-9.0001,-9.0001,-9.0001,-9.0001,-8.5294,-8.0049,-8.0049,-7.5027,-7.0009,-7.0009,-7.0009,-7.0009,-7.0009,-7.0009,-7.0009,-7.0009,-7.0692,-7.1261,-7.1224,-7.1261,-7.1261,-7.1224,-7.054,-7.0047,-7.0085,-7.1451,-7.1831,-7.0312,-7.3008,-7.3957,-7.1603,-7.2135,-7.2552,-7.2514,-7.016,-6.8794,-6.8718,-6.7085,-6.5794,-6.4997,-6.4959,-6.4959,-6.4959,-6.4997,-6.4997,-6.4997,-6.587,-6.5832,0.0,0.0,-7.9862,-8.4464,-8.2197,-7.9572,0.0,0.0,-8.0869,0.0,-8.4193,-8.4974,-8.4437,-8.39,-8.3559,0.0,0.0,0.0,0.0,0.0,0.0,0.0,0.0,0.0,0.0,0.0,-9.0001,-9.0001,-9.0001,-9.0001,-9.0001,-9.0001,-9.0977,-9.3076,-9.3125,-9.4199,-9.6395,-9.6395,-9.6395,-9.6395,-9.6395,-9.6395,-9.6395,-9.6395,-9.5224,-9.3125,-9.3125,-9.21,-9.0392,-9.0148,-9.0001,-9.0001,-9.0001,-9.0001,-9.0001,-9.0001,-9.0001,-9.0001,-9.0001,-9.0001,-9.0001,-9.0001,-9.0001,-9.0001,-9.0001,-9.0001,-9.0001,-9.0001,-8.5294,-8.0049,-8.0049,-7.5027,-7.0009,-7.0009,-7.0009,-7.0009,-7.0009,-7.0009,-7.0009,-7.0009,-7.0692,-7.1072,-7.0426,-7.0882,-7.1072,-7.0426,-7.016,-7.0236,-7.0882,-7.1337,-7.1679,-7.1831,-7.316,-7.3767,-7.316,-7.3274,-7.316,-7.2552,-7.016,-6.849,-6.7807,-6.6174,-6.5187,-6.4959,-6.4959,-6.4959,-6.4959,-6.5605,-6.5605,-6.4997,-6.6478,-6.6706,-7.5668,-7.7779,-7.9546,0.0,-8.0805,-7.9007,-8.212,0.0,-8.0867,-8.3119,-8.3998,-8.4242,-8.3656,-8.3559,-8.3559,-8.3559,-8.4828,-8.6048,-8.6682,-8.8098,-8.9367,-8.9953,-9.0001,-9.0001,-9.0001,-9.0001,-9.0001,-9.0001,-9.0001,-9.0001,-9.0001,-9.0489,-9.1466,-9.3076,-9.3613,-9.4687,-9.6395,-9.6395,-9.6395,-9.6395,-9.6395,-9.6395,-9.6395,-9.6395,-9.5712,-9.454,-9.3564,-9.2491,-9.1319,-9.0392,-9.0001,-9.0001,-9.0001,-9.0001,-9.0001,-9.0001,-9.0001,-9.0001,-9.0001,-9.0001,-9.0001,-9.0001,-9.0001,-9.0001,-9.0001,-9.0001,-9.0001,-9.0001,-8.5294,-8.0049,-8.0049,-7.5027,-7.0009,-7.0009,-7.0009,-7.0009,-7.0009,-7.0009,-7.0009,-7.0009,-7.0388,-7.0578,-7.0085,-7.0426,-7.0578,-7.0085,-7.0009,-7.0198,-7.0654,-7.1034,-7.1451,-7.1907,-7.3008,-7.3577,-7.3198,-7.3198,-7.2818,-7.2021,-6.9971,-6.8376,-6.7503,-6.6212,-6.5339,-6.4959,-6.5339,-6.5529,-6.5529,-6.6364,-6.6516,-6.6098,-6.7427,-6.7579,0.0,0.0,-7.7294,0.0,-7.8288,-7.8288,0.0,0.0,-8.0867,0.0,-8.3559,-8.3559,-8.3559,-8.3559,-8.3559,-8.3559,-8.5365,-8.6731,-8.6731,-8.8635,-9.0001,-9.0001,-9.0001,-9.0001,-9.0001,-9.0001,-9.0001,-9.0001,-9.0001,-9.0099,-9.0245,-9.1124,-9.2149,-9.332,-9.4296,-9.5321,-9.6395,-9.6395,-9.6395,-9.6395,-9.6395,-9.6395,-9.6395,-9.6395,-9.6346,-9.6053,-9.4004,-9.3027,-9.2783,-9.0831,-9.0001,-9.0001,-9.0001,-9.0001,-9.0001,-9.0001,-9.0001,-9.0001,-9.0001,-9.0001,-9.0001,-9.0001,-9.0001,-9.0001,-9.0001,-9.0001,-8.9884,-8.9415,-8.4885,-7.9925,-7.955,-7.4682,-7.0009,-7.0009,-7.0009,-7.0009,-7.0009,-7.0009,-7.0009,-7.0009,-7.0009,-7.0009,-7.0009,-7.0009,-7.0009,-7.0009,-7.0009,-7.0047,-7.016,-7.073,-7.1261,-7.1565,-7.278,-7.3312,-7.2704,-7.278,-7.24,-7.1337,-6.9933,-6.8604,-6.7503,-6.6668,-6.587,-6.5149,-6.5984,-6.6402,-6.6402,-6.7237,-6.7579,-6.7465,-6.849,-6.849,-7.6507,-7.7604,-7.8222,-7.9693,-7.9843,0.0,-8.0484,-8.0379,-8.0867,-8.3119,-8.3559,-8.3559,-8.3559,-8.3559,-8.3559,-8.3559,-8.5365,-8.6731,-8.6731,-8.8635,-9.0001,-9.0001,-9.0001,-9.0001,-9.0001,-9.0001,-9.0001,-9.0001,-9.0001,-9.0392,-9.1319,-9.1395,-9.2491,-9.4443,-9.4687,-9.5321,-9.6395,-9.6395,-9.6395,-9.6395,-9.6395,-9.6395,-9.6395,-9.6395,-9.5907,-9.5029,-9.3711,-9.2637,-9.1807,-9.0538,-9.0001,-9.0001,-9.0001,-9.0001,-9.0001,-9.0001,-9.0001,-9.0001,-9.0001,-9.0001,-9.0001,-9.0001,-9.0001,-9.0001,-9.0001,-9.0001,-8.9415,-8.6615,-8.3014,-7.9425,-7.6648,-7.291,-7.0009,-7.0009,-7.0009,-7.0009,-7.0009,-7.0009,-7.0009,-7.0009,-7.0009,-7.0009,-7.0009,-7.0009,-7.0009,-7.0009,-7.0009,-7.0274,-7.0958,-7.0578,-7.1034,-7.3084,-7.2932,-7.2932,-7.3463,-7.4147,-7.3615,-7.1413,-7.0996,-6.9819,-6.7541,-6.6668,-6.6174,-6.6022,-6.682,-6.7237,-6.7237,-6.8148,-6.8186,-6.7503,-6.9059,-6.9363,-7.5648,-7.6581,-7.6764,-7.6772,0.0,-7.7455,-7.9745,-8.0233,-8.1013,-8.3803,-8.3071,-8.2241,-8.3315,-8.3559,-8.3559,-8.3559,-8.5365,-8.6731,-8.6731,-8.8635,-9.0001,-9.0001,-9.0001,-9.0001,-9.0001,-9.0001,-9.0001,-9.0001,-9.0001,-9.0489,-9.1444,-9.21,-9.3125,-9.4736,-9.537,-9.5907,-9.6395,-9.6395,-9.6395,-9.6395,-9.6395,-9.6395,-9.6395,-9.6395,-9.6102,-9.5565,-9.3857,-9.2832,-9.2295,-9.0685,-9.0001,-9.0001,-9.0001,-9.0001,-9.0001,-9.0001,-9.0001,-9.0001,-9.0001,-9.0001,-9.0001,-9.0001,-9.0001,-9.0001,-9.0001,-8.8778,-8.7021,-8.5368,-8.1371,-7.7029,-7.5412,-7.2519,-7.0009,-7.0009,-7.0009,-7.0009,-7.0009,-7.0009,-7.0009,-7.0009,-7.0009,-7.0009,-7.0009,-7.0009,-7.0009,-7.0009,-7.0009,-7.016,-7.0578,-7.0274,-7.0654,-7.2287,-7.2476,-7.2666,-7.3046,-7.3463,-7.2818,-7.0768,-7.0236,-6.9022,-6.6895,-6.7313,-6.7351,-6.6857,-6.7693,-6.8148,-6.8148,-6.9022,-6.9211,-6.8794,-6.9629,-6.9819,-7.3542,-7.4439,-7.5003,-7.4461,-7.3796,-7.4383,-7.8868,-7.9745,-8.063,-8.4096,-8.2778,-8.1558,-8.3217,-8.3559,-8.3559,-8.3559,-8.5365,-8.6731,-8.6731,-8.8635,-9.0001,-9.0001,-9.0001,-9.0001,-9.0001,-9.0001,-9.0001,-9.0001,-9.0001,-9.0587,-9.1856,-9.2686,-9.376,-9.5126,-9.5956,-9.6395,-9.6395,-9.6395,-9.6395,-9.6395,-9.6395,-9.6395,-9.6395,-9.6395,-9.6395,-9.6298,-9.4052,-9.3125,-9.2979,-9.088,-9.0001,-9.0001,-9.0001,-9.0001,-9.0001,-9.0001,-9.0001,-9.0001,-9.0001,-9.0001,-9.0001,-9.0001,-9.0001,-9.0001,-9.0001,-8.8139,-8.5729,-8.4233,-8.013,-7.5796,-7.4295,-7.2036,-7.0009,-7.0009,-7.0009,-7.0009,-7.0009,-7.0009,-7.0009,-7.0009,-7.0009,-7.0009,-7.0009,-7.0009,-7.0009,-7.0009,-7.0009,-7.0009,-7.0009,-7.0009,-7.035,-7.1186,-7.1869,-7.2249,-7.2249,-7.24,-7.1793,-7.0123,-6.9591,-6.8566,-6.6857,-6.8262,-6.8642,-6.7769,-6.8604,-6.9059,-6.9059,-6.9705,-7.0009,-7.0009,-7.0009,-7.0009,-7.1814,-7.2728,-7.4288,-7.6324,-7.394,0.0,-7.7702,-7.8141,-7.8629,-8.2827,0.0,-8.3315,-8.351,-8.3559,-8.3559,-8.3559,-8.5365,-8.6731,-8.6731,-8.8635,-9.0001,-9.0001,-9.0001,-9.0001,-9.0001,-9.0001,-9.0001,-9.0001,-9.0001,-9.088,-9.2881,-9.3076,-9.4101,-9.62,-9.6346,-9.6395,-9.6395,-9.6395,-9.6395,-9.6395,-9.6395,-9.6395,-9.6395,-9.6395,-9.6395,-9.6298,-9.4052,-9.3125,-9.2979,-9.088,-9.0001,-9.0001,-9.0001,-9.0001,-9.0001,-9.0001,-9.0001,-9.0001,-9.0001,-9.0001,-9.0001,-9.0001,-9.0001,-9.0001,-9.0001,-8.9767,-8.8257,-8.2278,-8.0049,-7.8168,-7.2036,-7.0273,-7.0009,-7.0009,-7.0009,-7.0009,-7.0009,-7.0009,-7.0009,-7.0009,-7.0009,-7.0009,-7.0009,-7.0009,-7.0009,-7.0009,-7.0009,-7.0009,-7.0009,-7.0009,-7.035,-7.1186,-7.1337,-7.1375,-7.1375,-7.2059,-7.1793,-7.0123,-7.0692,-7.0312,-6.8642,-6.9439,-6.9515,-6.868,-6.9477,-6.9895,-6.9895,-6.9971,-7.0009,-7.0009,-7.0009,-7.0009,-6.6907,-6.6928,-6.7345,-7.0324,-7.0401,-7.0625,-7.409,0.0,0.0,0.0,-8.1558,-8.063,-8.063,-8.2241,0.0,-8.2788,-8.4388,-8.5999,-8.6634,-8.8098,-8.9318,-8.9953,-9.0001,-9.0001,-9.0001,-9.0001,-9.0001,-9.0001,-9.0636,-9.1612,-9.3027,-9.376,-9.4833,-9.6346,-9.6395,-9.6395,-9.6395,-9.6395,-9.6395,-9.6395,-9.6395,-9.6395,-9.6395,-9.6395,-9.6395,-9.6346,-9.5468,-9.4345,-9.2979,-9.088,-9.0001,-9.0001,-9.0001,-9.0001,-9.0001,-9.0001,-9.0001,-9.0001,-9.0001,-9.0001,-9.0001,-9.0001,-9.0001,-9.0001,-9.0001,-8.714,-8.3426,-8.0796,-7.7156,-7.3429,-7.0631,-7.0009,-7.0009,-7.0009,-7.0009,-7.0009,-7.0009,-7.0009,-7.0009,-7.0009,-7.0009,-7.0009,-7.0009,-7.0009,-7.0009,-7.0009,-7.0009,-7.0009,-7.0009,-7.0009,-7.016,-7.0502,-7.0958,-7.1299,-7.1299,-7.1565,-7.1489,-7.0806,-7.0616,-7.0236,-6.9553,-6.9857,-6.9857,-6.9553,-6.9857,-7.0009,-7.0009,-7.0009,-7.0009,-7.0009,-7.0009,-7.0009,-6.2688,-6.2391,-6.2313,-6.5043,-6.6219,0.0,0.0,-7.3016,0.0,0.0,-8.0289,-7.9703,-7.9703,0.0,0.0,-8.2103,-8.3461,-8.5169,-8.6536,-8.7707,-8.883,-8.9904,-9.0001,-9.0001,-9.0001,-9.0001,-9.0001,-9.0001,-9.1026,-9.2051,-9.3076,-9.4199,-9.5321,-9.6346,-9.6395,-9.6395,-9.6395,-9.6395,-9.6395,-9.6395,-9.6395,-9.6395,-9.6395,-9.6395,-9.6395,-9.6395,-9.6395,-9.5175,-9.3027,-9.1563,-9.0587,-9.0001,-9.0001,-9.0001,-9.0001,-9.0001,-9.0001,-9.0001,-9.0001,-9.0001,-9.0001,-9.0001,-9.0001,-9.0001,-9.0001,-8.6016,-8.1292,-8.0298,-7.5924,-7.1288,-7.0273,-7.0009,-7.0009,-7.0009,-7.0009,-7.0009,-7.0009,-7.0009,-7.0009,-7.0009,-7.0009,-7.0009,-7.0009,-7.0009,-7.0009,-7.0009,-7.0009,-7.0009,-7.0009,-7.0009,-7.0009,-7.0009,-7.054,-7.092,-7.092,-7.092,-7.092,-7.092,-7.035,-7.0009,-7.0009,-7.0009,-7.0009,-7.0009,-7.0009,-7.0009,-7.0009,-7.0009,-7.0009,-7.0009,-7.0009,-7.0009,-6.0062,-6.021,-6.1162,-6.2351,-6.1839,-6.306,-7.0576,-7.0722,-7.1064,-7.7458,-8.0435,-8.2006,-8.2006,-8.107,0.0,-8.1859,-8.2934,-8.4291,-8.6438,-8.7707,-8.883,-8.9904,-9.0001,-9.0001,-9.0001,-9.0001,-9.0001,-9.0001,-9.1026,-9.2051,-9.3076,-9.4199,-9.5321,-9.6346,-9.6395,-9.6395,-9.6395,-9.6395,-9.6395,-9.6395,-9.6395,-9.6395,-9.6395,-9.6395,-9.6395,-9.6395,-9.6395,-9.5175,-9.3125,-9.3125,-9.1905,-9.0001,-9.0001,-9.0001,-9.0001,-9.0001,-9.0001,-9.0001,-9.0001,-9.0001,-9.0001,-9.0001,-9.0001,-9.0001,-9.0001,-8.7616,-8.4233,-8.1044,-7.7663,-7.4166,-7.0894,-7.0009,-7.0009,-7.0009,-7.0009,-7.0009,-7.0009,-7.0009,-7.0009,-7.0009,-7.0009,-7.0009,-7.0009,-7.0009,-7.0009,-7.0009,-7.0009,-7.0009,-7.0009,-7.0009,-7.0009,-7.0009,-7.0009,-7.0047,-7.0047,-7.0047,-7.0047,-7.0047,-7.0009,-7.0009,-7.0009,-7.0009,-7.0009,-7.0009,-7.0009,-7.0009,-7.0009,-7.0009,-7.0009,-7.0009,-7.0009,-7.0009,-5.7566,-5.7486,-5.861,-6.2734,-6.2376,-6.3011,-7.0576,-7.121,-7.1454,-7.5701,-7.5896,-7.5554,-7.6286,0.0,0.0,0.0,-8.2934,-8.4291,-8.6438,-8.7024,-8.7951,-8.9806,-9.0001,-9.0001,-9.0001,-9.0001,-9.0001,-9.0001,-9.1661,-9.2783,-9.3125,-9.4882,-9.6053,-9.6395,-9.6395,-9.6395,-9.6395,-9.6395,-9.6395,-9.6395,-9.6395,-9.6395,-9.6395,-9.6395,-9.6395,-9.6395,-9.6395,-9.5175,-9.3125,-9.3125,-9.1905,-9.0001,-9.0001,-9.0001,-9.0001,-9.0001,-9.0001,-9.0001,-9.0001,-9.0001,-9.0001,-9.0001,-9.0001,-9.0001,-9.0001,-8.6016,-8.1415,-8.0423,-7.6052,-7.1288,-7.0273,-7.0009,-7.0009,-7.0009,-7.0009,-7.0009,-7.0009,-7.0009,-7.0009,-7.0009,-7.0009,-7.0009,-7.0009,-7.0009,-7.0009,-7.0009,-7.0009,-7.0009,-7.0009,-7.0009,-7.0009,-7.0009,-7.0009,-7.0009,-7.0009,-7.0009,-7.0009,-7.0009,-7.0009,-7.0009,-7.0009,-7.0009,-7.0009,-7.0009,-7.0009,-7.0009,-7.0009,-7.0009,-7.0009,-7.0009,-7.0009,-7.0009,-5.61,-5.6075,-5.7274,-6.1888,-6.1449,-6.1937,-6.9844,-6.9307,-6.8477,-7.3309,-7.2919,0.0,0.0,0.0,-7.9752,-8.1761,-8.2592,-8.3705,-8.5853,-8.6487,-8.7415,-8.922,-8.9757,-9.0001,-9.0001,-9.0001,-9.0001,-9.0001,-9.1954,-9.3125,-9.3125,-9.5224,-9.6395,-9.6395,-9.6395,-9.6395,-9.6395,-9.6395,-9.6395,-9.6395,-9.6395,-9.6395,-9.6395,-9.6395,-9.6395,-9.6395,-9.6395,-9.5175,-9.3125,-9.3125,-9.1905,-9.0001,-9.0001,-9.0001,-9.0001,-9.0001,-9.0001,-9.0001,-9.0001,-9.0001,-9.0001,-9.0001,-9.0001,-9.0001,-9.0001,-8.5414,-8.0049,-8.0049,-7.5156,-7.0009,-7.0009,-7.0009,-7.0009,-7.0009,-7.0009,-7.0009,-7.0009,-7.0009,-7.0009,-7.0009,-7.0009,-7.0009,-7.0009,-7.0009,-7.0009,-7.0009,-7.0009,-7.0009,-7.0009,-7.0009,-7.0009,-7.0009,-7.0009,-7.0009,-7.0009,-7.0009,-7.0009,-7.0009,-7.0009,-7.0009,-7.0009,-7.0009,-7.0009,-7.0009,-7.0009,-7.0009,-7.0009,-7.0009,-7.0009,-7.0009,-7.0009,-7.0009,-5.5525,-5.5753,-5.6884,-6.0375,-5.9741,-6.0424,-6.8859,-6.5878,-6.3304,-7.0576,0.0,0.0,0.0,-7.5945,-7.7799,-8.1273,-8.2006,-8.2885,-8.4828,0.0,-8.7024,-8.8147,-8.9172,-8.9806,-8.9806,-8.9904,-9.0001,-9.0001,-9.1954,-9.3125,-9.3125,-9.5224,-9.6395,-9.6395,-9.6395,-9.6395,-9.6395,-9.6395,-9.6346,-9.6151,-9.6346,-9.6346,-9.6151,-9.6346,-9.6395,-9.6395,-9.6151,-9.4931,-9.3125,-9.2881,-9.171,-9.0001,-9.0001,-9.0001,-9.0001,-9.0001,-9.0001,-9.0001,-9.0001,-9.0001,-9.0001,-9.0001,-8.9884,-8.965,-8.965,-8.5006,-7.9675,-7.9675,-7.5027,-7.0009,-7.0009,-7.0009,-7.0009,-7.0009,-7.0009,-7.0009,-7.0009,-7.0009,-7.0009,-7.0009,-7.0009,-7.0009,-7.0009,-7.0009,-7.0009,-7.0009,-7.0009,-7.0009,-7.0009,-7.0009,-7.0009,-7.0009,-7.0009,-7.0009,-7.0009,-7.0009,-7.0009,-7.0009,-7.0009,-7.0009,-7.0009,-7.0009,-7.0009,-7.0009,-7.0009,-7.0009,-7.0009,-7.0009,-7.0009,-7.0009,-7.0009,-7.0009,-5.5197,-5.5203,-5.6373,-6.2083,-6.2523,-6.3108,-6.9348,-6.7051,-6.4719,0.0,0.0,0.0,0.0,-7.1503,0.0,-7.8678,-8.1558,-8.3608,-8.4974,-8.5365,-8.5901,-8.7024,-8.7366,-8.7512,-8.7512,-8.9025,-9.0001,-9.0001,-9.1954,-9.3125,-9.3125,-9.5224,-9.6395,-9.6395,-9.6395,-9.6395,-9.6395,-9.6395,-9.5565,-9.3906,-9.5614,-9.5517,-9.3955,-9.5614,-9.6395,-9.6249,-9.3808,-9.2881,-9.293,-9.0538,-8.9708,-9.0001,-9.0001,-9.0001,-9.0001,-9.0001,-9.0001,-9.0001,-9.0001,-9.0001,-9.0001,-9.0001,-8.8257,-8.6136,-8.6136,-8.1494,-7.618,-7.618,-7.317,-7.0009,-7.0009,-7.0009,-7.0009,-7.0009,-7.0009,-7.0009,-7.0009,-7.0009,-7.0009,-7.0009,-7.0009,-7.0009,-7.0009,-7.0009,-7.0009,-7.0009,-7.0009,-7.0009,-7.0009,-7.0009,-7.0009,-7.0009,-7.0009,-7.0009,-7.0009,-7.0009,-7.0009,-7.0009,-7.0009,-7.0009,-7.0009,-7.0009,-7.0009,-7.0009,-7.0009,-7.0009,-7.0009,-7.0009,-7.0009,-7.0009,-7.0009,-7.0009,-5.4993,-5.5174,-5.6568,-6.1546,-6.1595,-6.1449,-6.5353,-6.3777,0.0,0.0,0.0,0.0,0.0,0.0,-7.2967,-7.5408,0.0,-8.0972,-8.2046,-8.39,-8.4974,0.0,0.0,-8.7854,-8.6829,-8.8732,-9.0001,-9.0001,-9.1954,-9.3125,-9.3125,-9.5224,-9.6395,-9.6395,-9.6395,-9.6395,-9.6395,-9.6395,-9.5321,-9.3174,-9.537,-9.5273,-9.3223,-9.5419,-9.6395,-9.6298,-9.4589,-9.3857,-9.3711,-9.1514,-9.0636,-9.0685,-9.0197,-9.0001,-9.0001,-9.0001,-9.0001,-9.0001,-9.0001,-8.9014,-8.7616,-8.7616,-8.5368,-8.2769,-8.2769,-7.9174,-7.5027,-7.5027,-7.2519,-7.0009,-7.0009,-7.0009,-7.0009,-7.0009,-7.0009,-7.0009,-7.0009,-7.0009,-7.0009,-7.0009,-7.0009,-7.0009,-7.0009,-7.0009,-7.0009,-7.0009,-7.0009,-7.0009,-7.0009,-7.0009,-7.0009,-7.0009,-7.0009,-7.0009,-7.0009,-7.0009,-7.0009,-7.0009,-7.0009,-7.0009,-7.0009,-7.0009,-7.0009,-7.0009,-7.0009,-7.0009,-7.0009,-7.0009,-7.0009,-7.0009,-7.0009,-7.0009,-5.4942,-5.5471,-5.6933,-6.0229,-5.9448,-5.8472,-6.057,0.0,0.0,0.0,0.0,0.0,0.0,-7.1552,-7.2675,0.0,-7.4529,-7.7263,0.0,0.0,-8.4047,-8.2494,0.0,-8.8439,-8.6878,-8.8732,-9.0099,-9.0245,-9.2051,-9.3174,-9.3369,-9.5321,-9.6395,-9.6395,-9.6395,-9.6395,-9.6395,-9.6395,-9.5321,-9.3174,-9.537,-9.5273,-9.3223,-9.5419,-9.6395,-9.6395,-9.5858,-9.5273,-9.4443,-9.2979,-9.2002,-9.127,-9.0392,-9.0001,-9.0001,-9.0001,-9.0001,-9.0001,-9.0001,-8.7735,-8.4885,-8.44,-8.2032,-7.9299,-7.9299,-7.6902,-7.4295,-7.4295,-7.2167,-7.0009,-7.0009,-7.0009,-7.0009,-7.0009,-7.0009,-7.0009,-7.0009,-7.0009,-7.0009,-7.0009,-7.0009,-7.0009,-7.0009,-7.0009,-7.0009,-7.0009,-7.0009,-7.0009,-7.0009,-7.0009,-7.0009,-7.0009,-7.0009,-7.0009,-7.0009,-7.0009,-7.0009,-7.0009,-7.0009,-7.0009,-7.0009,-7.0009,-7.0009,-7.0009,-7.0009,-7.0009,-7.0009,-7.0009,-7.0009,-7.0009,-7.0009,-7.0009,-5.569,-5.6056,-5.6933,-6.0229,-5.9448,-5.8472,-6.057,0.0,0.0,0.0,-6.2864,0.0,0.0,-6.7647,-6.8721,-6.9363,-7.2284,-7.6042,-8.0882,-8.2103,-8.2739,-8.3217,-8.4047,0.0,-8.6585,-8.8732,-9.0392,-9.1319,-9.2442,-9.3564,-9.4492,-9.5712,-9.6395,-9.6395,-9.6395,-9.6395,-9.6395,-9.6395,-9.5321,-9.3174,-9.537,-9.5273,-9.3223,-9.5419,-9.6395,-9.6249,-9.3515,-9.2735,-9.3174,-9.0294,-8.9562,-9.0245,-9.0099,-9.0001,-9.0001,-9.0001,-9.0001,-9.0001,-9.0001,-8.7735,-8.4522,-8.1786,-7.8546,-7.5796,-7.5796,-7.3429,-7.0762,-7.0762,-7.0405,-7.0009,-7.0009,-7.0009,-7.0009,-7.0009,-7.0009,-7.0009,-7.0009,-7.0009,-7.0009,-7.0009,-7.0009,-7.0009,-7.0009,-7.0009,-7.0009,-7.0009,-7.0009,-7.0009,-7.0009,-7.0009,-7.0009,-7.0009,-7.0009,-7.0009,-7.0009,-7.0009,-7.0009,-7.0009,-7.0009,-7.0009,-7.0009,-7.0009,-7.0009,-7.0009,-7.0009,-7.0009,-7.0009,-7.0009,-7.0009,-7.0009,-7.0009,-7.0009,-5.6007,-5.6666,-5.7495,-5.896,-5.8618,-5.8179,-5.9106,-5.9057,-5.9497,-6.2083,-6.3108,-6.4182,-6.6378,-6.7159,-6.8233,-7.0478,-7.2528,-7.5359,-7.9605,0.0,-8.3412,-8.2885,-8.5267,-8.6975,0.0,-8.8732,-9.0245,-9.0733,-9.2198,-9.3369,-9.3857,-9.5468,-9.6395,-9.6395,-9.6395,-9.6395,-9.6395,-9.6395,-9.5321,-9.3174,-9.537,-9.4687,-9.1563,-9.4882,-9.5761,-9.4638,-9.4345,-9.415,-9.3857,-9.1807,-9.0929,-9.0831,-9.0245,-9.0001,-9.0001,-9.0001,-8.8896,-8.7259,-8.7259,-8.5127,-8.1786,-7.842,-7.5027,-7.2258,-7.2258,-7.1157,-7.0009,-7.0009,-7.0009,-7.0009,-7.0009,-7.0009,-7.0009,-7.0009,-7.0009,-7.0009,-7.0009,-7.0009,-7.0009,-7.0009,-7.0009,-7.0009,-7.0009,-7.0009,-7.0009,-7.0009,-7.0009,-7.0009,-7.0009,-7.0009,-7.0009,-7.0009,-7.0009,-7.0009,-7.0009,-7.0009,-7.0009,-7.0009,-7.0009,-7.0009,-7.0009,-7.0009,-7.0009,-7.0009,-7.0009,-7.0009,-7.0009,-7.0009,-7.0009,-7.0009,-7.0009,-6.891,-5.7837,0.0,-5.9789,-5.9789,-5.9204,-5.8667,0.0,-5.8911,-5.9741,-6.1791,-6.3108,-6.4475,-6.6378,-6.6964,-6.7989,-7.0722,-7.2675,-7.4822,-7.7604,-8.146,0.0,-8.2543,-8.6438,-8.8781,-8.761,-8.9025,-9.0148,-9.0392,-9.21,-9.3223,-9.3515,-9.537,-9.6395,-9.6395,-9.6395,-9.6395,-9.6395,-9.6395,-9.5565,-9.3906,-9.5614,-9.4443,-9.088,-9.4687,-9.5224,-9.3223,-9.5468,-9.5809,-9.4736,-9.3613,-9.2539,-9.1514,-9.0441,-9.0001,-9.0001,-9.0001,-8.7901,-8.5006,-8.5006,-8.2278,-7.842,-7.5924,-7.278,-7.0009,-7.0009,-7.0009,-7.0009,-7.0009,-7.0009,-7.0009,-7.0009,-7.0009,-7.0009,-7.0009,-7.0009,-7.0009,-7.0009,-7.0009,-7.0009,-7.0009,-7.0009,-7.0009,-7.0009,-7.0009,-7.0009,-7.0009,-7.0009,-7.0009,-7.0009,-7.0009,-7.0009,-7.0009,-7.0009,-7.0009,-7.0009,-7.0009,-7.0009,-7.0009,-7.0009,-7.0009,-7.0009,-7.0009,-7.0009,-7.0009,-7.0009,-7.0009,-7.0009,-7.0009,-7.0009,-7.0009,-6.9043,-6.7237,0.0,-6.4524,-6.5305,-6.5305,-6.306,-6.0814,-6.0814,-5.935,0.0,-6.0717,-6.1986,-6.3108,-6.4329,-6.5353,-6.6427,-6.7647,-7.121,-7.4334,0.0,-7.8629,0.0,0.0,-8.5511,0.0,-8.9611,-8.9904,-9.0441,-9.1417,-9.2491,-9.3564,-9.4638,-9.5761,-9.6395,-9.6395,-9.6395,-9.6395,-9.6395,-9.6395,-9.6346,-9.6151,-9.6346,-9.5175,-9.2979,-9.5321,-9.5224,-9.3223,-9.5468,-9.5809,-9.4736,-9.3613,-9.2539,-9.1514,-9.0441,-9.0001,-9.0001,-9.0001,-8.7901,-8.5006,-8.5006,-8.0752,-7.5284,-7.5156,-7.278,-7.0009,-7.0009,-7.0009,-7.0009,-7.0009,-7.0009,-7.0009,-7.0009,-7.0009,-7.0009,-7.0009,-7.0009,-7.0009,-7.0009,-7.0009,-7.0009,-7.0009,-7.0009,-7.0009,-7.0009,-7.0009,-7.0009,-7.0009,-7.0009,-7.0009,-7.0009,-7.0009,-7.0009,-7.0009,-7.0009,-7.0009,-7.0009,-7.0009,-7.0009,-7.0009,-7.0009,-7.0009,-7.0009,-7.0009,-7.0009,-7.0009,-7.0009,-7.0009,-7.0009,-7.0009,-7.0009,-6.9876,-6.6532,-6.4748,-6.2815,-6.4524,-6.589,-6.589,-6.4475,-6.2718,-6.1302,-6.0912,-6.0863,-6.101,-6.1888,-6.2962,-6.4084,-6.4621,-6.6134,-6.9844,-7.1845,-7.4432,0.0,0.0,0.0,-8.5267,0.0,0.0,0.0,-8.8781,-8.8732,-9.0489,-9.0977,-9.1954,-9.3662,-9.5419,-9.6395,-9.6395,-9.6395,-9.6395,-9.6395,-9.6395,-9.6395,-9.6395,-9.6395,-9.5273,-9.3223,-9.5419,-9.5224,-9.3223,-9.5468,-9.4638,0.0,-9.2783,-9.1319,-8.8684,-8.966,-9.0001,-8.9767,-8.7616,-8.4764,-8.1662,-7.9506,-7.5796,-7.1905,-7.1905,-7.1026,-7.0009,-7.0009,-7.0009,-7.0009,-7.0009,-7.0009,-7.0009,-7.0009,-7.0009,-7.0009,-7.0009,-7.0009,-7.0009,-7.0009,-7.0009,-7.0009,-7.0009,-7.0009,-7.0009,-7.0009,-7.0009,-7.0009,-7.0009,-7.0009,-7.0009,-7.0009,-7.0009,-7.0009,-7.0009,-7.0009,-7.0009,-7.0009,-7.0009,-7.0009,-7.0009,-7.0009,-7.0009,-7.0009,-7.0009,-7.0009,-7.0009,-7.0009,-7.0009,-7.0009,-7.0009,-6.8777,-6.6568,-6.5152,-6.1999,-6.5842,-6.7257,-6.8428,-6.8428,-6.6867,-6.4719,-6.2571,0.0,-6.1888,-6.1156,-6.1595,-6.2571,-6.4036,-6.4363,-6.5842,-7.0527,-7.1845,0.0,0.0,0.0,0.0,-8.595,-8.7561,-8.8879,0.0,0.0,-8.8537,-9.0392,-9.0831,-9.1758,-9.3564,-9.5419,-9.6395,-9.6395,-9.6395,-9.6395,-9.6395,-9.6395,-9.6395,-9.6395,-9.6395,-9.5273,-9.3223,-9.5419,-9.5224,-9.3223,-9.5468,-9.415,-9.0685,-9.2393,-9.0831,-8.7463,-8.9318,-8.9367,-8.8139,-8.5776,-8.2155,-7.8168,-7.5796,-7.278,-7.0009,-7.0009,-7.0009,-7.0009,-7.0009,-7.0009,-7.0009,-7.0009,-7.0009,-7.0009,-7.0009,-7.0009,-7.0009,-7.0009,-7.0009,-7.0009,-7.0009,-7.0009,-7.0009,-7.0009,-7.0009,-7.0009,-7.0009,-7.0009,-7.0009,-7.0009,-7.0009,-7.0009,-7.0009,-7.0009,-7.0009,-7.0009,-7.0009,-7.0009,-7.0009,-7.0009,-7.0009,-7.0009,-7.0009,-7.0009,-7.0009,-7.0009,-7.0009,-7.0009,-7.0009,-7.0009,-7.0009,-7.0009,-6.8075,-6.4477,-6.4477,-6.0632,-7.2675,-7.3846,-7.3895,-7.3895,-7.0674,-6.6964,0.0,0.0,-6.1058,-6.101,-6.101,-6.1693,-6.3972,-6.4363,-6.5353,-6.8486,0.0,0.0,-7.6726,-7.902,0.0,0.0,0.0,-8.6438,-8.966,-9.0001,-9.0441,-9.1395,-9.2539,-9.3613,-9.4736,-9.5809,-9.6395,-9.6395,-9.6395,-9.6395,-9.6395,-9.6395,-9.6395,-9.6395,-9.6395,-9.5273,-9.3223,-9.5419,-9.5224,-9.3271,-9.5468,-9.454,-9.1542,-9.2686,-9.1222,-8.8488,-8.9611,-8.7901,-8.4885,-8.4885,-8.0628,-7.5027,-7.5027,-7.278,-7.0009,-7.0009,-7.0009,-7.0009,-7.0009,-7.0009,-7.0009,-7.0009,-7.0009,-7.0009,-7.0009,-7.0009,-7.0009,-7.0009,-7.0009,-7.0009,-7.0009,-7.0009,-7.0009,-7.0009,-7.0009,-7.0009,-7.0009,-7.0009,-7.0009,-7.0009,-7.0009,-7.0009,-7.0009,-7.0009,-7.0009,-7.0009,-7.0009,-7.0009,-7.0009,-7.0009,-7.0009,-7.0009,-7.0009,-7.0009,-7.0009,-7.0009,-7.0009,-7.0009,-7.0009,-7.0009,-7.0009,-6.9876,-6.8075,-6.4477,-6.4477,-6.0495,-6.9649,-7.1601,-7.3895,-7.3895,-7.1796,-6.8859,0.0,0.0,-6.2864,-6.1351,-6.101,-6.1693,-6.3972,-6.4363,-6.5353,0.0,0.0,-7.2821,-7.7604,-8.0142,0.0,0.0,0.0,-8.7512,0.0,-8.7707,-8.8147,-8.9269,-9.0343,-9.21,-9.4687,-9.5809,-9.6395,-9.6395,-9.6395,-9.6395,-9.6395,-9.6395,-9.6395,-9.6395,-9.6395,-9.6053,-9.5468,-9.6102,-9.6053,-9.5468,-9.6102,-9.3271,-8.8439,-9.1758,-8.8515,-8.1756,-8.5109,-8.44,-8.1292,-7.8923,-7.6648,-7.4641,-7.2258,-7.0762,-7.0009,-7.0009,-7.0009,-7.0009,-7.0009,-7.0009,-7.0009,-7.0009,-7.0009,-7.0009,-7.0009,-7.0009,-7.0009,-7.0009,-7.0009,-7.0009,-7.0009,-7.0009,-7.0009,-7.0009,-7.0009,-7.0009,-7.0009,-7.0009,-7.0009,-7.0009,-7.0009,-7.0009,-7.0009,-7.0009,-7.0009,-7.0009,-7.0009,-7.0009,-7.0009,-7.0009,-7.0009,-7.0009,-7.0009,-7.0009,-7.0009,-7.0009,-7.0009,-7.0009,-7.0009,-7.0009,-7.0009,-6.7371,-6.5592,-6.4477,-5.9119,-5.5541,-7.0966,-7.2235,-7.3797,-7.3358,-7.2036,-6.9886,-6.633,0.0,-6.4021,-6.2571,-6.1644,-6.1937,-6.5012,-6.5598,-6.6769,0.0,0.0,0.0,-7.8092,0.0,0.0,0.0,-8.6341,0.0,0.0,0.0,-8.7366,-8.8928,-9.0441,-9.2295,-9.4687,-9.5809,-9.6395,-9.6395,-9.6395,-9.6395,-9.6395,-9.6395,-9.6395,-9.6395,-9.6395,-9.6395,-9.6395,-9.6395,-9.5593,-9.4359,-9.5719,-9.2687,-8.6804,-8.9884,-8.6996,-8.0639,-8.2413,-8.1,-7.7789,-7.5796,-7.4166,-7.278,-7.0631,-7.0009,-7.0009,-7.0009,-7.0009,-7.0009,-7.0009,-7.0009,-7.0009,-7.0009,-7.0009,-7.0009,-7.0009,-7.0009,-7.0009,-7.0009,-7.0009,-7.0009,-7.0009,-7.0009,-7.0009,-7.0009,-7.0009,-7.0009,-7.0009,-7.0009,-7.0009,-7.0009,-7.0009,-7.0009,-7.0009,-7.0009,-7.0009,-7.0009,-7.0009,-7.0009,-7.0009,-7.0009,-7.0009,-7.0009,-7.0009,-7.0009,-7.0009,-7.0009,-7.0009,-7.0009,-7.0009,-6.9309,-6.7808,-6.5592,-6.2952,-6.0083,-5.5541,-5.262,-7.4724,-7.4432,-7.3504,-7.2528,-7.1596,-7.0179,-6.7745,0.0,0.0,-6.4119,-6.2474,-6.2376,-6.6476,-6.7218,0.0,0.0,0.0,-7.5164,0.0,0.0,0.0,0.0,0.0,0.0,-8.9318,-8.7903,-8.7561,-8.9562,-9.1563,-9.3271,-9.4589,-9.5761,-9.6395,-9.6395,-9.6395,-9.6395,-9.6395,-9.6395,-9.6395,-9.6395,-9.6395,-9.6395,-9.6395,-9.6144,-9.4105,-9.1098,-9.4105,-9.184,-8.5961,-8.7313,-8.5763,-8.226,-8.0364,-7.7621,-7.4553,-7.4553,-7.2649,-7.0009,-7.0009,-7.0009,-7.0009,-7.0009,-7.0009,-7.0009,-7.0009,-7.0009,-7.0009,-7.0009,-7.0009,-7.0009,-7.0009,-7.0009,-7.0009,-7.0009,-7.0009,-7.0009,-7.0009,-7.0009,-7.0009,-7.0009,-7.0009,-7.0009,-7.0009,-7.0009,-7.0009,-7.0009,-7.0009,-7.0009,-7.0009,-7.0009,-7.0009,-7.0009,-7.0009,-7.0009,-7.0009,-7.0009,-7.0009,-7.0009,-7.0009,-7.0009,-7.0009,-7.0009,-7.0009,-7.0009,-6.9611,-6.7808,-6.4477,-6.3801,-6.005,-5.3466,-5.3043,-5.1091,-7.2378,-7.228,-7.2577,-7.2333,-7.1596,-6.9788,-6.5842,-6.5256,0.0,0.0,-6.2035,-6.2815,-6.467,0.0,-6.7647,0.0,-7.409,-7.6335,0.0,0.0,0.0,0.0,0.0,0.0,-8.7268,-8.7024,0.0,-8.7415,-8.8684,-9.0636,-9.332,-9.5321,-9.6395,-9.6395,-9.6395,-9.6395,-9.6395,-9.6395,-9.6395,-9.6395,-9.6395,-9.6395,-9.627,-9.3421,-9.1661,-9.0839,-8.8931,-8.5794,-8.2164,-8.4178,-8.1239,-7.5439,-7.6553,-7.464,-7.1026,-7.1026,-7.0631,-7.0009,-7.0009,-7.0009,-7.0009,-7.0009,-7.0009,-7.0009,-7.0009,-7.0009,-7.0009,-7.0009,-7.0009,-7.0009,-7.0009,-7.0009,-7.0009,-7.0009,-7.0009,-7.0009,-7.0009,-7.0009,-7.0009,-7.0009,-7.0009,-7.0009,-7.0009,-7.0009,-7.0009,-7.0009,-7.0009,-7.0009,-7.0009,-7.0009,-7.0009,-7.0009,-7.0009,-7.0009,-7.0009,-7.0009,-7.0009,-7.0009,-7.0009,-7.0009,-7.0009,-7.0009,-7.0009,-7.0009,-6.7103,-6.5287,-6.4477,-5.8705,-5.4981,-5.3325,-5.0408,-4.8579,-7.0918,-7.1064,-7.2138,-7.1743,-7.1205,-7.0179,-6.798,0.0,0.0,0.0,0.0,-6.4524,-6.5646,0.0,0.0,-7.3163,-7.5261,0.0,0.0,0.0,0.0,0.0,-8.4047,-8.5218,0.0,-8.7073,-8.717,-8.8244,-8.8879,-9.0343,-9.2979,-9.4199,-9.5321,-9.6346,-9.6395,-9.6395,-9.6395,-9.6395,-9.6395,-9.6395,-9.6395,-9.6395,-9.627,-9.2607,-9.0061,-8.8361,-8.651,-8.3822,-8.0605,-8.0995,-7.8852,-7.525,-7.3806,-7.19,-7.0009,-7.0009,-7.0009,-7.0009,-7.0009,-7.0009,-7.0009,-7.0009,-7.0009,-7.0009,-7.0009,-7.0009,-7.0009,-7.0009,-7.0009,-7.0009,-7.0009,-7.0009,-7.0009,-7.0009,-7.0009,-7.0009,-7.0009,-7.0009,-7.0009,-7.0009,-7.0009,-7.0009,-7.0009,-7.0009,-7.0009,-7.0009,-7.0009,-7.0009,-7.0009,-7.0009,-7.0009,-7.0009,-7.0009,-7.0009,-7.0009,-7.0009,-7.0009,-7.0009,-7.0009,-7.0009,-7.0009,-7.0009,-6.9176,-6.7371,-6.5457,-6.2816,-5.9257,-5.5401,-5.2479,-5.0665,-4.8722,-4.7889,-7.0435,-7.0771,-7.1796,-7.101,-7.0765,-7.0668,-7.0325,-6.96,0.0,0.0,0.0,-6.672,-6.7599,-6.8583,-7.0771,-7.5115,-7.6726,-7.7946,-7.941,-8.1118,-8.2348,0.0,-8.313,-8.4828,-8.8098,-8.7561,0.0,0.0,-8.966,-9.0343,-9.2491,-9.2588,-9.376,-9.6346,-9.6395,-9.6395,-9.6395,-9.6395,-9.6395,-9.6395,-9.6395,-9.6395,-9.627,-9.1965,-8.8484,-8.5675,-8.4468,-8.2142,-7.908,-7.7701,-7.7001,-7.633,-7.1929,-7.016,-7.0009,-7.0009,-7.0009,-7.0009,-7.0009,-7.0009,-7.0009,-7.0009,-7.0009,-7.0009,-7.0009,-7.0009,-7.0009,-7.0009,-7.0009,-7.0009,-7.0009,-7.0009,-7.0009,-7.0009,-7.0009,-7.0009,-7.0009,-7.0009,-7.0009,-7.0009,-7.0009,-7.0009,-7.0009,-7.0009,-7.0009,-7.0009,-7.0009,-7.0009,-7.0009,-7.0009,-7.0009,-7.0009,-7.0009,-7.0009,-7.0009,-7.0009,-7.0009,-7.0009,-7.0009,-7.0009,-7.0009,-6.9346,-6.7638,-6.4613,-6.3224,-5.967,-5.3466,-5.2761,-5.0807,-4.7889,-4.7889,-4.7889,-7.1503,-7.1406,-7.0961,-7.0814,-7.0765,-7.0277,-6.8331,-6.8437,-6.8681,-6.7608,0.0,-6.8632,-6.8778,-6.9746,-7.1894,-7.6238,0.0,-7.9556,-8.2485,-8.3168,-8.3315,-8.3315,-8.3461,-8.4828,-8.8098,-8.8293,-8.8684,-8.9904,-8.8244,-8.8147,-9.0294,-9.0441,-9.2246,-9.6249,-9.6395,-9.6395,-9.6395,-9.6395,-9.6395,-9.6395,-9.6395,-9.6395,-9.6144,-8.9455,-8.6365,-8.5854,-7.9352,-7.5946,-7.4972,-7.4444,-7.339,-7.2183,-7.1454,-7.0654,-7.0009,-7.0009,-7.0009,-7.0009,-7.0009,-7.0009,-7.0009,-7.0009,-7.0009,-7.0009,-7.0009,-7.0009,-7.0009,-7.0009,-7.0009,-7.0009,-7.0009,-7.0009,-7.0009,-7.0009,-7.0009,-7.0009,-7.0009,-7.0009,-7.0009,-7.0009,-7.0009,-7.0009,-7.0009,-7.0009,-7.0009,-7.0009,-7.0009,-7.0009,-7.0009,-7.0009,-7.0009,-7.0009,-7.0009,-7.0009,-7.0009,-7.0009,-7.0009,-7.0009,-7.0009,-7.0009,-7.0009,-6.697,-6.5017,-6.4477,-5.8291,-5.442,-5.3466,-5.0123,-4.8319,-4.7889,-4.7889,-4.7889,-6.8038,-6.9299,-7.0765,-7.0765,-7.0765,-7.0521,-6.9502,-7.0088,-7.0429,-6.8632,-6.9607,0.0,-6.9217,-6.9941,0.0,0.0,0.0,0.0,-8.1216,-8.0728,-8.063,0.0,-8.2739,0.0,-8.6341,-8.7707,-8.8098,0.0,-8.7512,-8.8879,-9.1612,-9.1758,-9.3174,-9.6298,-9.6395,-9.6395,-9.6395,-9.6395,-9.6395,-9.6395,-9.6395,-9.6395,-9.6144,-8.8931,-8.5851,-8.5617,-7.8274,-7.4947,-7.4619,-7.3482,-7.2628,-7.1869,-7.0958,-7.035,-7.0009,-7.0009,-7.0009,-7.0009,-7.0009,-7.0009,-7.0009,-7.0009,-7.0009,-7.0009,-7.0009,-7.0009,-7.0009,-7.0009,-7.0009,-7.0009,-7.0009,-7.0009,-7.0009,-7.0009,-7.0009,-7.0009,-7.0009,-7.0009,-7.0009,-7.0009,-7.0009,-7.0009,-7.0009,-7.0009,-7.0009,-7.0009,-7.0009,-7.0009,-7.0009,-7.0009,-7.0009,-7.0009,-7.0009,-7.0009,-7.0009,-7.0009,-7.0009,-7.0009,-7.0009,-7.0009,-7.0009,-6.6434,-6.3495,-6.142,-5.6208,-5.2338,-5.0266,-4.8579,-4.7889,-4.7889,-4.7889,-4.7889,-6.5451,-6.7452,-7.0081,-7.0619,-7.0765,-7.0765,-7.0765,-7.1401,-7.1503,-7.0185,-7.1406,-7.2187,0.0,0.0,0.0,-7.5896,-7.5652,0.0,-8.0581,-7.9801,0.0,-8.1314,0.0,-8.2543,-8.3803,-8.5901,0.0,0.0,-8.6097,-8.8586,-9.1758,-9.1905,-9.332,-9.6298,-9.6395,-9.6395,-9.6395,-9.6395,-9.6395,-9.6395,-9.5467,-9.504,-9.4787,-8.757,-8.4386,-8.4137,-7.7781,-7.491,-7.4725,-7.3322,-7.2704,-7.2362,-7.092,-7.035,-7.0312,-7.0085,-7.0009,-7.0047,-7.0274,-7.0198,-7.0009,-7.0009,-7.0009,-7.0009,-7.0009,-7.0009,-7.0009,-7.0009,-7.0009,-7.0009,-7.0009,-7.0009,-7.0009,-7.0009,-7.0009,-7.0009,-7.0009,-7.0009,-7.0009,-7.0009,-7.0009,-7.0009,-7.0009,-7.0009,-7.0009,-7.0009,-7.0009,-7.0009,-7.0009,-7.0009,-7.0009,-7.0009,-7.0009,-7.0009,-7.0009,-7.0009,-7.0009,-7.0009,-6.9043,-6.8645,-6.8645,-6.4207,-6.0325,-5.7535,-5.3859,-5.0665,-4.7889,-4.7889,-4.7889,-4.7889,-4.7889,-4.7889,-6.6232,-6.7413,-6.8136,-7.0277,-7.0765,-7.0765,-7.0765,-7.0814,-7.1107,-7.1943,-7.3016,-7.3748,0.0,0.0,-7.6042,-7.8239,-7.8532,-7.9654,-8.2924,-8.3266,-8.2534,0.0,0.0,0.0,0.0,0.0,0.0,-8.2299,-8.3276,-8.5218,-8.8488,-8.8684,-9.1026,-9.6249,-9.6395,-9.6395,-9.6395,-9.6395,-9.6395,-9.6395,-9.2863,-9.1227,-9.0969,-8.3789,-8.0785,-8.0897,-7.6851,-7.4735,-7.4309,-7.3762,-7.3198,-7.24,-7.1565,-7.1224,-7.111,-7.0312,-7.0009,-7.0123,-7.092,-7.0692,-7.0009,-7.0009,-7.0009,-7.0009,-7.0009,-7.0009,-7.0009,-7.0009,-7.0009,-7.0009,-7.0009,-7.0009,-7.0009,-7.0009,-7.0009,-7.0009,-7.0009,-7.0009,-7.0009,-7.0009,-7.0009,-7.0009,-7.0009,-7.0009,-7.0009,-7.0009,-7.0009,-7.0009,-7.0009,-7.0009,-7.0009,-7.0009,-7.0009,-7.0009,-7.0009,-7.0009,-7.0009,-7.0009,-6.6702,-6.4748,-6.4748,-5.7875,-5.3859,-5.3748,-4.9981,-4.8032,-4.7889,-4.7889,-4.7889,-4.7889,-4.7889,-4.7889,-6.3304,-6.5353,-6.7696,-6.8428,-6.9649,-7.0765,-7.0765,-7.0765,-7.0863,-7.1254,-7.2089,-7.3065,-7.3748,-7.4236,-7.5213,-7.736,-7.653,-7.6774,-7.9996,-7.9264,-7.9166,-8.1118,-7.9898,-7.9801,0.0,0.0,0.0,-8.1021,-8.3168,-8.5999,-8.9269,-9.0099,-9.2002,-9.5273,-9.6053,-9.6395,-9.6395,-9.6395,-9.6395,-9.6395,-9.2735,-9.0969,-9.071,-8.3519,-8.0346,-8.0291,-7.659,-7.4961,-7.4675,-7.3956,-7.3539,-7.3198,-7.2362,-7.2059,-7.2021,-7.1717,-7.1261,-7.0958,-7.1793,-7.1869,-7.1527,-7.0996,-7.0844,-7.073,-7.016,-7.0009,-7.0009,-7.0009,-7.0009,-7.0009,-7.0009,-7.0009,-7.0009,-7.0009,-7.0009,-7.0009,-7.0009,-7.0009,-7.0009,-7.0009,-7.0009,-7.0009,-7.0009,-7.0009,-7.0009,-7.0009,-7.0009,-7.0009,-7.0009,-7.0009,-7.0009,-7.0009,-7.0009,-7.0009,-7.0009,-6.7808,-6.6434,-6.6434,-6.2952,-6.0873,-6.0873,-5.6069,-5.3466,-5.3466,-4.9696,-4.7889,-4.7889,-4.7889,-4.7889,-4.7889,-4.7889,-4.7889,-6.1598,0.0,-6.5646,-6.7111,-6.8575,-6.9886,-7.0619,-7.0765,-7.0765,-7.0765,-7.1352,-7.2089,-7.3163,-7.3651,-7.4481,-7.6335,-7.5701,-7.5847,-7.8385,-7.7555,-7.7702,-8.0533,-7.9312,0.0,0.0,0.0,0.0,-8.1411,-8.3412,-8.6048,-8.9318,-9.0148,-9.1856,-9.4736,-9.5517,-9.6053,-9.6395,-9.6395,-9.5719,-9.4486,-9.2222,-8.967,-8.7129,-8.125,-7.8476,-7.8337,-7.6074,-7.4982,-7.4944,-7.4375,-7.4147,-7.4071,-7.3236,-7.2894,-7.2894,-7.259,-7.2325,-7.2173,-7.2704,-7.2742,-7.24,-7.1869,-7.1679,-7.1527,-7.0692,-7.0426,-7.0388,-7.0085,-7.0009,-7.0009,-7.0009,-7.0009,-6.9971,-6.9667,-6.9819,-6.9857,-6.9287,-6.9401,-6.9515,-6.9211,-6.9173,-6.9173,-6.9173,-6.9173,-6.9249,-6.9553,-6.9591,-6.9477,-6.9173,-6.9401,-6.9705,-6.9971,-6.891,-6.8208,-6.8208,-6.4748,-6.268,-6.268,-5.9087,-5.7012,-5.7012,-5.3374,-5.135,-5.135,-4.8671,-4.7317,-4.7317,-4.7317,-4.7317,-4.7317,-4.7317,-4.7317,0.0,0.0,-6.2181,-6.6378,-6.7413,-6.8087,-7.0228,-7.0716,-7.0716,-7.0765,-7.0765,-7.1107,-7.2089,-7.3114,-7.4188,-7.5457,-7.6384,-7.7458,-7.8532,-7.8727,-7.8776,-7.8776,-7.9551,-7.9068,0.0,-7.8532,-8.1265,-8.3315,-8.351,-8.4974,-8.8195,-8.8391,-9.0392,-9.4638,-9.4784,-9.5321,-9.6395,-9.6395,-9.4612,-9.0969,-9.0969,-8.7262,-8.0193,-7.6738,-7.5124,-7.4982,-7.4982,-7.4982,-7.4982,-7.4982,-7.4982,-7.4906,-7.4071,-7.3767,-7.3653,-7.2856,-7.3084,-7.3767,-7.3767,-7.3236,-7.2552,-7.2552,-7.2552,-7.2362,-7.1527,-7.1299,-7.111,-7.0274,-7.0009,-6.9971,-6.9971,-6.9971,-6.9743,-6.8946,-6.9363,-6.9477,-6.7807,-6.8148,-6.849,-6.7617,-6.7465,-6.7465,-6.7465,-6.7465,-6.7731,-6.8642,-6.8718,-6.8414,-6.7579,-6.8095,-6.8929,-6.9593,-6.6459,-6.4272,-6.4272,-6.0807,-5.8715,-5.8715,-5.531,-5.3267,-5.3267,-4.9243,-4.7032,-4.7032,-4.6486,-4.6201,-4.6201,-4.6201,-4.6201,-4.6201,-4.6201,-4.6201,-5.8871,0.0,0.0,-6.6037,-6.7413,-6.8729,-6.9314,-6.9551,-6.9746,-7.0619,-7.0765,-7.1107,-7.2089,-7.1894,-7.2525,-7.5213,-7.5115,-7.5457,-7.7311,-7.8288,-7.8776,-7.8776,-7.902,-7.8873,-7.7946,-8.0093,-8.1411,-8.1265,-8.268,-8.4633,-8.7073,-8.8,-9.0001,-9.3467,-9.4394,-9.5321,-9.6395,-9.6395,-9.4612,-9.0969,-9.0969,-8.7262,-8.0193,-7.9268,-7.74,-7.4982,-7.4982,-7.4982,-7.4982,-7.4982,-7.4982,-7.4944,-7.4716,-7.464,-7.4602,-7.4375,-7.4451,-7.464,-7.464,-7.4489,-7.4223,-7.3577,-7.3388,-7.3122,-7.1717,-7.1299,-7.111,-7.0274,-6.9591,-6.9135,-6.9135,-6.8642,-6.811,-6.7883,-6.7996,-6.8034,-6.7541,-6.7655,-6.7731,-6.7503,-6.7465,-6.7465,-6.7465,-6.7465,-6.7541,-6.7769,-6.7313,-6.7085,-6.7389,-6.5563,-6.3239,-6.0877,-5.9815,-5.9149,-5.9149,-5.5792,-5.3622,-5.3622,-5.0311,-4.8316,-4.8316,-4.7069,-4.6434,-4.6434,-4.6279,-4.6201,-4.6201,-4.6201,-4.6201,-4.6201,-4.6201,-4.6201,-5.5572,0.0,0.0,0.0,-6.4099,-6.5366,-6.6769,-6.7706,-6.8534,-6.9209,-6.9697,-7.0332,-7.1498,-7.1205,-7.1547,0.0,-7.4432,-7.5017,-7.6286,-7.7409,-7.8239,-7.8727,-7.8776,-7.8776,-7.8776,-8.0679,-8.1761,-8.107,-8.3022,-8.4925,-8.6634,-8.7805,-8.9855,-9.3027,-9.2364,-9.2626,-9.4105,-9.2654,-9.0107,-8.6466,-8.6466,-8.3519,-7.8058,-7.8058,-7.7019,-7.4982,-7.4982,-7.4982,-7.4982,-7.4982,-7.4982,-7.4982,-7.4982,-7.4982,-7.4982,-7.4982,-7.4982,-7.4982,-7.4982,-7.4982,-7.4906,-7.4413,-7.3995,-7.3426,-7.1793,-7.1034,-7.0502,-6.9287,-6.8604,-6.8224,-6.8224,-6.7845,-6.7351,-6.7009,-6.7199,-6.7275,-6.6554,-6.6706,-6.682,-6.6478,-6.6402,-6.6402,-6.6402,-6.6402,-6.5583,-6.3226,-6.2424,-6.2176,-6.2447,-6.1008,-5.9113,-5.6941,-5.6904,-5.6565,-5.4963,-5.1519,-4.9396,-4.9396,-4.7391,-4.6201,-4.6201,-4.5967,-4.5837,-4.5837,-4.5603,-4.5473,-4.5473,-4.5473,-4.5473,-4.5473,-4.5473,-4.5473,-5.2365,0.0,0.0,-5.8347,-5.9253,-6.0033,0.0,0.0,-6.6476,-6.6487,-6.7462,-6.8583,-6.969,-7.0081,-7.0619,-7.1552,-7.3698,-7.5164,-7.5164,-7.6238,-7.736,-7.8288,-7.8385,-7.8483,-7.8727,-8.0484,-8.1859,-8.2201,-8.39,-8.556,-8.6878,-8.7903,-8.9708,-9.2491,-8.9534,-8.8716,-9.046,-8.7261,-8.3917,-8.0494,-8.0494,-7.8675,-7.5286,-7.5286,-7.521,-7.5134,-7.5134,-7.5058,-7.4982,-7.4982,-7.4982,-7.4982,-7.4982,-7.4982,-7.4982,-7.4982,-7.4944,-7.483,-7.483,-7.4792,-7.4716,-7.4716,-7.4185,-7.3312,-7.1755,-7.0616,-6.9553,-6.7921,-6.7237,-6.7047,-6.7161,-6.7161,-6.7009,-6.6402,-6.6857,-6.6921,-6.5033,-6.521,-6.5473,-6.4225,-6.3951,-6.3951,-6.3951,-6.3951,-6.223,-5.7168,-5.6368,-5.6082,-5.5607,-5.5859,-5.5822,-5.5349,-5.5563,-5.4479,-5.1152,-4.8,-4.6019,-4.6019,-4.6019,-4.6019,-4.6019,-4.5525,-4.524,-4.524,-4.472,-4.4568,-4.4568,-4.4568,-4.4568,-4.4568,-4.4568,-4.4224,0.0,0.0,0.0,0.0,0.0,0.0,0.0,0.0,-6.0033,-6.0863,-6.2571,-6.3938,-6.4133,-6.5646,-6.7159,-6.8233,-7.0234,-7.2036,-7.2772,-7.4627,-7.5945,-7.614,-7.6189,-7.6872,-7.858,-7.9117,-8.0435,-8.3022,-8.3608,-8.5072,-8.7951,-8.8293,-8.8684,-8.9318,-8.8404,-8.7701,-8.7285,-8.6153,-8.4258,-8.1293,-8.1293,-7.9909,-7.707,-7.707,-7.6653,-7.5969,-7.5969,-7.559,-7.4982,-7.4982,-7.4982,-7.4982,-7.4982,-7.4982,-7.4982,-7.4982,-7.4564,-7.3957,-7.3957,-7.3539,-7.297,-7.297,-7.2856,-7.2552,-7.1565,-7.0236,-6.8832,-6.7731,-6.6022,-6.4617,-6.5263,-6.5453,-6.5567,-6.6098,-6.6857,-6.6586,-6.3233,-6.2753,-6.1918,-5.8681,-5.7993,-5.7993,-5.7993,-5.7993,-5.7697,-5.6501,-5.5954,-5.5671,-5.5543,-5.2944,-5.0941,-5.0822,-4.8471,-4.6725,-4.5951,-4.5309,-4.4798,-4.4798,-4.4798,-4.4798,-4.4798,-4.4668,-4.4616,-4.4616,-4.4646,-4.4568,-4.4568,-4.4568,-4.4568,-4.4568,-4.4568,-4.2597,0.0,0.0,0.0,0.0,0.0,0.0,0.0,0.0,0.0,0.0,0.0,-6.1058,0.0,0.0,-6.589,-6.589,-6.8664,-7.0961,-7.1454,-7.2919,-7.3895,-7.3895,-7.4968,-7.5994,-7.7067,-7.8141,-7.9654,-8.1802,-8.3461,-8.5316,-8.7463,-8.7561,-8.7854,-8.8391,-8.5347,-8.3809,-8.4219,-8.2076,-8.0535,-7.9649,-7.9649,-7.8917,-7.7564,-7.7564,-7.7298,-7.688,-7.688,-7.6387,-7.559,-7.559,-7.5362,-7.4944,-7.4527,-7.4337,-7.4185,-7.297,-7.2742,-7.3008,-7.2173,-7.2135,-7.2514,-7.2514,-7.2211,-7.1717,-7.0882,-6.9781,-6.8604,-6.7693,-6.6554,-6.5681,-6.6098,-6.4794,-6.3604,-6.4005,-6.3047,-6.1476,-5.9642,-5.9247,-5.8554,-5.6698,-5.6432,-5.6432,-5.6432,-5.3789,-5.1623,-5.1306,-5.1123,-5.0804,-5.0485,-4.8733,-4.7142,-4.6207,-4.4484,-4.3422,-4.3578,-4.3448,-4.3656,-4.4516,-4.4568,-4.4305,-4.4019,-4.4019,-4.3889,-4.3604,-4.3578,-4.3578,-4.3578,-4.3578,-4.3578,-4.3578,-4.0225,-3.74,0.0,0.0,0.0,0.0,0.0,0.0,0.0,0.0,0.0,0.0,0.0,0.0,0.0,0.0,0.0,-6.3206,-6.6905,-6.9844,-7.0088,-7.082,-7.1503,-7.1943,-7.37,-7.5213,-7.5604,-7.7116,-7.8824,-8.0533,-8.3266,-8.5511,-8.6975,-8.6651,-8.6599,-8.713,-8.1708,-7.9486,-8.0895,-7.7682,-7.6577,-7.7792,-7.7792,0.0,-7.7792,-7.7792,-7.7336,-7.6615,-7.707,-7.6539,-7.5286,-7.5779,-7.559,-7.4868,-7.3881,-7.3501,-7.3236,-7.1224,-7.1261,-7.2059,-7.073,-7.1034,-7.2021,-7.2021,-7.1565,-7.092,-7.0236,-6.9325,0.0,-6.7655,-6.6691,-6.5957,-6.6106,-6.352,-6.1022,-6.116,-5.9017,-5.6712,-5.5906,-5.5994,-5.5836,-5.487,-5.4891,-5.4973,-5.4581,-5.0087,-4.6279,-4.5499,-4.537,-4.5162,-4.4591,-4.4694,-4.4305,-4.2876,-4.2435,-4.2409,-4.2851,-4.2071,-4.2432,-4.3993,-4.3943,-4.337,-4.2773,-4.2747,-4.2435,-4.176,-4.176,-4.1968,-4.2409,-4.1747,-4.1594,-4.1644,-3.4459,-3.1323,0.0,0.0,0.0,0.0,0.0,0.0,0.0,0.0,0.0,0.0,0.0,0.0,0.0,0.0,0.0,0.0,-6.3011,-6.6769,-6.7745,-6.794,-6.8721,-7.0716,-7.1894,-7.3407,-7.5457,-7.5798,-7.7656,-8.1566,-8.2973,-8.5023,-8.8098,-8.6288,0.0,0.0,0.0,-7.6553,-7.6365,-7.5572,-7.6311,-7.8627,-7.8627,-7.8627,-7.8627,-7.8627,-7.6615,-7.3198,-7.54,-7.464,-7.2021,-7.4223,-7.5058,-7.483,-7.3236,-7.2628,-7.259,-7.2325,-7.1869,-7.1375,-7.1224,0.0,0.0,-7.0312,-7.0236,-7.016,-7.0047,-6.8908,-6.7579,-6.7465,-6.4021,-6.0523,-6.1227,-5.9267,-5.7258,-5.8038,-5.8379,-5.773,-5.4463,-5.4587,-5.4089,-4.9579,-4.9675,-4.9842,-4.8396,-4.6255,-4.4201,-4.2744,-4.251,-4.2302,-4.1604,-4.2409,-4.2954,-4.2747,-4.3136,0.0,-4.3474,-4.1578,-4.1111,-4.2825,-4.15,-4.0409,-3.9719,-3.9812,-3.9319,-3.8228,-3.8228,-3.9215,-4.1214,-3.8164,-3.7234,-3.8129,-2.972,-2.6634,0.0,0.0,0.0,0.0,0.0,0.0,0.0,0.0,0.0,0.0,0.0,0.0,0.0,0.0,0.0,0.0,-6.0473,-6.4133,-6.4621,-6.5744,-6.7599,-7.0423,-7.1694,-7.2626,-7.3649,-7.4919,-7.6823,-7.9849,-8.1655,-8.305,-8.3752,-8.2676,-8.0974,-7.8239,-7.5729,-7.4513,-7.478,-7.4442,-7.502,-7.6577,-7.6577,-7.6577,-7.6577,-7.6577,-7.5628,-7.3995,-7.5058,-7.4451,-7.278,-7.3805,-7.3957,-7.3463,0.0,0.0,0.0,0.0,-7.1261,-7.0388,-6.9401,-6.9477,-7.0009,-7.0009,-7.0009,-7.0009,-7.0009,-6.9515,-6.8517,-6.6346,-6.4094,-6.1928,-6.0082,-5.7181,-5.4755,-5.5166,-5.3639,-5.1657,-5.0001,-4.9814,-4.9394,-4.7306,-4.7275,0.0,-4.5245,-4.4435,-4.3578,-4.2539,-4.2383,-4.2305,-4.2045,-4.2435,-4.2487,-4.1812,-4.1656,-4.1734,-4.2071,-4.0929,0.0,0.0,0.0,-4.1552,-4.1318,-4.1007,0.0,0.0,0.0,-3.6524,-3.5134,-3.4328,0.0,0.0,-2.4489,-2.227,0.0,0.0,0.0,0.0,0.0,0.0,0.0,0.0,0.0,0.0,0.0,0.0,0.0,0.0,0.0,0.0,-5.7544,-6.0766,-6.0473,-6.306,-6.5744,-6.7882,-7.0283,-7.1698,-7.1406,-7.3358,-7.5454,-7.7307,-7.9231,-7.9898,-7.926,-7.842,-7.7031,-7.482,-7.262,-7.2097,-7.3448,-7.3184,-7.3691,-7.4982,-7.4982,-7.4868,-7.464,-7.464,-7.4147,-7.3312,-7.3995,-7.3577,-7.2438,-7.3122,-7.3046,-7.2362,-7.0958,-7.0085,-6.9553,-6.9553,-6.9173,-6.8452,-6.7199,-6.7731,-6.8984,-6.8984,-6.9135,-6.9025,-6.8237,-6.7788,-6.6946,-6.3264,-6.1456,-5.9948,-5.7085,-5.3738,-5.1036,-5.1036,-4.8678,-4.6331,-4.6331,-4.6312,-4.6216,-4.5903,-4.5473,-4.4746,-4.3162,-4.2876,-4.2591,-4.1708,-4.1708,-4.1734,-4.1578,-4.1968,-4.1942,-4.1111,-4.0825,-4.0825,-4.124,-4.0305,-4.0461,-4.2175,-4.1838,-4.1786,-4.2253,-4.1266,-3.9419,-3.6522,-3.552,-3.3768,0.0,0.0,0.0,0.0,0.0,0.0,0.0,0.0,0.0,0.0,0.0,0.0,0.0,0.0,0.0,0.0,0.0,0.0,0.0,0.0,0.0,0.0,0.0,0.0,-5.5006,-5.9399,-6.2376,-6.14,-6.7002,-7.0332,-6.9217,-7.1113,-7.288,-7.411,-7.5146,-7.5825,-7.5916,-7.3919,-7.2747,-7.2624,-6.9416,-6.881,-7.1358,-7.1472,-7.259,-7.4982,-7.4982,-7.4564,-7.3767,-7.3767,-7.2021,-6.9135,-7.1527,-7.1186,-6.9135,-7.1565,-7.2514,-7.2021,-6.7123,-6.5187,-6.5149,-6.5149,-6.5149,-6.5111,-6.5073,-6.5605,-6.6364,-6.6364,-6.6895,-6.6864,-6.357,-6.213,-6.0983,-5.7562,-5.3567,-5.0342,-5.0211,-4.7511,-4.4805,-4.4805,-4.4672,-4.4646,-4.4646,-4.5482,-4.5976,-4.481,-4.3604,-4.2461,-4.1318,-4.1111,-4.0539,-3.8877,-3.9085,0.0,-3.8695,-4.0072,-4.1085,-4.1033,-4.1526,-4.1989,-4.1989,-3.9812,-3.9267,-4.0981,-3.9526,-3.9371,-4.1007,-3.8955,-3.776,-3.7621,-3.3128,-3.0992,-3.1606,0.0,0.0,0.0,0.0,0.0,0.0,0.0,0.0,0.0,0.0,0.0,0.0,0.0,0.0,0.0,0.0,0.0,0.0,0.0,0.0,0.0,0.0,0.0,0.0,-5.8179,-6.1693,-6.2035,-6.5305,-6.6818,-6.4963,-6.5807,-6.699,-6.8037,-6.9522,-6.9986,-6.9222,-6.9071,-6.8201,-6.6713,-6.6645,-6.7047,-6.7921,-6.8452,-6.9173,-7.0009,-7.0009,-6.9857,-6.9553,-6.9553,-6.8946,-6.7958,-6.8794,-6.868,-6.7921,-6.8224,-6.8034,-6.7351,-6.5643,-6.4959,-6.4959,-6.4959,-6.4959,-6.4959,-6.4959,-6.5149,-6.5006,-6.2979,-6.2499,-6.2085,-5.8835,-5.777,-5.6768,-5.3158,-5.1054,-4.9471,-4.7032,-4.5472,-4.4568,-4.4568,-4.4149,-4.3863,-4.3863,-4.3885,-4.3865,-4.3447,-4.1474,-3.9552,-3.841,-3.9786,-4.0202,-3.7734,-3.9137,-4.0383,-4.0202,-4.0669,-4.1033,-4.1033,-4.1214,-4.1318,-4.1318,-4.0617,-4.0409,-4.1007,-4.0487,-4.0254,-4.0461,-3.9734,-3.8315,-3.5782,-3.1943,-2.9364,-2.8026,0.0,0.0,0.0,0.0,0.0,0.0,0.0,0.0,0.0,0.0,0.0,0.0,0.0,0.0,0.0,0.0,0.0,0.0,0.0,0.0,0.0,0.0,0.0,0.0,0.0,0.0,-6.1888,-6.4329,0.0,-6.2815,-6.2991,-6.3162,-6.3196,-6.4526,-6.4791,-6.3604,-6.4321,-6.4063,-6.2495,-6.3479,-6.4314,-6.4921,-6.5415,-6.5984,-6.6554,-6.6554,-6.6554,-6.6554,-6.6554,-6.6554,-6.6554,-6.6554,-6.6554,-6.6402,-6.439,-6.3213,-6.2643,-6.177,-6.1428,-6.139,-6.1087,-6.1352,-6.1884,-6.2188,-6.2681,-6.2892,-6.1186,-5.9951,-5.8523,-5.4665,-5.3205,-5.2127,-4.8778,-4.731,-4.6309,-4.4344,-4.3197,-4.2617,-4.2617,-4.2331,-4.2071,-4.2071,-4.1448,-4.1033,-4.1448,-3.9708,-3.7838,-3.667,-3.7994,-3.854,-3.6378,-3.7916,-3.9448,-4.0046,-4.0305,-4.0435,-4.0435,-4.0435,-4.0435,-4.0435,-4.0435,-4.0435,-4.0435,-4.0435,-3.9771,-3.8282,-3.8282,-3.6501,-3.2745,-3.0715,-2.8185,0.0,0.0,0.0,0.0,0.0,0.0,0.0,0.0,0.0,0.0,0.0,0.0,0.0,0.0,0.0,0.0,0.0,0.0,0.0,0.0,0.0,0.0,0.0,0.0,0.0,0.0,0.0,-6.0473,-6.3416,0.0,0.0,0.0,0.0,-5.9238,-6.0109,-6.0115,-5.8805,-5.9664,-6.0022,-5.9755,-5.9833,-6.0555,-6.2305,-6.234,-6.3175,-6.4731,-6.4731,-6.4731,-6.4731,-6.4731,-6.4731,-6.4769,-6.4731,-6.4731,-6.4466,-6.0251,-5.8505,-5.8277,-5.5923,-5.4936,-5.4784,-5.4089,-5.4708,-5.6151,-5.6948,-5.8353,-5.991,-6.0593,-5.9077,-5.6119,-5.1193,-4.8606,0.0,0.0,-4.2346,-4.1127,-4.184,-4.0572,-3.9215,-3.9201,-3.9201,-3.9201,-3.9201,-3.8436,-3.7942,-3.8929,-3.8202,-3.7144,-3.5761,0.0,-3.5553,-3.4825,-3.5475,-3.654,-3.8228,-3.8955,-3.9201,-3.9201,-3.9201,-3.9201,-3.9083,-3.9201,-3.9201,-3.9083,-3.9201,-3.7851,-3.4908,-3.472,-3.2679,-2.8642,-2.9004,0.0,0.0,0.0,0.0,0.0,0.0,0.0,0.0,0.0,0.0,0.0,0.0,0.0,0.0,0.0,0.0,0.0,0.0,0.0,0.0,0.0,0.0,0.0,0.0,0.0,0.0,-5.1755,-5.3912,-5.6031,-5.6358,-5.5455,0.0,0.0,0.0,0.0,0.0,0.0,-5.3529,-5.3663,-5.4436,-5.5504,-5.6111,-5.6797,-5.7822,-5.972,-6.0897,-6.1314,-6.1314,-6.1314,-6.1314,-6.1314,-6.1656,-6.2188,-6.158,-6.1656,-6.1884,-5.767,-5.5923,-5.5885,-5.524,-5.4253,-5.3114,-5.2924,-5.3114,-5.3494,-5.3721,-5.4898,-5.6113,-5.5088,-5.2708,-4.9879,-4.7283,0.0,0.0,0.0,0.0,-3.7497,-3.8012,-3.7766,-3.776,-3.9033,-3.9201,-3.9201,-3.9201,-3.8436,-3.7345,-3.6249,-3.5241,-3.3628,-3.0697,-3.1943,0.0,-3.145,0.0,-3.641,-3.7708,-3.8721,-3.9201,-3.9201,-3.9201,-3.8349,-3.6168,-3.7994,-3.8349,-3.6049,-3.7994,-3.7676,-3.4164,-3.3401,-3.0636,-2.5403,0.0,0.0,0.0,0.0,0.0,0.0,0.0,0.0,0.0,0.0,0.0,0.0,0.0,0.0,0.0,0.0,0.0,0.0,0.0,0.0,0.0,0.0,0.0,0.0,0.0,0.0,0.0,-4.8854,-5.1707,-5.4328,-5.3663,-5.2304,0.0,0.0,0.0,0.0,0.0,0.0,0.0,0.0,0.0,-5.0645,-5.095,-5.1747,-5.2924,-5.5468,-5.6948,-5.7328,-5.8391,-5.8923,-5.8923,-5.8923,-5.9188,-5.953,-5.8353,-5.767,-5.7252,-5.4898,-5.3721,-5.3228,0.0,0.0,0.0,0.0,-4.9128,-4.9773,-4.9773,-5.0874,-5.2051,-5.0722,0.0,0.0,0.0,0.0,0.0,0.0,0.0,-3.7292,-3.7008,-3.7042,-3.7397,-3.8358,-3.8202,-3.7994,-3.8488,-3.5735,-3.3008,-3.254,-3.1528,-3.0059,-2.7528,-2.8645,0.0,0.0,0.0,-3.428,-3.5917,-3.7579,-3.8591,-3.8591,-3.8591,-3.7871,-3.6196,-3.7639,-3.7266,-3.4166,-3.5614,-3.4484,-2.9798,-2.8527,-2.5459,0.0,0.0,0.0,0.0,0.0,0.0,0.0,0.0,0.0,0.0,0.0,0.0,0.0,0.0,0.0,0.0,0.0,0.0,0.0,0.0,0.0,0.0,0.0,0.0,0.0,0.0,0.0,0.0,0.0,-4.9699,-5.2838,0.0,0.0,0.0,0.0,0.0,0.0,0.0,0.0,0.0,0.0,0.0,0.0,0.0,-4.6318,-4.8003,-5.0304,-5.1937,-5.291,-5.5078,-5.6037,-5.6151,-5.6151,-5.6303,-5.6417,-5.486,0.0,-5.2317,-5.1975,0.0,0.0,0.0,0.0,0.0,0.0,0.0,0.0,0.0,0.0,0.0,0.0,0.0,0.0,0.0,0.0,0.0,0.0,0.0,0.0,0.0,0.0,-3.6623,-3.6623,-3.5943,-3.5579,-3.6467,-3.1709,-2.7632,-2.8574,-2.784,-2.6749,0.0,0.0,0.0,0.0,0.0,0.0,-3.3761,-3.615,-3.7769,-3.7769,-3.7292,-3.6953,-3.6475,-3.6475,-3.5204,-3.2057,-3.2222,-2.9827,-2.4008,-2.2623,0.0,0.0,0.0,0.0,0.0,0.0,0.0,0.0,0.0,0.0,0.0,0.0,0.0,0.0,0.0,0.0,0.0,0.0,0.0,0.0,0.0,0.0,0.0,0.0,0.0,0.0,0.0,0.0,0.0,0.0,0.0,0.0,0.0,0.0,0.0,0.0,0.0,0.0,0.0,0.0,0.0,0.0,0.0,0.0,0.0,0.0,0.0,0.0,0.0,0.0,-4.7989,-4.8558,-4.9203,-4.9203,-5.0001,-5.1157,-5.0266,-5.0456,-5.133,-4.9203,0.0,0.0,0.0,0.0,0.0,0.0,0.0,0.0,0.0,0.0,0.0,0.0,0.0,0.0,0.0,0.0,0.0,0.0,0.0,0.0,0.0,0.0,-3.0684,-3.0684,-3.1596,-3.2143,-3.0945,0.0,0.0,0.0,0.0,0.0,0.0,0.0,0.0,0.0,0.0,0.0,-3.3289,-3.6024,-3.7769,-3.7769,-3.5431,-3.2765,-3.0222,-2.9992,-2.8725,-2.5596,-2.801,-2.7144,0.0,0.0,0.0,0.0,0.0,0.0,0.0,0.0,0.0,0.0,0.0,0.0,0.0,0.0,0.0,0.0,0.0,0.0,0.0,0.0,0.0,0.0,0.0,0.0,0.0,0.0,0.0,0.0,0.0,0.0,0.0,0.0,0.0,0.0,0.0,0.0,0.0,0.0,0.0,0.0,0.0,0.0,0.0,0.0,0.0,0.0,0.0,0.0,0.0,0.0,0.0,0.0,0.0,0.0,0.0,0.0,0.0,0.0,-4.6926,-4.5559,0.0,0.0,0.0,0.0,0.0,0.0,0.0,0.0,0.0,0.0,0.0,0.0,0.0,0.0,0.0,0.0,0.0,0.0,0.0,0.0,0.0,0.0,0.0,0.0,0.0,0.0,0.0,0.0,0.0,0.0,0.0,0.0,0.0,0.0,0.0,0.0,0.0,0.0,0.0,0.0,-3.007,-3.3185,-3.4612,-3.3016,-3.1506,-2.9992,-2.8494,-2.8378,-2.6769,-2.2841,-2.4991,0.0,0.0,0.0,0.0,0.0,0.0,0.0,0.0,0.0,0.0,0.0,0.0,0.0,0.0,0.0,0.0,0.0,0.0,0.0,0.0,0.0,0.0,0.0,0.0,0.0,0.0,0.0,0.0,0.0,0.0,0.0,0.0,0.0,0.0,0.0,0.0,0.0,0.0,0.0,0.0,0.0,0.0,0.0,0.0,0.0,0.0,0.0,0.0,0.0,0.0,0.0,0.0,0.0,0.0,0.0,0.0,0.0,0.0,0.0,-4.4306,-4.157,0.0,0.0,0.0,0.0,0.0,0.0,0.0,0.0,0.0,0.0,0.0,0.0,0.0,0.0,0.0,0.0,0.0,0.0,0.0,0.0,0.0,0.0,0.0,0.0,0.0,0.0,0.0,0.0,0.0,0.0,0.0,0.0,0.0,0.0,0.0,0.0,0.0,0.0,0.0,0.0,-2.8201,-3.157,-3.2879,-2.9647,-2.8725,-2.8147,-2.7453,-2.6758,-2.4781,-2.0855,-2.1894,0.0,0.0,0.0,0.0,0.0,0.0,0.0,0.0,0.0,0.0,0.0,0.0,0.0,0.0,0.0,0.0,0.0,0.0,0.0,0.0,0.0,0.0,0.0,0.0,0.0,0.0,0.0,0.0,0.0,0.0,0.0,0.0,0.0,0.0,0.0,0.0,0.0,0.0,0.0,0.0,0.0,0.0,0.0,0.0,0.0,0.0,0.0,0.0,0.0,0.0,0.0,0.0,0.0,0.0,0.0,0.0,0.0,0.0,0.0,0.0,0.0,0.0,0.0,0.0,0.0,0.0,0.0,0.0,0.0,0.0,0.0,0.0,0.0,0.0,0.0,0.0,0.0,0.0,0.0,0.0,0.0,0.0,0.0,0.0,0.0,0.0,0.0,0.0,0.0,0.0,0.0,0.0,0.0,0.0,0.0,0.0,0.0,0.0,0.0,0.0,0.0,-3.1047,-3.4821,-3.6111,-3.2994,-3.0107,-2.7221,-2.4432,-2.1538,-1.9144,-1.7443,0.0,0.0,0.0,0.0,0.0,0.0,0.0,0.0,0.0,0.0,0.0,0.0,0.0,0.0,0.0,0.0,0.0,0.0,0.0,0.0,0.0,0.0,0.0,0.0,0.0,0.0,0.0,0.0,0.0,0.0,0.0,0.0,0.0,0.0,0.0,0.0,0.0,0.0,0.0,0.0,0.0,0.0,0.0,0.0,0.0,0.0,0.0,0.0,0.0,0.0,0.0,0.0,0.0,0.0,0.0,0.0,0.0,0.0,0.0,0.0,0.0,0.0,0.0,0.0,0.0,0.0,0.0,0.0,0.0,0.0,0.0,0.0,0.0,0.0,0.0,0.0,0.0,0.0,0.0,0.0,0.0,0.0,0.0,0.0,0.0,0.0,0.0,0.0,0.0,0.0,0.0,0.0,0.0,0.0,0.0,0.0,0.0,0.0,0.0,0.0,0.0,0.0,-2.5903,-2.9452,-3.0222,-2.5113,-2.3498,-2.215,-2.082,-1.9541,-1.7853,-1.5519,0.0,0.0,0.0,0.0,0.0,0.0,0.0,0.0,0.0,0.0,0.0,0.0,0.0,0.0,0.0,0.0,0.0,0.0,0.0,0.0,0.0,0.0,0.0,0.0,0.0,0.0,0.0,0.0,0.0,0.0,0.0,0.0,0.0,0.0,0.0,0.0,0.0,0.0,0.0,0.0,0.0,0.0,0.0,0.0,0.0,0.0,0.0,0.0,0.0,0.0,0.0,0.0,0.0,0.0,0.0,0.0,0.0,0.0,0.0,0.0,0.0,0.0,0.0,0.0,0.0,0.0,0.0,0.0,0.0,0.0,0.0,0.0,0.0,0.0,0.0,0.0,0.0,0.0,0.0,0.0,0.0,0.0,0.0,0.0,0.0,0.0,0.0,0.0,0.0,0.0,0.0,0.0,0.0,0.0,0.0,0.0,0.0,0.0,0.0,0.0,0.0,0.0,-2.3194,-2.5941,-2.6044,-2.0791,-2.0225,-1.9793,-1.868,-1.8552,-1.7339,-1.4594,0.0,0.0,0.0,0.0,0.0,0.0,0.0,0.0,0.0,0.0,0.0,0.0,0.0,0.0,0.0,0.0,0.0,0.0,0.0,0.0,0.0,0.0,0.0,0.0,0.0,0.0,0.0,0.0,0.0,0.0,0.0,0.0,0.0,0.0,0.0,0.0,0.0,0.0,0.0,0.0,0.0,0.0,0.0,0.0,0.0,0.0,0.0,0.0,0.0,0.0,0.0,0.0,0.0,0.0,0.0,0.0,0.0,0.0,0.0,0.0,0.0,0.0,0.0,0.0,0.0,0.0,0.0,0.0,0.0,0.0,0.0,0.0,0.0,0.0,0.0,0.0,0.0,0.0,0.0,0.0,0.0,0.0,0.0,0.0,0.0,0.0,0.0,0.0,0.0,0.0,0.0,0.0,0.0,0.0,0.0,0.0,0.0,0.0,0.0,0.0,0.0,0.0,-2.5488,-2.6648,-2.6309,-2.3237,-2.2919,-2.1578,-1.8574,-1.8235,-1.7128,0.0,0.0,0.0,0.0,0.0,0.0,0.0,0.0,0.0,0.0,0.0,0.0,0.0,0.0,0.0,0.0,0.0,0.0,0.0,0.0,0.0,0.0,0.0,0.0,0.0,0.0,0.0,0.0,0.0,0.0,0.0,0.0,0.0,0.0,0.0,0.0,0.0,0.0,0.0,0.0,0.0,0.0,0.0,0.0,0.0,0.0,0.0,0.0,0.0,0.0,0.0,0.0,0.0,0.0,0.0,0.0,0.0,0.0,0.0,0.0,0.0,0.0,0.0,0.0,0.0,0.0,0.0,0.0,0.0,0.0,0.0,0.0,0.0,0.0,0.0,0.0,0.0,0.0,0.0,0.0,0.0,0.0,0.0,0.0,0.0,0.0,0.0,0.0,0.0,0.0,0.0,0.0,0.0,0.0,0.0,0.0,0.0,0.0,0.0,0.0,0.0,0.0,0.0,-2.2547,-2.3173,-2.2648,0.0,-1.9798,-1.9264,-1.8056,-1.8043,-1.6811,-1.4187,0.0,0.0,0.0,0.0,0.0,0.0,0.0,0.0,0.0,0.0,0.0,0.0,0.0,0.0,0.0,0.0,0.0,0.0,0.0,0.0,0.0,0.0,0.0,0.0,0.0,0.0,0.0,0.0,0.0,0.0,0.0,0.0,0.0,0.0,0.0,0.0,0.0,0.0,0.0,0.0,0.0,0.0,0.0,0.0,0.0,0.0,0.0,0.0,0.0,0.0,0.0,0.0,0.0,0.0,0.0,0.0,0.0,0.0,0.0,0.0,0.0,0.0,0.0,0.0,0.0,0.0,0.0,0.0,0.0,0.0,0.0,0.0,0.0,0.0,0.0,0.0,0.0,0.0,0.0,0.0,0.0,0.0,0.0,0.0,0.0,0.0,0.0,0.0,0.0,0.0,0.0,0.0,0.0,0.0,0.0,0.0,0.0,0.0,0.0,0.0,0.0,0.0,0.0,-2.0937,-2.03,0.0,-1.7906,-1.784,-1.7655,-1.7642,-1.6561,-1.3955,0.0,0.0,0.0,0.0,0.0,0.0,0.0,0.0,0.0,0.0,0.0,0.0,0.0,0.0,0.0,0.0,0.0,0.0,0.0,0.0,0.0,0.0,0.0,0.0,0.0,0.0,0.0,0.0,0.0,0.0,0.0,0.0,0.0,0.0,0.0,0.0,0.0,0.0,0.0,0.0,0.0,0.0,0.0,0.0,0.0,0.0,0.0,0.0,0.0,0.0,0.0,0.0,0.0,0.0,0.0,0.0,0.0,0.0,0.0,0.0,0.0,0.0,0.0,0.0,0.0,0.0,0.0,0.0,0.0,0.0,0.0,0.0,0.0,0.0,0.0,0.0,0.0,0.0,0.0,0.0,0.0,0.0,0.0,0.0,0.0,0.0,0.0,0.0,0.0,0.0,0.0,0.0,0.0,0.0,0.0,0.0,0.0,0.0,0.0,0.0,0.0,0.0,0.0,-1.9741,-1.89,-1.746,-1.7205,-1.7205,-1.7205,-1.7205,-1.6222,-1.3903,-1.3772,0.0,0.0,0.0,0.0,0.0,0.0,0.0,0.0,0.0,0.0,0.0,0.0,0.0,0.0,0.0,0.0,0.0,0.0,0.0,0.0,0.0,0.0,0.0,0.0,0.0,0.0,0.0,0.0,0.0,0.0,0.0,0.0,0.0,0.0,0.0,0.0,0.0,0.0,0.0,0.0,0.0,0.0,0.0,0.0,0.0,0.0,0.0,0.0,0.0,0.0,0.0,0.0,0.0,0.0,0.0,0.0,0.0,0.0,0.0,0.0,0.0,0.0,0.0,0.0,0.0,0.0,0.0,0.0,0.0,0.0,0.0,0.0,0.0,0.0,0.0,0.0,0.0,0.0,0.0,0.0,0.0,0.0,0.0,0.0,0.0,0.0,0.0,0.0,0.0,0.0,0.0,0.0,0.0,0.0,0.0,0.0,0.0,0.0,0.0,0.0,0.0,0.0,-1.8329,-1.6642,-1.6743,-1.6693,-1.6693,-1.6693,-1.6693,-1.5796,-1.3615,-1.3484,0.0,0.0,0.0,0.0,0.0,0.0,0.0,0.0,0.0,0.0,0.0,0.0,0.0,0.0,0.0,0.0,0.0,0.0,0.0,0.0,0.0,0.0,0.0,0.0,0.0,0.0,0.0,0.0,0.0,0.0,0.0,0.0,0.0,0.0,0.0,0.0,0.0,0.0,0.0,0.0,0.0,0.0,0.0,0.0,0.0,0.0,0.0,0.0,0.0,0.0,0.0,0.0,0.0,0.0,0.0,0.0,0.0,0.0,0.0,0.0,0.0,0.0,0.0,0.0,0.0,0.0,0.0,0.0,0.0,0.0,0.0,0.0,0.0,0.0,0.0,0.0,0.0,0.0,0.0,0.0,0.0,0.0,0.0,0.0,0.0,0.0,0.0,0.0,0.0,0.0,0.0,0.0,0.0,0.0,0.0,0.0,0.0,0.0,0.0,0.0,0.0,0.0,-1.8982,-1.6761,-1.6552,-1.6482,-1.6482,-1.6482,-1.6482,-1.5625,-1.351,-1.3261,0.0,0.0,0.0,0.0,0.0,0.0,0.0,0.0,0.0,0.0,0.0,0.0,0.0,0.0,0.0,0.0,0.0,0.0,0.0,0.0,0.0,0.0,0.0,0.0,0.0,0.0,0.0,0.0,0.0,0.0,0.0,0.0,0.0,0.0,0.0,0.0,0.0,0.0,0.0,0.0,0.0,0.0,0.0,0.0,0.0,0.0,0.0,0.0,0.0,0.0,0.0,0.0,0.0,0.0,0.0,0.0,0.0,0.0,0.0,0.0,0.0,0.0,0.0,0.0,0.0,0.0,0.0,0.0,0.0,0.0,0.0,0.0,0.0,0.0,0.0,0.0,0.0,0.0,0.0,0.0,0.0,0.0,0.0,0.0,0.0,0.0,0.0,0.0,0.0,0.0,0.0,0.0,0.0,0.0,0.0,0.0,0.0,0.0,0.0,0.0,0.0,0.0,0.0,-1.8397,-1.6743,-1.6472,-1.6363,-1.6363,-1.6363,-1.5519,-1.3444,0.0,0.0,0.0,0.0,0.0,0.0,0.0,0.0,0.0,0.0,0.0,0.0,0.0,0.0,0.0,0.0,0.0,0.0,0.0,0.0,0.0,0.0,0.0,0.0,0.0,0.0,0.0,0.0,0.0,0.0,0.0,0.0,0.0,0.0,0.0,0.0,0.0,0.0,0.0,0.0,0.0,0.0,0.0,0.0,0.0,0.0,0.0,0.0,0.0,0.0,0.0,0.0,0.0,0.0,0.0,0.0,0.0,0.0,0.0,0.0,0.0,0.0,0.0,0.0,0.0,0.0,0.0,0.0,0.0,0.0,0.0,0.0,0.0,0.0,0.0,0.0,0.0,0.0,0.0,0.0,0.0,0.0,0.0,0.0,0.0,0.0,0.0,0.0,0.0,0.0,0.0,0.0,0.0,0.0,0.0,0.0,0.0,0.0,0.0,0.0,0.0,0.0,0.0,0.0,-2.0107,-1.7187,-1.616,-1.5659,-1.5659,-1.5659,-1.4992,-1.3212,0.0,0.0,0.0,0.0,0.0,0.0,0.0,0.0,0.0,0.0,0.0,0.0,0.0,0.0]}],[{"header":{"parameterUnit":"kt","parameterCategory":2,"dx":1,"dy":1,"la1":29.285339999999998,"la2":30.599998999999997,"lo1":-89.70041500000002,"lo2":-87.6738589999976,"nx":112,"ny":82,"refTime":"2022-10-22T00:00:00:Z","depth":0,"parameterNumber":2,"parameterNumberName":"V-component_of_WINDS"},"data":[8.2485,8.3656,0.0,7.8043,7.614,0.0,6.8819,0.0,0.0,0.0,0.0,0.0,0.0,0.0,0.0,0.0,0.0,0.0,0.0,0.0,0.0,0.0,0.0,0.0,0.0,0.0,0.0,0.0,0.0,0.0,0.0,0.0,10.3362,10.3362,10.5922,10.7259,10.7259,10.8539,10.9686,11.0342,11.2145,11.3425,11.4239,11.4705,11.4879,11.4879,11.4879,11.4879,11.4821,11.4007,11.2611,11.0924,11.011,10.8772,10.7259,10.7259,10.7259,10.7259,10.7259,10.7259,10.7259,10.7259,10.7259,10.7259,10.7259,10.7259,10.7651,10.9115,11.1824,11.467,11.6126,11.8886,12.1258,12.1258,12.1258,12.1258,12.1258,12.1258,12.1258,12.1258,12.1258,12.1258,12.1258,12.1258,12.1258,12.1258,12.1258,12.1785,12.3297,12.4678,12.573,12.6256,12.7177,12.6979,12.5138,12.5796,12.7308,12.9741,12.9347,12.8886,12.8492,12.6585,12.5138,12.4218,12.139,12.0338,12.1258,11.8825,11.8168,11.9154,11.9154,11.8168,0.0,0.0,7.8922,7.3258,0.0,0.0,0.0,0.0,0.0,0.0,0.0,0.0,0.0,0.0,0.0,0.0,0.0,0.0,0.0,0.0,0.0,0.0,0.0,0.0,0.0,0.0,0.0,0.0,0.0,0.0,0.0,10.2373,10.4875,10.534,10.7027,10.7957,10.7957,10.9644,11.0633,11.0982,11.2785,11.4065,11.4879,11.4879,11.4879,11.4879,11.4879,11.4879,11.4821,11.3541,11.2204,11.0866,10.9644,10.8423,10.7259,10.7259,10.7259,10.7259,10.7259,10.7259,10.7259,10.7259,10.7259,10.7259,10.7259,10.7259,10.7651,10.921,11.1824,11.467,11.621,11.895,12.1258,12.1258,12.1258,12.1258,12.1258,12.1258,12.1258,12.1258,12.1258,12.1258,12.1258,12.1258,12.1258,12.1258,12.1258,12.1785,12.3297,12.4283,12.5072,12.5533,12.5993,12.5467,12.3626,12.4744,12.6782,12.9676,12.8952,12.7966,12.7045,12.4678,12.2968,12.2048,11.9154,11.8365,11.9746,11.7313,11.6655,11.7642,11.7642,11.6327,0.0,0.0,0.0,6.5842,0.0,0.0,0.0,0.0,5.9155,0.0,0.0,0.0,0.0,0.0,0.0,0.0,0.0,0.0,0.0,0.0,0.0,0.0,0.0,0.0,0.0,0.0,0.0,0.0,0.0,0.0,10.3071,10.5863,10.7899,10.9221,10.9279,10.9337,10.9337,11.1738,11.232,11.1098,11.3658,11.4879,11.4879,11.4879,11.4879,11.4879,11.4879,11.4879,11.4821,11.3541,11.2204,11.0866,10.9644,10.8423,10.7259,10.7259,10.7259,10.7259,10.7259,10.7259,10.7259,10.7259,10.7259,10.7259,10.7259,10.7259,10.7259,10.7259,11.0656,11.4322,11.4322,11.7769,12.1258,12.1258,12.1258,12.1258,12.1258,12.1258,12.1258,12.1258,12.1258,12.1258,12.1258,12.1258,12.1258,12.1258,12.1258,12.1785,12.3297,12.3494,12.3955,12.5335,12.4283,12.3428,12.3428,12.4744,12.6782,12.9544,12.7177,12.5599,12.5467,12.1456,11.922,11.9088,11.6195,11.5406,11.6853,11.534,11.4683,11.4748,11.4683,11.3894,6.7159,0.0,0.0,0.0,0.0,0.0,0.0,0.0,0.0,0.0,0.0,0.0,0.0,0.0,0.0,0.0,0.0,0.0,0.0,0.0,0.0,0.0,0.0,0.0,0.0,0.0,0.0,0.0,0.0,0.0,10.3188,10.5863,10.7899,10.9221,10.9279,10.9586,11.0459,11.2145,11.2785,11.2436,11.4123,11.4879,11.4879,11.4879,11.4879,11.4879,11.4879,11.4879,11.4821,11.3541,11.2204,11.0866,10.9644,10.8423,10.7259,10.7259,10.7259,10.7259,10.7259,10.7259,10.7259,10.7259,10.7259,10.7259,10.7259,10.7259,10.7259,10.7259,11.0656,11.4322,11.4322,11.7769,12.1258,12.1258,12.1258,12.1258,12.1258,12.1258,12.1258,12.1258,12.1258,12.1258,12.1258,12.1258,12.1258,12.1258,12.1258,12.1785,12.3297,12.3494,12.3626,12.402,12.3692,12.3034,12.1982,12.4152,12.5927,12.6716,12.6979,12.573,12.2574,12.1324,11.968,11.751,11.5669,11.5406,11.6853,11.4354,11.3696,11.4683,11.3631,11.2907,0.0,0.0,0.0,0.0,0.0,0.0,6.0229,0.0,5.7935,0.0,0.0,0.0,0.0,0.0,0.0,0.0,0.0,0.0,0.0,0.0,0.0,0.0,0.0,0.0,0.0,0.0,0.0,0.0,0.0,10.1734,10.4816,10.6445,10.8074,10.9877,10.9935,11.0575,11.1796,11.3134,11.3541,11.3018,11.4298,11.4879,11.4879,11.4879,11.4879,11.4879,11.4879,11.4588,11.4007,11.2669,11.1389,11.011,10.8888,10.7957,10.7259,10.7259,10.7259,10.7259,10.7259,10.7259,10.7259,10.7259,10.7259,10.7259,10.7259,10.7259,10.7259,10.7259,11.0656,11.4322,11.4322,11.7769,12.1258,12.1258,12.1258,12.1258,12.1258,12.1258,12.1258,12.1258,12.1258,12.1258,12.1258,12.1258,12.1258,12.1258,12.1258,12.1587,12.2442,12.31,12.3231,12.2639,12.31,12.2837,12.139,12.3889,12.5335,12.4744,12.6585,12.6059,12.2376,12.0404,11.8036,11.5077,11.4222,11.4222,11.5011,11.3367,11.2973,11.3762,11.2907,11.2513,0.0,0.0,0.0,0.0,5.935,0.0,0.0,0.0,0.0,0.0,0.0,0.0,0.0,0.0,0.0,0.0,0.0,0.0,0.0,0.0,0.0,0.0,0.0,0.0,0.0,0.0,10.1152,10.6852,10.406,10.3653,10.7085,10.7259,10.8423,11.0924,11.0982,11.168,11.3192,11.4298,11.4298,11.3192,11.4356,11.4879,11.4879,11.4879,11.4821,11.4705,11.4821,11.4065,11.2669,11.1506,11.0284,10.9063,10.7783,10.7259,10.7259,10.7259,10.7259,10.7259,10.7259,10.7259,10.7259,10.7259,10.7259,10.7259,10.7259,10.7259,10.7259,10.7259,11.047,11.3972,11.4235,11.7605,12.0952,12.1258,12.1258,12.1258,12.1258,12.1258,12.1258,12.1258,12.1258,12.1258,12.1258,12.1258,12.1258,12.1258,12.1258,12.1258,12.1258,12.2574,12.2902,12.1456,12.2574,12.2837,12.139,12.3757,12.4809,12.356,12.5796,12.6059,12.356,11.922,11.5472,11.2578,11.2513,11.2513,11.2513,11.2513,11.2513,11.2513,11.2513,11.2513,0.0,0.0,0.0,0.0,0.0,5.8618,0.0,0.0,0.0,0.0,0.0,0.0,0.0,0.0,0.0,0.0,0.0,0.0,0.0,0.0,0.0,0.0,0.0,0.0,0.0,10.4816,10.5922,10.7201,10.6561,10.6503,10.7259,10.7259,10.8423,11.0924,11.0982,11.2145,11.453,11.4763,11.4763,11.453,11.4763,11.4879,11.4879,11.4879,11.4298,11.3425,11.4414,11.3541,11.1331,11.1098,11.0284,10.9063,10.7783,10.7259,10.7259,10.7259,10.7259,10.7259,10.7259,10.7259,10.7259,10.7259,10.7259,10.7259,10.7259,10.7259,10.7259,10.7259,10.9305,11.1915,11.3796,11.6378,11.8886,12.0809,12.1258,12.1258,12.1258,12.1258,12.1258,12.1258,12.1258,12.1258,12.1258,12.1258,12.1258,12.1258,12.1258,12.1258,12.1258,12.2574,12.2902,12.1456,12.2574,12.2837,12.139,12.2902,12.3757,12.3494,12.3955,12.402,12.3494,11.922,11.5472,11.2578,11.2513,11.2513,11.2513,11.2513,11.2513,11.2513,11.2513,11.2513,0.0,0.0,0.0,5.7788,0.0,0.0,0.0,0.0,0.0,0.0,0.0,0.0,0.0,0.0,0.0,0.0,0.0,0.0,0.0,0.0,0.0,0.0,0.0,0.0,10.6271,10.691,10.7259,10.7259,10.7259,10.7259,10.7259,10.7899,10.9063,11.0924,11.1622,11.2902,11.4879,11.4879,11.4879,11.4879,11.4879,11.4879,11.4879,11.4879,11.453,11.3949,11.3949,11.2785,11.0924,11.0342,10.9353,10.819,10.755,10.7259,10.7259,10.7259,10.7259,10.7259,10.7259,10.7259,10.7259,10.7259,10.7259,10.7259,10.7259,10.7259,10.7259,10.7259,10.9814,11.2818,11.3972,11.6944,11.9888,12.1029,12.1258,12.1258,12.1258,12.1258,12.1258,12.1258,12.1258,12.1258,12.1258,12.1258,12.1258,12.1258,12.1258,12.1258,12.1258,12.2574,12.2902,12.1456,12.2574,12.2837,12.139,12.2639,12.3165,12.2376,12.3034,12.2837,12.139,11.8431,11.5801,11.3631,11.2907,11.2513,11.2513,11.2513,11.2513,11.2513,11.2513,11.2513,0.0,0.0,0.0,0.0,0.0,0.0,5.9497,6.055,6.3403,0.0,0.0,0.0,0.0,0.0,0.0,0.0,0.0,0.0,0.0,0.0,0.0,0.0,0.0,0.0,10.6794,10.7143,10.7259,10.7259,10.7259,10.7259,10.7259,10.8481,10.9761,11.0924,11.2262,11.36,11.4879,11.4879,11.4879,11.4879,11.4879,11.4879,11.4879,11.4879,11.4588,11.4065,11.3309,11.1971,11.0226,10.957,10.8423,10.7259,10.7259,10.7259,10.7259,10.7259,10.7259,10.7259,10.7259,10.7259,10.7259,10.7259,10.7259,10.7259,10.7259,10.7259,10.7259,10.7259,11.0377,11.3708,11.4147,11.7441,12.0732,12.1182,12.1258,12.1258,12.1258,12.1258,12.1258,12.1258,12.1522,12.1719,12.1719,12.1719,12.1719,12.1719,12.1719,12.1587,12.1324,12.2771,12.3231,12.1456,12.2574,12.2837,12.139,12.2376,12.2508,12.1324,12.2376,12.185,11.9286,11.7642,11.6129,11.4748,11.3302,11.2513,11.2513,11.2513,11.2513,11.2513,11.2513,11.2513,0.0,0.0,0.0,0.0,0.0,0.0,6.5109,6.9713,7.4751,0.0,0.0,0.0,0.0,0.0,0.0,0.0,0.0,0.0,0.0,0.0,0.0,0.0,0.0,0.0,10.5573,10.662,10.7259,10.7259,10.7259,10.7259,10.7259,10.8481,10.9761,11.0924,11.2262,11.36,11.4879,11.4879,11.4879,11.4879,11.4879,11.4879,11.4879,11.4879,11.36,11.1506,11.2494,11.0982,10.7783,10.8772,10.8423,10.7259,10.7259,10.7259,10.7259,10.7259,10.7259,10.7259,10.7259,10.7259,10.7259,10.7259,10.7259,10.7259,10.7259,10.7259,10.7259,10.7259,10.921,11.1642,11.3796,11.621,11.8725,12.0809,12.1258,12.1258,12.1258,12.1258,12.1258,12.1258,12.2311,12.3231,12.3231,12.3231,12.3231,12.3231,12.3231,12.2771,12.1456,12.3626,12.4283,12.1587,12.2574,12.2837,12.139,12.1456,12.1456,12.1258,12.1456,12.0798,11.922,11.7642,11.6129,11.4748,11.3302,11.2513,11.2513,11.2513,11.2513,11.2513,11.2513,11.2513,0.0,0.0,0.0,0.0,0.0,0.0,0.0,6.9907,0.0,0.0,0.0,0.0,0.0,0.0,0.0,0.0,0.0,0.0,0.0,0.0,0.0,0.0,0.0,0.0,0.0,10.6969,10.7259,10.7259,10.5863,10.5689,10.7201,10.9179,11.0459,11.0982,11.3018,11.4356,11.4879,11.4879,11.4879,11.4879,11.4879,11.4879,11.4879,11.4879,11.389,11.2145,11.1913,11.0517,10.8365,10.819,10.7783,10.7259,10.7259,10.7259,10.7259,10.7259,10.7259,10.7259,10.7259,10.7259,10.7259,10.7259,10.7259,10.7259,10.7259,10.7259,10.7259,10.7259,10.7982,10.9685,11.3353,11.711,12.0045,12.1105,12.1258,12.1258,12.1258,12.1258,12.1258,12.1258,12.2442,12.3494,12.3494,12.4152,12.4678,12.4678,12.402,12.3231,12.2639,12.2837,12.2574,12.139,12.185,12.1916,12.1324,12.1258,12.1258,12.1258,12.1258,12.0206,11.7905,11.7181,11.5735,11.3499,11.2841,11.2513,11.2513,11.2513,11.2513,11.2513,11.2513,11.2513,5.5666,0.0,0.0,0.0,0.0,0.0,0.0,0.0,0.0,0.0,0.0,0.0,0.0,0.0,0.0,0.0,0.0,0.0,0.0,0.0,0.0,0.0,0.0,0.0,0.0,0.0,0.0,0.0,10.5514,10.5282,10.7201,10.9004,11.0284,11.0982,11.3541,11.4879,11.4879,11.4879,11.4879,11.4879,11.4879,11.4879,11.4879,11.4879,11.4007,11.2378,11.1389,11.011,10.8597,10.7667,10.7259,10.7259,10.7259,10.7259,10.7259,10.7259,10.7259,10.7259,10.7259,10.7259,10.7259,10.7259,10.7259,10.7259,10.7259,10.7259,10.7259,10.7259,10.7788,10.921,11.3265,11.7769,12.1258,12.1258,12.1258,12.1258,12.1258,12.1258,12.1258,12.1258,12.2771,12.402,12.402,12.4875,12.5599,12.5599,12.4349,12.3297,12.2902,12.2639,12.2179,12.1324,12.1982,12.2113,12.1324,12.1653,12.1719,12.1324,12.093,11.9549,11.6918,11.6458,11.5077,11.2578,11.2513,11.2513,11.2513,11.2513,11.2513,11.2513,11.2513,11.2513,0.0,0.0,0.0,0.0,0.0,0.0,0.0,0.0,0.0,0.0,0.0,0.0,0.0,0.0,0.0,0.0,0.0,0.0,0.0,0.0,0.0,0.0,0.0,0.0,0.0,0.0,0.0,0.0,10.7201,10.7201,10.7259,10.7376,10.8481,11.0924,11.3541,11.4879,11.4879,11.4879,11.4879,11.4879,11.4879,11.4879,11.4879,11.4879,11.3483,11.104,11.0982,10.9586,10.7318,10.7318,10.7259,10.7259,10.7259,10.7259,10.7259,10.7259,10.7259,10.7259,10.7259,10.7259,10.7259,10.7259,10.7259,10.7259,10.7259,10.7259,10.7259,10.7259,10.8924,11.1183,11.3708,11.7769,12.1258,12.1258,12.1258,12.1258,12.1258,12.1258,12.1258,12.1258,12.356,12.5533,12.5533,12.5533,12.5599,12.5599,12.4349,12.2968,12.1522,12.3757,12.4415,12.1587,12.3757,12.4349,12.1522,12.2574,12.2771,12.139,12.0009,11.8497,11.6918,11.5537,11.4091,11.2578,11.2513,11.2513,11.2513,11.2513,11.2513,11.2513,11.2513,11.2513,6.0522,0.0,0.0,0.0,0.0,7.0652,0.0,0.0,0.0,0.0,0.0,0.0,0.0,0.0,0.0,0.0,0.0,0.0,0.0,0.0,0.0,0.0,0.0,0.0,0.0,0.0,0.0,0.0,0.0,0.0,10.7201,10.5631,10.662,11.0866,11.1855,11.3134,11.4879,11.4879,11.4879,11.4879,11.4879,11.4879,11.4879,11.4879,11.3483,11.0982,11.0982,10.9586,10.7259,10.7259,10.7259,10.7259,10.7259,10.7259,10.7259,10.7259,10.7259,10.7259,10.7259,10.7259,10.7259,10.7259,10.7259,10.7259,10.7259,10.7259,10.7259,10.7259,10.902,11.1367,11.3708,11.6693,11.9349,12.0952,12.1258,12.1258,12.1258,12.1258,12.1258,12.1258,12.3626,12.527,12.4349,12.573,12.6651,12.573,12.4349,12.3297,12.2771,12.356,12.3428,12.1456,12.3823,12.4809,12.2902,12.3165,12.3231,12.2771,12.0469,11.8431,11.6918,11.5472,11.4025,11.2578,11.2513,11.2513,11.2513,11.2513,11.2513,11.2513,11.2513,11.2513,0.0,0.0,0.0,7.5997,7.6136,7.6394,0.0,0.0,0.0,0.0,0.0,0.0,0.0,0.0,0.0,0.0,0.0,0.0,0.0,0.0,0.0,0.0,0.0,0.0,0.0,0.0,0.0,0.0,0.0,10.5514,10.7201,10.5689,10.6678,11.0866,11.0982,11.2262,11.4879,11.4879,11.4879,11.4879,11.4879,11.4879,11.4879,11.4879,11.3483,11.0982,11.0982,10.9819,10.7957,10.7492,10.7259,10.7259,10.7259,10.7259,10.7259,10.7259,10.7259,10.7259,10.7259,10.7259,10.7259,10.7259,10.7259,10.7259,10.7259,10.7259,10.7259,10.7259,10.953,11.2368,11.3884,11.6693,11.9428,12.0952,12.1258,12.1258,12.1258,12.1258,12.1258,12.1258,12.3231,12.4546,12.3626,12.5007,12.5862,12.4941,12.3626,12.2705,12.2705,12.356,12.3494,12.1522,12.4744,12.6125,12.3692,12.3955,12.4218,12.4218,12.1061,11.8694,11.7708,11.5735,11.4025,11.2578,11.2513,11.2513,11.2513,11.2513,11.2513,11.2513,11.3039,11.3039,0.0,6.9404,0.0,8.0522,8.1302,0.0,0.0,0.0,0.0,0.0,9.9756,10.1792,10.2955,0.0,0.0,0.0,0.0,0.0,0.0,0.0,0.0,0.0,0.0,0.0,0.0,0.0,0.0,0.0,10.7259,10.7259,10.7259,10.7259,10.8423,11.0924,11.0982,11.2262,11.4879,11.4879,11.4879,11.4879,11.4879,11.4879,11.4879,11.4879,11.3483,11.0982,11.0982,11.0284,10.9104,10.7783,10.7259,10.7259,10.7259,10.7259,10.7259,10.7259,10.7259,10.7259,10.7259,10.7259,10.7259,10.7259,10.7259,10.7259,10.7259,10.7259,10.7259,10.7259,11.0656,11.4322,11.4322,11.7769,12.1258,12.1258,12.1258,12.1258,12.1258,12.1258,12.1258,12.1258,12.2442,12.3428,12.3363,12.3428,12.3428,12.3363,12.2179,12.1324,12.139,12.3757,12.4415,12.1785,12.6453,12.8097,12.402,12.4941,12.5664,12.5599,12.1522,11.9154,11.9023,11.6195,11.3959,11.2578,11.2513,11.2513,11.2513,11.2578,11.2578,11.2578,11.4091,11.4025,0.0,0.0,7.6451,8.9007,8.8532,8.7028,0.0,0.0,9.4895,0.0,10.0338,10.1268,10.0628,9.9989,9.9581,0.0,0.0,0.0,0.0,0.0,0.0,0.0,0.0,0.0,0.0,0.0,10.7259,10.7259,10.7259,10.7259,10.7259,10.7259,10.8423,11.0924,11.0982,11.2262,11.4879,11.4879,11.4879,11.4879,11.4879,11.4879,11.4879,11.4879,11.3483,11.0982,11.0982,10.9761,10.7725,10.7434,10.7259,10.7259,10.7259,10.7259,10.7259,10.7259,10.7259,10.7259,10.7259,10.7259,10.7259,10.7259,10.7259,10.7259,10.7259,10.7259,10.7259,10.7259,11.0656,11.4322,11.4322,11.7769,12.1258,12.1258,12.1258,12.1258,12.1258,12.1258,12.1258,12.1258,12.2442,12.31,12.1982,12.2771,12.31,12.1982,12.1522,12.1653,12.2771,12.356,12.4152,12.4415,12.6716,12.7769,12.6716,12.6914,12.6716,12.5664,12.1522,11.8628,11.7444,11.4617,11.2907,11.2513,11.2513,11.2513,11.2513,11.3631,11.3631,11.2578,11.5143,11.5537,6.9489,7.5439,8.1835,0.0,9.1938,9.0687,9.7219,0.0,9.6587,9.9058,10.0105,10.0396,9.9698,9.9581,9.9581,9.9581,10.1094,10.2548,10.3304,10.4991,10.6503,10.7201,10.7259,10.7259,10.7259,10.7259,10.7259,10.7259,10.7259,10.7259,10.7259,10.7841,10.9004,11.0924,11.1564,11.2843,11.4879,11.4879,11.4879,11.4879,11.4879,11.4879,11.4879,11.4879,11.4065,11.2669,11.1506,11.0226,10.883,10.7725,10.7259,10.7259,10.7259,10.7259,10.7259,10.7259,10.7259,10.7259,10.7259,10.7259,10.7259,10.7259,10.7259,10.7259,10.7259,10.7259,10.7259,10.7259,11.0656,11.4322,11.4322,11.7769,12.1258,12.1258,12.1258,12.1258,12.1258,12.1258,12.1258,12.1258,12.1916,12.2245,12.139,12.1982,12.2245,12.139,12.1258,12.1587,12.2376,12.3034,12.3757,12.4546,12.6453,12.744,12.6782,12.6782,12.6125,12.4744,12.1193,11.8431,11.6918,11.4683,11.317,11.2513,11.317,11.3499,11.3499,11.4946,11.5209,11.4485,11.6787,11.705,0.0,0.0,8.6221,0.0,9.3299,9.3299,0.0,0.0,9.6587,0.0,9.9581,9.9581,9.9581,9.9581,9.9581,9.9581,10.1734,10.3362,10.3362,10.5631,10.7259,10.7259,10.7259,10.7259,10.7259,10.7259,10.7259,10.7259,10.7259,10.7376,10.755,10.8597,10.9819,11.1215,11.2378,11.36,11.4879,11.4879,11.4879,11.4879,11.4879,11.4879,11.4879,11.4879,11.4821,11.4472,11.2029,11.0866,11.0575,10.8248,10.7259,10.7259,10.7259,10.7259,10.7259,10.7259,10.7259,10.7259,10.7259,10.7259,10.7259,10.7259,10.7259,10.7259,10.7259,10.7259,10.7358,10.7749,11.0875,11.4409,11.467,11.8078,12.1258,12.1258,12.1258,12.1258,12.1258,12.1258,12.1258,12.1258,12.1258,12.1258,12.1258,12.1258,12.1258,12.1258,12.1258,12.1324,12.1522,12.2508,12.3428,12.3955,12.6059,12.6979,12.5927,12.6059,12.5401,12.356,12.1127,11.8825,11.6918,11.5472,11.4091,11.2841,11.4288,11.5011,11.5011,11.6458,11.705,11.6853,11.8628,11.8628,7.026,7.6595,8.3517,9.3103,9.5364,0.0,9.5917,9.6005,9.6587,9.9058,9.9581,9.9581,9.9581,9.9581,9.9581,9.9581,10.1734,10.3362,10.3362,10.5631,10.7259,10.7259,10.7259,10.7259,10.7259,10.7259,10.7259,10.7259,10.7259,10.7725,10.883,10.9162,11.0226,11.2553,11.2843,11.36,11.4879,11.4879,11.4879,11.4879,11.4879,11.4879,11.4879,11.4879,11.4298,11.3251,11.168,11.04,10.9412,10.7899,10.7259,10.7259,10.7259,10.7259,10.7259,10.7259,10.7259,10.7259,10.7259,10.7259,10.7259,10.7259,10.7259,10.7259,10.7259,10.7259,10.7749,10.9625,11.2188,11.4757,11.663,11.927,12.1258,12.1258,12.1258,12.1258,12.1258,12.1258,12.1258,12.1258,12.1258,12.1258,12.1258,12.1258,12.1258,12.1258,12.1258,12.1719,12.2902,12.2245,12.3034,12.6585,12.6322,12.6322,12.7242,12.8426,12.7506,12.3692,12.2968,12.093,11.6984,11.5472,11.4617,11.4354,11.5735,11.6458,11.6458,11.8036,11.8102,11.6918,11.9615,12.0141,6.9623,7.4602,7.9666,8.6585,0.0,9.2511,9.5248,9.583,9.6762,9.9872,9.9,9.8011,9.9291,9.9581,9.9581,9.9581,10.1734,10.3362,10.3362,10.5631,10.7259,10.7259,10.7259,10.7259,10.7259,10.7259,10.7259,10.7259,10.7259,10.7841,10.9221,10.9761,11.0982,11.2902,11.3658,11.4298,11.4879,11.4879,11.4879,11.4879,11.4879,11.4879,11.4879,11.4879,11.453,11.389,11.1855,11.0633,10.9993,10.8074,10.7259,10.7259,10.7259,10.7259,10.7259,10.7259,10.7259,10.7259,10.7259,10.7259,10.7259,10.7259,10.7259,10.7259,10.7259,10.8176,10.94,11.0503,11.3292,11.6378,11.7523,11.9508,12.1258,12.1258,12.1258,12.1258,12.1258,12.1258,12.1258,12.1258,12.1258,12.1258,12.1258,12.1258,12.1258,12.1258,12.1258,12.1522,12.2245,12.1719,12.2376,12.5204,12.5533,12.5862,12.6519,12.7242,12.6125,12.2574,12.1653,11.9549,11.5866,11.659,11.6655,11.5801,11.7247,11.8036,11.8036,11.9549,11.9878,11.9154,12.0601,12.093,6.8879,7.2991,7.6825,8.2335,8.5456,8.8646,9.42,9.5248,9.6091,10.0221,9.8651,9.7197,9.9174,9.9581,9.9581,9.9581,10.1734,10.3362,10.3362,10.5631,10.7259,10.7259,10.7259,10.7259,10.7259,10.7259,10.7259,10.7259,10.7259,10.7957,10.947,11.0459,11.1738,11.3367,11.4356,11.4879,11.4879,11.4879,11.4879,11.4879,11.4879,11.4879,11.4879,11.4879,11.4879,11.4763,11.2087,11.0982,11.0808,10.8306,10.7259,10.7259,10.7259,10.7259,10.7259,10.7259,10.7259,10.7259,10.7259,10.7259,10.7259,10.7259,10.7259,10.7259,10.7259,10.86,11.0223,11.1275,11.4173,11.7276,11.8322,11.9888,12.1258,12.1258,12.1258,12.1258,12.1258,12.1258,12.1258,12.1258,12.1258,12.1258,12.1258,12.1258,12.1258,12.1258,12.1258,12.1258,12.1258,12.1258,12.185,12.3297,12.4481,12.5138,12.5138,12.5401,12.4349,12.1456,12.0535,11.876,11.5801,11.8234,11.8891,11.7379,11.8825,11.9615,11.9615,12.0732,12.1258,12.1258,12.1258,12.1258,7.0571,7.3526,7.7096,8.8189,8.7729,0.0,9.2601,9.3125,9.3707,9.8709,0.0,9.9291,9.9523,9.9581,9.9581,9.9581,10.1734,10.3362,10.3362,10.5631,10.7259,10.7259,10.7259,10.7259,10.7259,10.7259,10.7259,10.7259,10.7259,10.8306,11.0691,11.0924,11.2145,11.4647,11.4821,11.4879,11.4879,11.4879,11.4879,11.4879,11.4879,11.4879,11.4879,11.4879,11.4879,11.4763,11.2087,11.0982,11.0808,10.8306,10.7259,10.7259,10.7259,10.7259,10.7259,10.7259,10.7259,10.7259,10.7259,10.7259,10.7259,10.7259,10.7259,10.7259,10.7259,10.7456,10.8504,11.2729,11.4322,11.5617,11.9888,12.1105,12.1258,12.1258,12.1258,12.1258,12.1258,12.1258,12.1258,12.1258,12.1258,12.1258,12.1258,12.1258,12.1258,12.1258,12.1258,12.1258,12.1258,12.1258,12.185,12.3297,12.356,12.3626,12.3626,12.4809,12.4349,12.1456,12.2442,12.1785,11.8891,12.0272,12.0404,11.8957,12.0338,12.1061,12.1061,12.1193,12.1258,12.1258,12.1258,12.1258,6.3077,6.7514,7.2377,7.9313,8.2066,8.4167,8.8297,0.0,0.0,0.0,9.7197,9.6091,9.6091,9.8011,0.0,9.8444,10.057,10.249,10.3246,10.4991,10.6445,10.7201,10.7259,10.7259,10.7259,10.7259,10.7259,10.7259,10.8016,10.9179,11.0866,11.1738,11.3018,11.4821,11.4879,11.4879,11.4879,11.4879,11.4879,11.4879,11.4879,11.4879,11.4879,11.4879,11.4879,11.4821,11.3774,11.2436,11.0808,10.8306,10.7259,10.7259,10.7259,10.7259,10.7259,10.7259,10.7259,10.7259,10.7259,10.7259,10.7259,10.7259,10.7259,10.7259,10.7259,10.9305,11.1976,11.3796,11.6294,11.895,12.0809,12.1258,12.1258,12.1258,12.1258,12.1258,12.1258,12.1258,12.1258,12.1258,12.1258,12.1258,12.1258,12.1258,12.1258,12.1258,12.1258,12.1258,12.1258,12.1258,12.1522,12.2113,12.2902,12.3494,12.3494,12.3955,12.3823,12.2639,12.2311,12.1653,12.0469,12.0995,12.0995,12.0469,12.0995,12.1258,12.1258,12.1258,12.1258,12.1258,12.1258,12.1258,5.8585,6.3351,6.8751,7.3035,7.6851,0.0,0.0,8.7017,0.0,0.0,9.5684,9.4986,9.4986,0.0,0.0,9.7631,9.9465,10.1501,10.313,10.4526,10.5863,10.7143,10.7259,10.7259,10.7259,10.7259,10.7259,10.7259,10.8481,10.9702,11.0924,11.2262,11.36,11.4821,11.4879,11.4879,11.4879,11.4879,11.4879,11.4879,11.4879,11.4879,11.4879,11.4879,11.4879,11.4879,11.4879,11.3425,11.0866,10.9121,10.7957,10.7259,10.7259,10.7259,10.7259,10.7259,10.7259,10.7259,10.7259,10.7259,10.7259,10.7259,10.7259,10.7259,10.7259,11.0096,11.3442,11.4147,11.7193,12.0422,12.1105,12.1258,12.1258,12.1258,12.1258,12.1258,12.1258,12.1258,12.1258,12.1258,12.1258,12.1258,12.1258,12.1258,12.1258,12.1258,12.1258,12.1258,12.1258,12.1258,12.1258,12.1258,12.2179,12.2837,12.2837,12.2837,12.2837,12.2837,12.185,12.1258,12.1258,12.1258,12.1258,12.1258,12.1258,12.1258,12.1258,12.1258,12.1258,12.1258,12.1258,12.1258,5.967,6.3034,6.7334,7.3165,7.3697,7.5151,8.4109,8.4284,8.4691,9.2311,9.5859,9.7514,9.7514,9.6615,0.0,9.734,9.8619,10.0454,10.3013,10.4526,10.5863,10.7143,10.7259,10.7259,10.7259,10.7259,10.7259,10.7259,10.8481,10.9702,11.0924,11.2262,11.36,11.4821,11.4879,11.4879,11.4879,11.4879,11.4879,11.4879,11.4879,11.4879,11.4879,11.4879,11.4879,11.4879,11.4879,11.3425,11.0982,11.0982,10.9528,10.7259,10.7259,10.7259,10.7259,10.7259,10.7259,10.7259,10.7259,10.7259,10.7259,10.7259,10.7259,10.7259,10.7259,10.8924,11.1275,11.3619,11.5957,11.8403,12.0655,12.1258,12.1258,12.1258,12.1258,12.1258,12.1258,12.1258,12.1258,12.1258,12.1258,12.1258,12.1258,12.1258,12.1258,12.1258,12.1258,12.1258,12.1258,12.1258,12.1258,12.1258,12.1258,12.1324,12.1324,12.1324,12.1324,12.1324,12.1258,12.1258,12.1258,12.1258,12.1258,12.1258,12.1258,12.1258,12.1258,12.1258,12.1258,12.1258,12.1258,12.1258,5.7441,6.2052,6.8171,7.4433,7.4337,7.5093,8.4109,8.4865,8.5156,9.0217,9.0449,9.0042,9.0915,0.0,0.0,0.0,9.8619,10.0454,10.3013,10.3711,10.4816,10.7027,10.7259,10.7259,10.7259,10.7259,10.7259,10.7259,10.9237,11.0575,11.0982,11.3076,11.4472,11.4879,11.4879,11.4879,11.4879,11.4879,11.4879,11.4879,11.4879,11.4879,11.4879,11.4879,11.4879,11.4879,11.4879,11.3425,11.0982,11.0982,10.9528,10.7259,10.7259,10.7259,10.7259,10.7259,10.7259,10.7259,10.7259,10.7259,10.7259,10.7259,10.7259,10.7259,10.7259,11.0096,11.3353,11.406,11.711,12.0422,12.1105,12.1258,12.1258,12.1258,12.1258,12.1258,12.1258,12.1258,12.1258,12.1258,12.1258,12.1258,12.1258,12.1258,12.1258,12.1258,12.1258,12.1258,12.1258,12.1258,12.1258,12.1258,12.1258,12.1258,12.1258,12.1258,12.1258,12.1258,12.1258,12.1258,12.1258,12.1258,12.1258,12.1258,12.1258,12.1258,12.1258,12.1258,12.1258,12.1258,12.1258,12.1258,5.7714,6.2414,6.8408,7.3755,7.3232,7.3814,8.3237,8.2597,8.1608,8.7366,8.6901,0.0,0.0,0.0,9.5044,9.7224,9.8212,9.9756,10.2315,10.3071,10.4177,10.6329,10.6969,10.7259,10.7259,10.7259,10.7259,10.7259,10.9586,11.0982,11.0982,11.3483,11.4879,11.4879,11.4879,11.4879,11.4879,11.4879,11.4879,11.4879,11.4879,11.4879,11.4879,11.4879,11.4879,11.4879,11.4879,11.3425,11.0982,11.0982,10.9528,10.7259,10.7259,10.7259,10.7259,10.7259,10.7259,10.7259,10.7259,10.7259,10.7259,10.7259,10.7259,10.7259,10.7259,11.0563,11.4322,11.4322,11.7687,12.1258,12.1258,12.1258,12.1258,12.1258,12.1258,12.1258,12.1258,12.1258,12.1258,12.1258,12.1258,12.1258,12.1258,12.1258,12.1258,12.1258,12.1258,12.1258,12.1258,12.1258,12.1258,12.1258,12.1258,12.1258,12.1258,12.1258,12.1258,12.1258,12.1258,12.1258,12.1258,12.1258,12.1258,12.1258,12.1258,12.1258,12.1258,12.1258,12.1258,12.1258,12.1258,12.1258,5.9935,6.3714,6.7943,7.1952,7.1196,7.201,8.1882,7.8337,7.5442,8.4109,0.0,0.0,0.0,9.0507,9.2718,9.6643,9.7514,9.856,10.1094,0.0,10.3711,10.5049,10.6271,10.7027,10.7027,10.7143,10.7259,10.7259,10.9586,11.0982,11.0982,11.3483,11.4879,11.4879,11.4879,11.4879,11.4879,11.4879,11.4821,11.4588,11.4821,11.4821,11.4588,11.4821,11.4879,11.4879,11.4588,11.3134,11.0982,11.0691,10.9295,10.7259,10.7259,10.7259,10.7259,10.7259,10.7259,10.7259,10.7259,10.7259,10.7259,10.7259,10.7358,10.7553,10.7553,11.0782,11.4584,11.4584,11.7769,12.1258,12.1258,12.1258,12.1258,12.1258,12.1258,12.1258,12.1258,12.1258,12.1258,12.1258,12.1258,12.1258,12.1258,12.1258,12.1258,12.1258,12.1258,12.1258,12.1258,12.1258,12.1258,12.1258,12.1258,12.1258,12.1258,12.1258,12.1258,12.1258,12.1258,12.1258,12.1258,12.1258,12.1258,12.1258,12.1258,12.1258,12.1258,12.1258,12.1258,12.1258,12.1258,12.1258,6.0237,6.3086,6.7183,7.3988,7.4512,7.521,8.2463,7.9732,7.7129,0.0,0.0,0.0,0.0,8.5214,0.0,9.3765,9.7197,9.964,10.1268,10.1734,10.2373,10.3711,10.4118,10.4293,10.4293,10.6096,10.7259,10.7259,10.9586,11.0982,11.0982,11.3483,11.4879,11.4879,11.4879,11.4879,11.4879,11.4879,11.389,11.1913,11.3949,11.3832,11.1971,11.3949,11.4879,11.4705,11.1796,11.0691,11.0749,10.7899,10.691,10.7259,10.7259,10.7259,10.7259,10.7259,10.7259,10.7259,10.7259,10.7259,10.7259,10.7259,10.8504,11.0002,11.0002,11.3203,11.7027,11.7027,11.911,12.1258,12.1258,12.1258,12.1258,12.1258,12.1258,12.1258,12.1258,12.1258,12.1258,12.1258,12.1258,12.1258,12.1258,12.1258,12.1258,12.1258,12.1258,12.1258,12.1258,12.1258,12.1258,12.1258,12.1258,12.1258,12.1258,12.1258,12.1258,12.1258,12.1258,12.1258,12.1258,12.1258,12.1258,12.1258,12.1258,12.1258,12.1258,12.1258,12.1258,12.1258,12.1258,12.1258,6.2158,6.4316,6.7415,7.3348,7.3406,7.3232,7.7885,7.5838,0.0,0.0,0.0,0.0,0.0,0.0,8.6959,8.9868,0.0,9.6499,9.7778,9.9989,10.1268,0.0,0.0,10.47,10.3479,10.5747,10.7259,10.7259,10.9586,11.0982,11.0982,11.3483,11.4879,11.4879,11.4879,11.4879,11.4879,11.4879,11.36,11.104,11.3658,11.3541,11.1098,11.3716,11.4879,11.4763,11.2727,11.1855,11.168,10.9063,10.8016,10.8074,10.7492,10.7259,10.7259,10.7259,10.7259,10.7259,10.7259,10.7982,10.8924,10.8924,11.0503,11.2368,11.2368,11.493,11.7769,11.7769,11.9508,12.1258,12.1258,12.1258,12.1258,12.1258,12.1258,12.1258,12.1258,12.1258,12.1258,12.1258,12.1258,12.1258,12.1258,12.1258,12.1258,12.1258,12.1258,12.1258,12.1258,12.1258,12.1258,12.1258,12.1258,12.1258,12.1258,12.1258,12.1258,12.1258,12.1258,12.1258,12.1258,12.1258,12.1258,12.1258,12.1258,12.1258,12.1258,12.1258,12.1258,12.1258,12.1258,12.1258,6.4614,6.6254,6.8001,7.1778,7.0847,6.9684,7.2185,0.0,0.0,0.0,0.0,0.0,0.0,8.5272,8.661,0.0,8.8821,9.2078,0.0,0.0,10.0163,9.8095,0.0,10.5398,10.3537,10.5747,10.7376,10.755,10.9702,11.104,11.1273,11.36,11.4879,11.4879,11.4879,11.4879,11.4879,11.4879,11.36,11.104,11.3658,11.3541,11.1098,11.3716,11.4879,11.4879,11.4239,11.3541,11.2553,11.0808,10.9644,10.8772,10.7725,10.7259,10.7259,10.7259,10.7259,10.7259,10.7259,10.8828,11.0875,11.1244,11.2908,11.4844,11.4844,11.6462,11.8322,11.8322,11.9809,12.1258,12.1258,12.1258,12.1258,12.1258,12.1258,12.1258,12.1258,12.1258,12.1258,12.1258,12.1258,12.1258,12.1258,12.1258,12.1258,12.1258,12.1258,12.1258,12.1258,12.1258,12.1258,12.1258,12.1258,12.1258,12.1258,12.1258,12.1258,12.1258,12.1258,12.1258,12.1258,12.1258,12.1258,12.1258,12.1258,12.1258,12.1258,12.1258,12.1258,12.1258,12.1258,12.1258,6.6368,6.6953,6.8001,7.1778,7.0847,6.9684,7.2185,0.0,0.0,0.0,7.4919,0.0,0.0,8.0619,8.1899,8.2847,8.6145,9.0624,9.6178,9.7631,9.8386,9.9174,10.0163,0.0,10.3188,10.5747,10.7725,10.883,11.0168,11.1506,11.2611,11.4065,11.4879,11.4879,11.4879,11.4879,11.4879,11.4879,11.36,11.104,11.3658,11.3541,11.1098,11.3716,11.4879,11.4705,11.1447,11.0517,11.104,10.7608,10.6736,10.755,10.7376,10.7259,10.7259,10.7259,10.7259,10.7259,10.7259,10.8828,11.1152,11.3086,11.536,11.7276,11.7276,11.895,12.0732,12.0732,12.1029,12.1258,12.1258,12.1258,12.1258,12.1258,12.1258,12.1258,12.1258,12.1258,12.1258,12.1258,12.1258,12.1258,12.1258,12.1258,12.1258,12.1258,12.1258,12.1258,12.1258,12.1258,12.1258,12.1258,12.1258,12.1258,12.1258,12.1258,12.1258,12.1258,12.1258,12.1258,12.1258,12.1258,12.1258,12.1258,12.1258,12.1258,12.1258,12.1258,12.1258,12.1258,12.1258,12.1258,6.6895,6.7532,6.852,7.0265,6.9858,6.9335,7.044,7.0382,7.0905,7.3988,7.521,7.6489,7.9107,8.0037,8.1317,8.3993,8.6436,8.9809,9.487,0.0,9.9407,9.856,10.1617,10.3653,0.0,10.5747,10.755,10.8132,10.9877,11.1273,11.1855,11.3774,11.4879,11.4879,11.4879,11.4879,11.4879,11.4879,11.36,11.104,11.3658,11.2843,10.9121,11.3076,11.4123,11.2785,11.2436,11.2204,11.1855,10.9412,10.8365,10.8248,10.755,10.7259,10.7259,10.7259,10.8079,10.921,10.921,11.0689,11.3086,11.5446,11.7769,11.9666,11.9666,12.05,12.1258,12.1258,12.1258,12.1258,12.1258,12.1258,12.1258,12.1258,12.1258,12.1258,12.1258,12.1258,12.1258,12.1258,12.1258,12.1258,12.1258,12.1258,12.1258,12.1258,12.1258,12.1258,12.1258,12.1258,12.1258,12.1258,12.1258,12.1258,12.1258,12.1258,12.1258,12.1258,12.1258,12.1258,12.1258,12.1258,12.1258,12.1258,12.1258,12.1258,12.1258,12.1258,12.1258,12.1258,12.1258,12.1799,6.8928,0.0,7.1254,7.1254,7.0556,6.9916,0.0,7.0207,7.1196,7.3639,7.521,7.6838,7.9107,7.9805,8.1026,8.4284,8.661,8.917,9.2485,9.708,0.0,9.8154,10.3013,10.5805,10.4409,10.6096,10.7434,10.7725,10.9761,11.1098,11.1447,11.3658,11.4879,11.4879,11.4879,11.4879,11.4879,11.4879,11.389,11.1913,11.3949,11.2553,10.8306,11.2843,11.3483,11.1098,11.3774,11.4181,11.2902,11.1564,11.0284,10.9063,10.7783,10.7259,10.7259,10.7259,10.8792,11.0782,11.0782,11.2729,11.5446,11.7193,11.9349,12.1258,12.1258,12.1258,12.1258,12.1258,12.1258,12.1258,12.1258,12.1258,12.1258,12.1258,12.1258,12.1258,12.1258,12.1258,12.1258,12.1258,12.1258,12.1258,12.1258,12.1258,12.1258,12.1258,12.1258,12.1258,12.1258,12.1258,12.1258,12.1258,12.1258,12.1258,12.1258,12.1258,12.1258,12.1258,12.1258,12.1258,12.1258,12.1258,12.1258,12.1258,12.1258,12.1258,12.1258,12.1258,12.1258,12.1258,12.1723,12.2557,0.0,7.6896,7.7827,7.7827,7.5151,7.2476,7.2476,7.0731,0.0,7.2359,7.3872,7.521,7.6664,7.7885,7.9165,8.0619,8.4865,8.8588,0.0,9.3707,0.0,0.0,10.1908,0.0,10.6794,10.7143,10.7783,10.8946,11.0226,11.1506,11.2785,11.4123,11.4879,11.4879,11.4879,11.4879,11.4879,11.4879,11.4821,11.4588,11.4821,11.3425,11.0808,11.36,11.3483,11.1098,11.3774,11.4181,11.2902,11.1564,11.0284,10.9063,10.7783,10.7259,10.7259,10.7259,10.8792,11.0782,11.0782,11.3734,11.7605,11.7687,11.9349,12.1258,12.1258,12.1258,12.1258,12.1258,12.1258,12.1258,12.1258,12.1258,12.1258,12.1258,12.1258,12.1258,12.1258,12.1258,12.1258,12.1258,12.1258,12.1258,12.1258,12.1258,12.1258,12.1258,12.1258,12.1258,12.1258,12.1258,12.1258,12.1258,12.1258,12.1258,12.1258,12.1258,12.1258,12.1258,12.1258,12.1258,12.1258,12.1258,12.1258,12.1258,12.1258,12.1258,12.1258,12.1258,12.1258,12.1335,12.2855,12.3719,7.4861,7.6896,7.8525,7.8525,7.6838,7.4744,7.3057,7.2592,7.2534,7.2708,7.3755,7.5035,7.6373,7.7013,7.8816,8.3237,8.5621,8.8704,0.0,0.0,0.0,10.1617,0.0,0.0,0.0,10.5805,10.5747,10.7841,10.8423,10.9586,11.1622,11.3716,11.4879,11.4879,11.4879,11.4879,11.4879,11.4879,11.4879,11.4879,11.4879,11.3541,11.1098,11.3716,11.3483,11.1098,11.3774,11.2785,0.0,11.0575,10.883,10.5689,10.6852,10.7259,10.7456,10.8924,11.0967,11.3176,11.4608,11.7276,11.9967,11.9967,12.0577,12.1258,12.1258,12.1258,12.1258,12.1258,12.1258,12.1258,12.1258,12.1258,12.1258,12.1258,12.1258,12.1258,12.1258,12.1258,12.1258,12.1258,12.1258,12.1258,12.1258,12.1258,12.1258,12.1258,12.1258,12.1258,12.1258,12.1258,12.1258,12.1258,12.1258,12.1258,12.1258,12.1258,12.1258,12.1258,12.1258,12.1258,12.1258,12.1258,12.1258,12.1258,12.1258,12.1258,12.1258,12.1258,12.1874,12.2922,12.3507,12.5034,7.8467,8.0154,8.155,8.155,7.9688,7.7129,7.457,0.0,7.3755,7.2883,7.3406,7.457,7.6315,7.6535,7.8467,8.4051,8.5621,0.0,0.0,0.0,0.0,10.2432,10.4351,10.5922,0.0,0.0,10.5514,10.7725,10.8248,10.9353,11.1506,11.3716,11.4879,11.4879,11.4879,11.4879,11.4879,11.4879,11.4879,11.4879,11.4879,11.3541,11.1098,11.3716,11.3483,11.1098,11.3774,11.2204,10.8074,11.011,10.8248,10.4235,10.6445,10.769,10.86,11.0283,11.2818,11.5617,11.7276,11.9349,12.1258,12.1258,12.1258,12.1258,12.1258,12.1258,12.1258,12.1258,12.1258,12.1258,12.1258,12.1258,12.1258,12.1258,12.1258,12.1258,12.1258,12.1258,12.1258,12.1258,12.1258,12.1258,12.1258,12.1258,12.1258,12.1258,12.1258,12.1258,12.1258,12.1258,12.1258,12.1258,12.1258,12.1258,12.1258,12.1258,12.1258,12.1258,12.1258,12.1258,12.1258,12.1258,12.1258,12.1258,12.1258,12.1258,12.1258,12.1258,12.2181,12.386,12.386,12.5703,8.661,8.8006,8.8064,8.8064,8.4225,7.9805,0.0,0.0,7.2767,7.2708,7.2708,7.3523,7.607,7.6535,7.7885,8.1799,0.0,0.0,9.1438,9.4172,0.0,0.0,0.0,10.3013,10.6852,10.7259,10.7783,10.9162,11.0284,11.1564,11.2902,11.4181,11.4879,11.4879,11.4879,11.4879,11.4879,11.4879,11.4879,11.4879,11.4879,11.3541,11.1098,11.3716,11.3483,11.1157,11.3774,11.2669,10.9337,11.0459,10.8714,10.5456,10.6794,10.8792,11.0875,11.0875,11.3822,11.7769,11.7769,11.9349,12.1258,12.1258,12.1258,12.1258,12.1258,12.1258,12.1258,12.1258,12.1258,12.1258,12.1258,12.1258,12.1258,12.1258,12.1258,12.1258,12.1258,12.1258,12.1258,12.1258,12.1258,12.1258,12.1258,12.1258,12.1258,12.1258,12.1258,12.1258,12.1258,12.1258,12.1258,12.1258,12.1258,12.1258,12.1258,12.1258,12.1258,12.1258,12.1258,12.1258,12.1258,12.1258,12.1258,12.1258,12.1258,12.1258,12.1258,12.1335,12.2181,12.386,12.386,12.5769,8.3004,8.5331,8.8064,8.8064,8.5563,8.1882,0.0,0.0,7.4919,7.3116,7.2708,7.3523,7.607,7.6535,7.7885,0.0,0.0,8.6785,9.2485,9.551,0.0,0.0,0.0,10.4293,0.0,10.4526,10.5049,10.6387,10.7667,10.9761,11.2843,11.4181,11.4879,11.4879,11.4879,11.4879,11.4879,11.4879,11.4879,11.4879,11.4879,11.4472,11.3774,11.453,11.4472,11.3774,11.453,11.1157,10.5398,10.9353,10.8097,10.4173,10.8202,11.1244,11.3442,11.5103,11.663,11.8014,11.9666,12.0732,12.1258,12.1258,12.1258,12.1258,12.1258,12.1258,12.1258,12.1258,12.1258,12.1258,12.1258,12.1258,12.1258,12.1258,12.1258,12.1258,12.1258,12.1258,12.1258,12.1258,12.1258,12.1258,12.1258,12.1258,12.1258,12.1258,12.1258,12.1258,12.1258,12.1258,12.1258,12.1258,12.1258,12.1258,12.1258,12.1258,12.1258,12.1258,12.1258,12.1258,12.1258,12.1258,12.1258,12.1258,12.1258,12.1258,12.1258,12.2484,12.336,12.386,12.6421,12.8117,8.4574,8.6087,8.7948,8.7425,8.5659,8.3102,7.9049,0.0,7.6129,7.457,7.3465,7.3814,7.7478,7.8176,7.9572,0.0,0.0,0.0,9.3067,0.0,0.0,0.0,10.2897,0.0,0.0,0.0,10.4118,10.598,10.7783,10.9993,11.2843,11.4181,11.4879,11.4879,11.4879,11.4879,11.4879,11.4879,11.4879,11.4879,11.4879,11.4879,11.4879,11.4879,11.5449,11.6264,11.5345,11.194,10.7433,11.0997,10.9614,10.5805,11.0364,11.3557,11.5872,11.7276,11.8403,11.9349,12.0809,12.1258,12.1258,12.1258,12.1258,12.1258,12.1258,12.1258,12.1258,12.1258,12.1258,12.1258,12.1258,12.1258,12.1258,12.1258,12.1258,12.1258,12.1258,12.1258,12.1258,12.1258,12.1258,12.1258,12.1258,12.1258,12.1258,12.1258,12.1258,12.1258,12.1258,12.1258,12.1258,12.1258,12.1258,12.1258,12.1258,12.1258,12.1258,12.1258,12.1258,12.1258,12.1258,12.1258,12.1258,12.1258,12.1258,12.1573,12.2329,12.336,12.4557,12.5966,12.8117,12.9426,8.8855,8.8704,8.7599,8.6436,8.5136,8.3451,8.0735,0.0,0.0,7.6245,7.4453,7.4337,7.9223,8.0285,0.0,0.0,0.0,8.9577,0.0,0.0,0.0,0.0,0.0,0.0,10.6445,10.4758,10.4351,10.6736,10.9121,11.1157,11.2727,11.4123,11.4879,11.4879,11.4879,11.4879,11.4879,11.4879,11.4879,11.4879,11.4879,11.4879,11.4879,11.5089,11.647,11.8454,11.647,11.4686,11.3301,11.4562,11.2784,10.9909,11.345,11.6168,11.816,11.816,11.9428,12.1258,12.1258,12.1258,12.1258,12.1258,12.1258,12.1258,12.1258,12.1258,12.1258,12.1258,12.1258,12.1258,12.1258,12.1258,12.1258,12.1258,12.1258,12.1258,12.1258,12.1258,12.1258,12.1258,12.1258,12.1258,12.1258,12.1258,12.1258,12.1258,12.1258,12.1258,12.1258,12.1258,12.1258,12.1258,12.1258,12.1258,12.1258,12.1258,12.1258,12.1258,12.1258,12.1258,12.1258,12.1258,12.1258,12.1258,12.1487,12.2329,12.386,12.421,12.5898,12.9078,12.9253,13.0118,8.6066,8.595,8.6494,8.6203,8.5136,8.2986,7.8467,7.7769,0.0,0.0,7.393,7.4861,7.7071,0.0,8.0619,0.0,8.8297,9.0973,0.0,0.0,0.0,0.0,0.0,0.0,10.4002,10.3711,0.0,10.4177,10.5689,10.8016,11.1215,11.36,11.4879,11.4879,11.4879,11.4879,11.4879,11.4879,11.4879,11.4879,11.4879,11.4879,11.4984,11.6922,11.8115,11.8652,12.0184,11.8902,11.5991,11.8286,11.7379,11.479,11.76,11.945,12.0577,12.0577,12.0809,12.1258,12.1258,12.1258,12.1258,12.1258,12.1258,12.1258,12.1258,12.1258,12.1258,12.1258,12.1258,12.1258,12.1258,12.1258,12.1258,12.1258,12.1258,12.1258,12.1258,12.1258,12.1258,12.1258,12.1258,12.1258,12.1258,12.1258,12.1258,12.1258,12.1258,12.1258,12.1258,12.1258,12.1258,12.1258,12.1258,12.1258,12.1258,12.1258,12.1258,12.1258,12.1258,12.1258,12.1258,12.1258,12.1258,12.1258,12.263,12.3435,12.386,12.6614,12.8358,12.9137,13.0466,13.1239,8.4516,8.4691,8.597,8.5311,8.4671,8.3451,8.0836,0.0,0.0,0.0,0.0,7.6896,7.8234,0.0,0.0,8.7192,8.9693,0.0,0.0,0.0,0.0,0.0,10.0163,10.1559,0.0,10.3769,10.3886,10.5165,10.5922,10.7667,11.0808,11.2262,11.36,11.4821,11.4879,11.4879,11.4879,11.4879,11.4879,11.4879,11.4879,11.4879,11.4984,11.7471,11.9244,12.0509,12.1845,12.1962,12.1205,12.1218,12.0269,11.8977,12.0146,12.0854,12.1258,12.1258,12.1258,12.1258,12.1258,12.1258,12.1258,12.1258,12.1258,12.1258,12.1258,12.1258,12.1258,12.1258,12.1258,12.1258,12.1258,12.1258,12.1258,12.1258,12.1258,12.1258,12.1258,12.1258,12.1258,12.1258,12.1258,12.1258,12.1258,12.1258,12.1258,12.1258,12.1258,12.1258,12.1258,12.1258,12.1258,12.1258,12.1258,12.1258,12.1258,12.1258,12.1258,12.1258,12.1258,12.1258,12.1258,12.1258,12.1648,12.2484,12.3431,12.4626,12.6357,12.8177,12.9483,13.0285,13.1186,13.1573,8.4128,8.4342,8.5563,8.4439,8.4148,8.4032,8.3625,8.2946,0.0,0.0,0.0,7.9514,8.0561,8.1915,8.4342,8.9519,9.1438,9.2892,9.4637,9.6673,9.7921,0.0,9.8851,10.1094,10.4991,10.4351,0.0,0.0,10.6852,10.7667,11.0226,11.0342,11.1738,11.4821,11.4879,11.4879,11.4879,11.4879,11.4879,11.4879,11.4879,11.4879,11.4984,11.7975,11.9853,12.0947,12.2901,12.4103,12.473,12.3446,12.263,12.2154,12.1808,12.1522,12.1258,12.1258,12.1258,12.1258,12.1258,12.1258,12.1258,12.1258,12.1258,12.1258,12.1258,12.1258,12.1258,12.1258,12.1258,12.1258,12.1258,12.1258,12.1258,12.1258,12.1258,12.1258,12.1258,12.1258,12.1258,12.1258,12.1258,12.1258,12.1258,12.1258,12.1258,12.1258,12.1258,12.1258,12.1258,12.1258,12.1258,12.1258,12.1258,12.1258,12.1258,12.1258,12.1258,12.1258,12.1258,12.1258,12.1258,12.1639,12.2336,12.379,12.4419,12.6162,12.9078,12.9368,13.023,13.1573,13.1573,13.1573,8.5214,8.5098,8.4381,8.4206,8.4148,8.3567,8.1433,8.1741,8.2032,8.0751,0.0,8.1974,8.2148,8.312,8.568,9.0856,0.0,9.4812,9.8302,9.9116,9.9291,9.9291,9.9465,10.1094,10.4991,10.5224,10.5689,10.7143,10.5165,10.5049,10.7608,10.7783,10.9935,11.4705,11.4879,11.4879,11.4879,11.4879,11.4879,11.4879,11.4879,11.4879,11.5089,11.9794,11.9145,11.4712,12.4557,12.5155,11.969,12.4818,12.5529,12.3156,12.3141,12.2376,12.1258,12.1258,12.1258,12.1258,12.1258,12.1258,12.1258,12.1258,12.1258,12.1258,12.1258,12.1258,12.1258,12.1258,12.1258,12.1258,12.1258,12.1258,12.1258,12.1258,12.1258,12.1258,12.1258,12.1258,12.1258,12.1258,12.1258,12.1258,12.1258,12.1258,12.1258,12.1258,12.1258,12.1258,12.1258,12.1258,12.1258,12.1258,12.1258,12.1258,12.1258,12.1258,12.1258,12.1258,12.1258,12.1258,12.1258,12.2704,12.3578,12.386,12.6806,12.8596,12.9078,13.0576,13.1416,13.1573,13.1573,13.1573,8.1084,8.2405,8.4148,8.4148,8.4148,8.3858,8.2829,8.3527,8.3935,8.1974,8.3138,0.0,8.2672,8.3353,0.0,0.0,0.0,0.0,9.6789,9.6208,9.6091,0.0,9.8386,0.0,10.2897,10.4526,10.4991,0.0,10.4293,10.5922,10.9179,10.9353,11.104,11.4763,11.4879,11.4879,11.4879,11.4879,11.4879,11.4879,11.4879,11.4879,11.5089,12.0184,12.0916,11.8656,12.6489,12.7873,12.4802,12.6002,12.5796,12.4481,12.2902,12.185,12.1258,12.1258,12.1258,12.1258,12.1258,12.1258,12.1258,12.1258,12.1258,12.1258,12.1258,12.1258,12.1258,12.1258,12.1258,12.1258,12.1258,12.1258,12.1258,12.1258,12.1258,12.1258,12.1258,12.1258,12.1258,12.1258,12.1258,12.1258,12.1258,12.1258,12.1258,12.1258,12.1258,12.1258,12.1258,12.1258,12.1258,12.1258,12.1258,12.1258,12.1258,12.1258,12.1258,12.1258,12.1258,12.1258,12.1258,12.2995,12.4281,12.5235,12.7742,12.954,13.0521,13.1239,13.1573,13.1573,13.1573,13.1573,7.8002,8.0386,8.3335,8.3974,8.4148,8.4148,8.4148,8.4904,8.5214,8.3644,8.5098,8.6029,0.0,0.0,0.0,9.0449,9.0158,0.0,9.6033,9.5103,0.0,9.6906,0.0,9.8154,9.9872,10.2373,0.0,0.0,10.2606,10.5573,10.9353,10.9528,11.1215,11.4763,11.4879,11.4879,11.4879,11.4879,11.4879,11.4879,11.5553,11.5807,11.6014,12.1085,12.2496,12.1284,12.7238,12.8774,12.6858,12.6359,12.5927,12.5335,12.2837,12.185,12.1785,12.139,12.1258,12.1324,12.1719,12.1587,12.1258,12.1258,12.1258,12.1258,12.1258,12.1258,12.1258,12.1258,12.1258,12.1258,12.1258,12.1258,12.1258,12.1258,12.1258,12.1258,12.1258,12.1258,12.1258,12.1258,12.1258,12.1258,12.1258,12.1258,12.1258,12.1258,12.1258,12.1258,12.1258,12.1258,12.1258,12.1258,12.1258,12.1258,12.1258,12.1258,12.1258,12.1258,12.1723,12.1949,12.1949,12.4,12.5766,12.6983,12.8833,13.0285,13.1573,13.1573,13.1573,13.1573,13.1573,13.1573,7.8932,8.0518,8.1201,8.3567,8.4148,8.4148,8.4148,8.4206,8.4555,8.5738,8.7017,8.789,0.0,0.0,9.0624,9.3241,9.359,9.4928,9.8825,9.9232,9.836,0.0,0.0,0.0,0.0,0.0,0.0,9.7863,9.9025,10.1559,10.5456,10.5689,10.8481,11.4705,11.4879,11.4879,11.4879,11.4879,11.4879,11.4879,11.7269,11.8354,11.8553,12.364,12.2634,11.7431,12.6026,12.5617,11.9209,12.5223,12.6782,12.5401,12.3955,12.3363,12.3165,12.1785,12.1258,12.1456,12.2837,12.2442,12.1258,12.1258,12.1258,12.1258,12.1258,12.1258,12.1258,12.1258,12.1258,12.1258,12.1258,12.1258,12.1258,12.1258,12.1258,12.1258,12.1258,12.1258,12.1258,12.1258,12.1258,12.1258,12.1258,12.1258,12.1258,12.1258,12.1258,12.1258,12.1258,12.1258,12.1258,12.1258,12.1258,12.1258,12.1258,12.1258,12.1258,12.1258,12.2849,12.3719,12.3719,12.6996,12.8833,12.8961,13.063,13.1521,13.1573,13.1573,13.1573,13.1573,13.1573,13.1573,7.5442,7.7885,8.0677,8.155,8.3004,8.4148,8.4148,8.4148,8.4264,8.4729,8.5912,8.7076,8.789,8.8472,8.9635,9.2194,9.1205,9.1496,9.5335,9.4463,9.4346,9.6673,9.5219,9.5103,0.0,0.0,0.0,9.6557,9.9116,10.249,10.6387,10.7376,10.9644,11.3541,11.4472,11.4879,11.4879,11.4879,11.4879,11.4879,11.737,11.8553,11.8751,12.3822,12.4912,12.3048,12.7782,12.8216,12.5829,12.7133,12.7374,12.6782,12.5335,12.4809,12.4744,12.4218,12.3428,12.2902,12.4349,12.4481,12.3889,12.2968,12.2705,12.2508,12.1522,12.1258,12.1258,12.1258,12.1258,12.1258,12.1258,12.1258,12.1258,12.1258,12.1258,12.1258,12.1258,12.1258,12.1258,12.1258,12.1258,12.1258,12.1258,12.1258,12.1258,12.1258,12.1258,12.1258,12.1258,12.1258,12.1258,12.1258,12.1258,12.1258,12.1258,12.2329,12.2995,12.2995,12.4557,12.5502,12.5502,12.7804,12.9078,12.9078,13.0739,13.1573,13.1573,13.1573,13.1573,13.1573,13.1573,13.1573,7.3899,0.0,7.8234,7.9979,8.1724,8.3102,8.3974,8.4148,8.4148,8.4148,8.4846,8.5912,8.7192,8.7774,8.8762,9.0973,9.0217,9.0391,9.3416,9.2427,9.2601,9.5975,9.4521,0.0,0.0,0.0,0.0,9.7022,9.9407,10.2548,10.6445,10.7434,10.947,11.2902,11.3832,11.4472,11.4879,11.4879,11.5345,11.6161,11.7774,11.9538,12.1309,12.5414,12.7436,12.7521,12.9148,12.9873,12.9807,12.8821,12.8426,12.8295,12.6848,12.6256,12.6256,12.573,12.527,12.5007,12.5927,12.5993,12.5401,12.4481,12.4152,12.3889,12.2442,12.1982,12.1916,12.139,12.1258,12.1258,12.1258,12.1258,12.1193,12.0667,12.093,12.0995,12.0009,12.0206,12.0404,11.9878,11.9812,11.9812,11.9812,11.9812,11.9943,12.0469,12.0535,12.0338,11.9812,12.0206,12.0732,12.1193,12.1799,12.2106,12.2106,12.3719,12.4694,12.4694,12.6353,12.7302,12.7302,12.8459,12.9118,12.9118,12.9746,13.0003,13.0003,13.0003,13.0003,13.0003,13.0003,13.0003,0.0,0.0,7.4104,7.9107,8.0518,8.1143,8.3509,8.409,8.409,8.4148,8.4148,8.4555,8.5912,8.7134,8.8413,8.9727,9.1031,9.2311,9.359,9.3823,9.3881,9.3881,9.5015,9.423,0.0,9.359,9.6848,9.9291,9.9523,10.1268,10.5107,10.534,10.7725,11.2785,11.296,11.36,11.4879,11.4879,11.6058,11.8553,11.8553,12.1214,12.6182,12.8666,12.9791,12.9873,12.9873,12.9873,12.9873,12.9873,12.9873,12.9741,12.8295,12.7769,12.7571,12.619,12.6585,12.7769,12.7769,12.6848,12.5664,12.5664,12.5664,12.5335,12.3889,12.3494,12.3165,12.1719,12.1258,12.1193,12.1193,12.1193,12.0798,11.9417,12.0141,12.0338,11.7444,11.8036,11.8628,11.7116,11.6853,11.6853,11.6853,11.6853,11.7313,11.8891,11.9023,11.8497,11.705,11.8242,11.969,12.1148,12.2722,12.3796,12.3796,12.5365,12.6275,12.6275,12.7968,12.8996,12.8996,12.9124,12.9219,12.9219,12.772,12.6935,12.6935,12.6935,12.6935,12.6935,12.6935,12.6935,7.6377,0.0,0.0,7.87,8.0518,8.209,8.2789,8.2888,8.312,8.3974,8.4148,8.4555,8.5912,8.568,8.624,8.9437,8.9519,8.9926,9.2136,9.3299,9.3881,9.3881,9.4172,9.3997,9.2892,9.5452,9.7022,9.6848,9.8534,10.0861,10.3769,10.4875,10.7259,11.1389,11.2494,11.36,11.4879,11.4879,11.6058,11.8553,11.8553,12.1214,12.6182,12.6855,12.8181,12.9873,12.9873,12.9873,12.9873,12.9873,12.9873,12.9807,12.9413,12.9281,12.9215,12.8821,12.8952,12.9281,12.9281,12.9018,12.8558,12.744,12.7111,12.6651,12.4218,12.3494,12.3165,12.1719,12.0535,11.9746,11.9746,11.8891,11.7971,11.7576,11.7773,11.7839,11.6984,11.7181,11.7313,11.6918,11.6853,11.6853,11.6853,11.6853,11.6984,11.7379,11.659,11.6195,11.6721,11.8278,11.988,12.1436,12.1963,12.2287,12.2287,12.3855,12.481,12.481,12.6507,12.7527,12.7527,12.7587,12.7577,12.7577,12.7149,12.6935,12.6935,12.6935,12.6935,12.6935,12.6935,12.6935,7.459,0.0,0.0,0.0,7.6559,7.8073,7.9572,8.0867,8.1857,8.248,8.3062,8.3818,8.502,8.4671,8.5078,0.0,8.8704,8.9402,9.0915,9.2252,9.3241,9.3823,9.3881,9.3881,9.3881,9.615,9.7224,9.6615,9.8942,10.121,10.3246,10.4642,10.7085,11.0866,11.2796,11.4639,11.647,11.7531,11.9305,12.1783,12.1783,12.3822,12.7692,12.7692,12.8498,12.9873,12.9873,12.9873,12.9873,12.9873,12.9873,12.9873,12.9873,12.9873,12.9873,12.9873,12.9873,12.9873,12.9873,12.9873,12.9741,12.8886,12.8163,12.7177,12.4349,12.3034,12.2113,12.0009,11.8825,11.8168,11.8168,11.751,11.6655,11.6064,11.6392,11.6524,11.5274,11.5537,11.5735,11.5143,11.5011,11.5011,11.5011,11.5011,11.5917,11.8598,11.8335,11.7865,11.8066,11.9413,12.0531,12.0733,12.1338,12.1999,12.2729,12.4378,12.54,12.54,12.6333,12.6935,12.6935,12.6293,12.5936,12.5936,12.5294,12.4937,12.4937,12.4937,12.4937,12.4937,12.4937,12.4937,7.0446,0.0,0.0,6.9689,7.0614,7.1545,0.0,0.0,7.9223,7.9412,8.0576,8.1915,8.287,8.3335,8.3974,8.5272,8.7635,8.9378,8.9577,9.0856,9.2194,9.3299,9.3416,9.3532,9.3823,9.5917,9.734,9.7747,9.9989,10.1966,10.3537,10.4758,10.691,11.0226,11.3319,11.5879,11.789,12.0934,12.3828,12.635,12.635,12.7759,13.0399,13.0399,13.0267,13.0136,13.0136,13.0004,12.9873,12.9873,12.9873,12.9873,12.9873,12.9873,12.9873,12.9873,12.9807,12.961,12.961,12.9544,12.9413,12.9413,12.8492,12.6979,12.4283,12.2311,12.0469,11.7642,11.6458,11.6129,11.6327,11.6327,11.6064,11.5011,11.5801,11.6202,11.3784,11.4382,11.4844,11.3806,11.3612,11.3612,11.3612,11.3612,11.5513,12.1214,12.1923,12.1302,11.9932,12.082,12.1088,11.9717,12.0872,12.2363,12.3873,12.5453,12.6436,12.6436,12.6436,12.6436,12.6436,12.508,12.4295,12.4295,12.2868,12.2035,12.2035,12.2035,12.2035,12.2035,12.2035,12.1918,0.0,0.0,0.0,0.0,0.0,0.0,0.0,0.0,7.1545,7.2534,7.457,7.6198,7.6431,7.8234,8.0037,8.1317,8.3702,8.5659,8.6727,8.8937,9.0507,9.074,9.0798,9.1613,9.3648,9.4288,9.5859,9.8942,9.964,10.1385,10.4816,10.5224,10.5689,10.6445,11.1889,11.4552,11.401,11.9673,12.4331,12.7912,12.7912,12.9763,13.349,13.349,13.2766,13.1583,13.1583,13.0925,12.9873,12.9873,12.9873,12.9873,12.9873,12.9873,12.9873,12.9873,12.9149,12.8097,12.8097,12.7374,12.6388,12.6388,12.619,12.5664,12.3955,12.1653,11.922,11.7313,11.4354,11.1921,11.3039,11.3367,11.3565,11.4485,11.5801,11.7094,11.7991,11.8333,11.8943,11.9982,12.0232,12.0232,12.0232,12.0232,12.0626,12.1861,12.1027,12.007,11.9794,11.997,12.001,11.973,12.111,12.212,12.2494,12.2814,12.3082,12.3082,12.3082,12.3082,12.3082,12.2725,12.2583,12.2583,12.2249,12.2035,12.2035,12.2035,12.2035,12.2035,12.2035,12.1128,0.0,0.0,0.0,0.0,0.0,0.0,0.0,0.0,0.0,0.0,0.0,7.2767,0.0,0.0,7.8525,7.8525,8.1649,8.4381,8.5156,8.6901,8.8064,8.8064,8.9146,9.0566,9.1845,9.3125,9.4928,9.7487,9.9465,10.1675,10.4235,10.4351,10.47,10.534,11.1477,11.5089,11.5918,12.3418,12.857,13.1257,13.1257,13.2318,13.4344,13.4344,13.3884,13.3161,13.3161,13.2306,13.0925,13.0925,13.053,12.9807,12.9084,12.8755,12.8492,12.6388,12.5993,12.6453,12.5007,12.4941,12.5599,12.5599,12.5072,12.4218,12.2771,12.0864,11.8825,11.7247,11.5274,11.3762,11.4485,11.5403,11.6236,11.6968,11.8263,11.9685,12.0609,12.0804,12.1057,12.1937,12.206,12.206,12.206,12.4076,12.5403,12.4631,12.3803,12.3031,12.2259,12.215,12.1226,11.882,11.8584,11.8897,11.9729,11.8968,11.9538,12.1892,12.2035,12.1727,12.0942,12.0942,12.0585,11.98,11.9729,11.9729,11.9729,11.9729,11.9729,11.9729,12.0656,12.0449,0.0,0.0,0.0,0.0,0.0,0.0,0.0,0.0,0.0,0.0,0.0,0.0,0.0,0.0,0.0,7.5326,7.9557,8.3237,8.3527,8.44,8.5214,8.5738,8.7832,8.9437,8.9901,9.1903,9.3939,9.5975,9.9232,10.1908,10.3653,10.4418,10.5053,10.5697,11.2204,11.6741,11.9089,12.7388,13.2635,13.4739,13.4739,0.0,13.4739,13.4739,13.395,13.27,13.349,13.2569,13.0399,13.1254,13.0925,12.9676,12.7966,12.7308,12.6848,12.3363,12.3428,12.4809,12.2508,12.3034,12.4744,12.4744,12.3955,12.2837,12.1653,12.0075,0.0,11.7181,11.6684,11.6578,11.6842,11.8526,12.0087,12.0358,12.1676,12.3018,12.3387,12.2513,12.2167,12.3602,12.2927,12.2392,12.3315,12.5943,12.7149,12.5009,12.4652,12.4081,12.2511,12.2797,12.1727,11.7802,11.6589,11.6518,11.7731,11.559,11.6186,12.087,12.0323,11.9158,11.7517,11.7445,11.6589,11.4734,11.4734,11.5305,11.6518,11.6676,11.7053,11.7599,11.5867,11.5889,0.0,0.0,0.0,0.0,0.0,0.0,0.0,0.0,0.0,0.0,0.0,0.0,0.0,0.0,0.0,0.0,7.5093,7.9572,8.0735,8.0968,8.1899,8.409,8.568,8.7483,8.9727,9.0333,9.2342,9.6991,9.8883,10.1326,10.4991,10.8237,0.0,0.0,0.0,11.9588,12.0158,12.671,13.2174,13.6186,13.6186,13.6186,13.6186,13.6186,13.27,12.6782,13.0596,12.9281,12.4744,12.8558,13.0004,12.961,12.6848,12.5796,12.573,12.527,12.4481,12.3626,12.3363,0.0,0.0,12.1785,12.1653,12.1522,12.1324,11.9351,11.705,11.6853,11.6093,11.5646,11.6992,11.9524,12.2095,12.3406,12.4839,12.6311,12.7919,12.4059,12.2204,12.9158,12.6106,12.3751,12.774,12.5379,12.1441,11.7042,11.64,11.583,11.4306,11.6518,11.8016,11.7445,11.8516,0.0,11.9443,11.4235,11.295,11.766,11.4021,11.1024,10.9497,10.9383,10.8027,10.503,10.503,10.7742,11.3236,11.406,11.5883,11.8227,10.3646,10.0716,0.0,0.0,0.0,0.0,0.0,0.0,0.0,0.0,0.0,0.0,0.0,0.0,0.0,0.0,0.0,0.0,7.2069,7.6431,7.7013,7.8351,8.0561,8.3741,8.5252,8.6552,8.7577,8.9088,9.1554,9.5161,9.7313,10.0302,10.482,10.6537,10.7457,10.7686,11.4143,11.8095,11.9094,12.5438,12.9939,13.2635,13.2635,13.2635,13.2635,13.2635,13.0991,12.8163,13.0004,12.8952,12.6059,12.7834,12.8097,12.7242,0.0,0.0,0.0,0.0,12.3428,12.1916,12.0206,12.0338,12.1258,12.1258,12.1258,12.1258,12.1258,12.0404,11.9576,12.0621,12.0544,12.0563,12.217,12.4391,12.6305,12.6872,12.7525,12.8259,12.8995,12.646,12.4993,12.8228,12.6863,0.0,12.3889,12.2083,11.9729,11.6875,11.6447,11.6232,11.5519,11.6589,11.6732,11.4877,11.4449,11.4663,11.559,11.2451,0.0,0.0,0.0,11.4163,11.3521,11.2665,0.0,0.0,0.0,10.3141,10.5385,10.1491,0.0,0.0,9.8679,9.6945,0.0,0.0,0.0,0.0,0.0,0.0,0.0,0.0,0.0,0.0,0.0,0.0,0.0,0.0,0.0,0.0,6.8579,7.2418,7.2069,7.5151,7.8351,8.072,8.376,8.5447,8.5098,8.7425,9.0522,9.4408,9.6758,10.0221,10.5421,10.6707,10.7994,10.963,11.3991,11.7363,11.9563,12.4241,12.7637,12.9873,12.9873,12.9676,12.9281,12.9281,12.8426,12.6979,12.8163,12.744,12.5467,12.6651,12.6519,12.5335,12.2902,12.139,12.0469,12.0469,11.9812,11.8562,11.6392,11.7313,11.9483,11.9483,11.9746,12.016,12.0609,12.0427,12.0463,12.218,12.259,12.2912,12.4184,12.5834,12.7117,12.7117,12.7226,12.7292,12.7292,12.5115,12.3611,12.5266,12.4937,12.294,11.8587,11.7802,11.7017,11.4591,11.4591,11.4663,11.4235,11.5305,11.5234,11.295,11.2165,11.2165,11.3307,11.0738,11.1166,11.5876,11.4948,11.4805,11.609,11.3378,11.1702,11.1164,10.3892,9.9836,0.0,0.0,0.0,0.0,0.0,0.0,0.0,0.0,0.0,0.0,0.0,0.0,0.0,0.0,0.0,0.0,0.0,0.0,0.0,0.0,0.0,0.0,0.0,0.0,6.5554,7.0789,7.4337,7.3174,7.9674,8.3818,8.2672,8.4749,8.9201,9.6364,9.8153,10.1542,10.7668,11.1152,11.3098,11.3177,11.5527,11.8882,12.3285,12.3482,12.573,12.9873,12.9873,12.9149,12.7769,12.7769,12.4744,11.9746,12.3889,12.3297,11.9746,12.3955,12.5599,12.4744,11.6261,11.2907,11.2841,11.2841,11.2841,11.2776,11.271,11.3631,11.4946,11.4946,11.5866,11.7285,11.8931,11.8404,11.7461,11.9006,11.961,11.9686,11.9741,12.1001,12.2271,12.2271,12.232,12.2249,12.2249,11.7717,11.5239,12.1056,11.98,11.6661,11.3521,11.295,11.1381,10.6814,10.7385,0.0,10.6315,11.0096,11.2879,11.2736,11.4092,11.4974,11.4974,10.9383,10.7884,11.2594,10.8598,10.817,11.2665,10.7028,10.3746,10.3716,9.9731,9.7551,9.7273,0.0,0.0,0.0,0.0,0.0,0.0,0.0,0.0,0.0,0.0,0.0,0.0,0.0,0.0,0.0,0.0,0.0,0.0,0.0,0.0,0.0,0.0,0.0,0.0,6.9335,7.3523,7.393,7.7827,7.963,7.742,8.1446,8.555,8.8868,9.3739,9.9028,10.4336,10.6614,10.8879,11.1304,11.3992,11.6129,11.7642,11.8562,11.9812,12.1258,12.1258,12.0995,12.0469,12.0469,11.9417,11.7708,11.9154,11.8957,11.7642,11.8168,11.7839,11.6655,11.3696,11.2513,11.2513,11.2513,11.2513,11.2513,11.2513,11.2841,11.3449,11.45,11.5109,11.5849,11.7364,11.7469,11.7366,11.9045,11.9549,11.9802,12.0943,12.162,12.2035,12.2035,12.1298,12.0514,12.0514,11.816,11.6546,11.8564,11.3949,10.8669,10.553,10.9311,11.0453,10.3675,10.7528,11.0952,11.0453,11.1737,11.2736,11.2736,11.3236,11.3521,11.3521,11.1595,11.1024,11.2665,11.1238,11.0596,11.1166,10.9169,10.7823,10.733,10.6554,10.0745,8.9569,0.0,0.0,0.0,0.0,0.0,0.0,0.0,0.0,0.0,0.0,0.0,0.0,0.0,0.0,0.0,0.0,0.0,0.0,0.0,0.0,0.0,0.0,0.0,0.0,0.0,0.0,7.3755,7.6664,0.0,7.4861,7.7962,8.1025,8.3107,8.7801,9.3396,9.9838,10.1451,10.403,10.7973,10.9948,11.1395,11.2447,11.3302,11.4288,11.5274,11.5274,11.5274,11.5274,11.5274,11.5274,11.5274,11.5274,11.5274,11.5011,11.1526,10.9488,10.8501,10.6989,10.6397,10.6331,10.5805,10.6266,10.7186,10.7712,10.8567,10.976,11.124,11.0703,10.9488,10.994,10.9389,10.8981,11.1185,11.2477,11.3549,11.5145,11.6309,11.7089,11.7089,11.6304,11.559,11.559,11.3878,11.2736,11.3878,10.9097,10.396,10.0749,10.4388,10.5886,10.0289,10.4174,10.8384,11.0025,11.0738,11.1095,11.1095,11.1095,11.1095,11.1095,11.1095,11.1095,11.1095,11.1095,11.077,11.0008,11.0008,10.9091,10.7105,10.5808,9.9109,0.0,0.0,0.0,0.0,0.0,0.0,0.0,0.0,0.0,0.0,0.0,0.0,0.0,0.0,0.0,0.0,0.0,0.0,0.0,0.0,0.0,0.0,0.0,0.0,0.0,0.0,0.0,7.2069,7.5744,0.0,0.0,0.0,0.0,7.9149,8.0679,8.5455,9.4336,9.5948,9.867,10.2979,10.3373,10.4885,10.7644,10.7975,10.9422,11.2118,11.2118,11.2118,11.2118,11.2118,11.2118,11.2184,11.2118,11.2118,11.1658,10.4359,10.1334,10.0939,9.6862,9.5152,9.4889,9.3449,9.4758,9.7257,9.8638,10.1071,10.3767,10.495,10.2582,9.8937,9.7561,9.5138,0.0,0.0,9.9159,10.1475,10.3234,10.5694,10.7742,10.807,10.807,10.807,10.807,10.5601,10.4245,10.6957,10.4959,10.1708,9.8252,0.0,9.7681,9.6007,9.7467,10.0392,10.503,10.7028,10.807,10.807,10.807,10.807,10.8113,10.807,10.807,10.8113,10.807,10.8389,10.9053,10.8874,10.6887,10.2845,9.7526,0.0,0.0,0.0,0.0,0.0,0.0,0.0,0.0,0.0,0.0,0.0,0.0,0.0,0.0,0.0,0.0,0.0,0.0,0.0,0.0,0.0,0.0,0.0,0.0,0.0,0.0,6.4198,6.7626,6.7072,6.9752,6.9406,0.0,0.0,0.0,0.0,0.0,0.0,8.5456,8.6088,8.7754,9.1019,9.5258,9.8375,10.015,10.3438,10.5476,10.62,10.62,10.62,10.62,10.62,10.6792,10.7712,10.666,10.6792,10.7186,9.9887,9.6862,9.6796,9.5678,9.3969,9.1996,9.1667,9.1996,9.2654,9.3048,9.5087,9.7191,9.5415,9.4844,9.4305,9.1806,0.0,0.0,0.0,0.0,9.4586,10.0331,10.2369,10.3746,10.7242,10.807,10.807,10.807,10.5601,10.2604,9.9932,9.6825,9.2079,8.4338,8.7763,0.0,8.6407,0.0,10.0036,10.3603,10.6386,10.807,10.807,10.807,10.8294,10.8882,10.8419,10.8294,10.8922,10.8419,10.7887,10.7537,10.3955,10.0207,9.6486,0.0,0.0,0.0,0.0,0.0,0.0,0.0,0.0,0.0,0.0,0.0,0.0,0.0,0.0,0.0,0.0,0.0,0.0,0.0,0.0,0.0,0.0,0.0,0.0,0.0,0.0,0.0,6.0196,6.4138,6.5033,6.5974,6.5315,0.0,0.0,0.0,0.0,0.0,0.0,0.0,0.0,0.0,8.3665,8.693,8.9629,9.1667,9.6073,9.8638,9.9295,10.1136,10.2057,10.2057,10.2057,10.2517,10.3109,10.1071,9.9887,9.9164,9.5087,9.3048,9.2193,0.0,0.0,0.0,0.0,8.5091,8.6209,8.6209,8.8116,9.0155,8.7853,0.0,0.0,0.0,0.0,0.0,0.0,0.0,8.9753,9.486,9.9074,10.2747,10.5387,10.4959,10.4388,10.5744,9.818,9.0688,8.9404,8.6621,8.2308,7.5633,7.8701,0.0,0.0,0.0,9.4185,9.868,10.3246,10.6029,10.6029,10.6029,10.6208,10.663,10.629,10.6341,10.7138,10.6826,10.496,10.1409,9.9485,9.4192,0.0,0.0,0.0,0.0,0.0,0.0,0.0,0.0,0.0,0.0,0.0,0.0,0.0,0.0,0.0,0.0,0.0,0.0,0.0,0.0,0.0,0.0,0.0,0.0,0.0,0.0,0.0,0.0,0.0,6.029,6.4098,0.0,0.0,0.0,0.0,0.0,0.0,0.0,0.0,0.0,0.0,0.0,0.0,0.0,8.0225,8.2935,8.713,8.9957,9.1412,9.5158,9.7059,9.7257,9.7257,9.752,9.7717,9.5021,0.0,9.0615,9.0023,0.0,0.0,0.0,0.0,0.0,0.0,0.0,0.0,0.0,0.0,0.0,0.0,0.0,0.0,0.0,0.0,0.0,0.0,0.0,0.0,0.0,0.0,10.0281,10.0281,9.8751,9.7752,9.9853,8.7121,7.5919,7.8242,7.6489,7.3493,0.0,0.0,0.0,0.0,0.0,0.0,9.2758,9.9322,10.3419,10.3419,10.3512,10.3633,10.3722,10.3722,10.408,10.4854,10.377,10.0292,9.4102,9.5147,0.0,0.0,0.0,0.0,0.0,0.0,0.0,0.0,0.0,0.0,0.0,0.0,0.0,0.0,0.0,0.0,0.0,0.0,0.0,0.0,0.0,0.0,0.0,0.0,0.0,0.0,0.0,0.0,0.0,0.0,0.0,0.0,0.0,0.0,0.0,0.0,0.0,0.0,0.0,0.0,0.0,0.0,0.0,0.0,0.0,0.0,0.0,0.0,0.0,0.0,8.3119,8.4105,8.5223,8.5223,8.6604,8.883,8.7064,8.7393,8.8905,8.5223,0.0,0.0,0.0,0.0,0.0,0.0,0.0,0.0,0.0,0.0,0.0,0.0,0.0,0.0,0.0,0.0,0.0,0.0,0.0,0.0,0.0,0.0,8.4019,8.4019,8.6516,8.8013,8.4733,0.0,0.0,0.0,0.0,0.0,0.0,0.0,0.0,0.0,0.0,0.0,9.1152,9.8641,10.3419,10.3419,10.4003,10.4714,10.5397,10.5463,10.5815,10.6615,9.9316,9.4273,0.0,0.0,0.0,0.0,0.0,0.0,0.0,0.0,0.0,0.0,0.0,0.0,0.0,0.0,0.0,0.0,0.0,0.0,0.0,0.0,0.0,0.0,0.0,0.0,0.0,0.0,0.0,0.0,0.0,0.0,0.0,0.0,0.0,0.0,0.0,0.0,0.0,0.0,0.0,0.0,0.0,0.0,0.0,0.0,0.0,0.0,0.0,0.0,0.0,0.0,0.0,0.0,0.0,0.0,0.0,0.0,0.0,0.0,8.1277,7.891,0.0,0.0,0.0,0.0,0.0,0.0,0.0,0.0,0.0,0.0,0.0,0.0,0.0,0.0,0.0,0.0,0.0,0.0,0.0,0.0,0.0,0.0,0.0,0.0,0.0,0.0,0.0,0.0,0.0,0.0,0.0,0.0,0.0,0.0,0.0,0.0,0.0,0.0,0.0,0.0,8.9224,9.811,10.4198,10.4715,10.51,10.5463,10.5878,10.5909,10.4447,10.0942,9.6201,0.0,0.0,0.0,0.0,0.0,0.0,0.0,0.0,0.0,0.0,0.0,0.0,0.0,0.0,0.0,0.0,0.0,0.0,0.0,0.0,0.0,0.0,0.0,0.0,0.0,0.0,0.0,0.0,0.0,0.0,0.0,0.0,0.0,0.0,0.0,0.0,0.0,0.0,0.0,0.0,0.0,0.0,0.0,0.0,0.0,0.0,0.0,0.0,0.0,0.0,0.0,0.0,0.0,0.0,0.0,0.0,0.0,0.0,0.0,7.674,7.2182,0.0,0.0,0.0,0.0,0.0,0.0,0.0,0.0,0.0,0.0,0.0,0.0,0.0,0.0,0.0,0.0,0.0,0.0,0.0,0.0,0.0,0.0,0.0,0.0,0.0,0.0,0.0,0.0,0.0,0.0,0.0,0.0,0.0,0.0,0.0,0.0,0.0,0.0,0.0,0.0,8.7442,9.7525,10.4678,10.5561,10.5815,10.597,10.6152,10.633,10.3219,9.555,9.2979,0.0,0.0,0.0,0.0,0.0,0.0,0.0,0.0,0.0,0.0,0.0,0.0,0.0,0.0,0.0,0.0,0.0,0.0,0.0,0.0,0.0,0.0,0.0,0.0,0.0,0.0,0.0,0.0,0.0,0.0,0.0,0.0,0.0,0.0,0.0,0.0,0.0,0.0,0.0,0.0,0.0,0.0,0.0,0.0,0.0,0.0,0.0,0.0,0.0,0.0,0.0,0.0,0.0,0.0,0.0,0.0,0.0,0.0,0.0,0.0,0.0,0.0,0.0,0.0,0.0,0.0,0.0,0.0,0.0,0.0,0.0,0.0,0.0,0.0,0.0,0.0,0.0,0.0,0.0,0.0,0.0,0.0,0.0,0.0,0.0,0.0,0.0,0.0,0.0,0.0,0.0,0.0,0.0,0.0,0.0,0.0,0.0,0.0,0.0,0.0,0.0,8.6472,9.6654,10.3769,10.4642,10.543,10.6212,10.6888,10.7663,10.4566,9.6463,0.0,0.0,0.0,0.0,0.0,0.0,0.0,0.0,0.0,0.0,0.0,0.0,0.0,0.0,0.0,0.0,0.0,0.0,0.0,0.0,0.0,0.0,0.0,0.0,0.0,0.0,0.0,0.0,0.0,0.0,0.0,0.0,0.0,0.0,0.0,0.0,0.0,0.0,0.0,0.0,0.0,0.0,0.0,0.0,0.0,0.0,0.0,0.0,0.0,0.0,0.0,0.0,0.0,0.0,0.0,0.0,0.0,0.0,0.0,0.0,0.0,0.0,0.0,0.0,0.0,0.0,0.0,0.0,0.0,0.0,0.0,0.0,0.0,0.0,0.0,0.0,0.0,0.0,0.0,0.0,0.0,0.0,0.0,0.0,0.0,0.0,0.0,0.0,0.0,0.0,0.0,0.0,0.0,0.0,0.0,0.0,0.0,0.0,0.0,0.0,0.0,0.0,8.6407,9.7471,10.5397,10.6652,10.7097,10.7074,10.649,10.6732,10.1249,8.8013,0.0,0.0,0.0,0.0,0.0,0.0,0.0,0.0,0.0,0.0,0.0,0.0,0.0,0.0,0.0,0.0,0.0,0.0,0.0,0.0,0.0,0.0,0.0,0.0,0.0,0.0,0.0,0.0,0.0,0.0,0.0,0.0,0.0,0.0,0.0,0.0,0.0,0.0,0.0,0.0,0.0,0.0,0.0,0.0,0.0,0.0,0.0,0.0,0.0,0.0,0.0,0.0,0.0,0.0,0.0,0.0,0.0,0.0,0.0,0.0,0.0,0.0,0.0,0.0,0.0,0.0,0.0,0.0,0.0,0.0,0.0,0.0,0.0,0.0,0.0,0.0,0.0,0.0,0.0,0.0,0.0,0.0,0.0,0.0,0.0,0.0,0.0,0.0,0.0,0.0,0.0,0.0,0.0,0.0,0.0,0.0,0.0,0.0,0.0,0.0,0.0,0.0,8.5444,9.6814,10.4943,10.6341,10.6527,10.6145,10.5267,10.5212,9.8333,8.224,0.0,0.0,0.0,0.0,0.0,0.0,0.0,0.0,0.0,0.0,0.0,0.0,0.0,0.0,0.0,0.0,0.0,0.0,0.0,0.0,0.0,0.0,0.0,0.0,0.0,0.0,0.0,0.0,0.0,0.0,0.0,0.0,0.0,0.0,0.0,0.0,0.0,0.0,0.0,0.0,0.0,0.0,0.0,0.0,0.0,0.0,0.0,0.0,0.0,0.0,0.0,0.0,0.0,0.0,0.0,0.0,0.0,0.0,0.0,0.0,0.0,0.0,0.0,0.0,0.0,0.0,0.0,0.0,0.0,0.0,0.0,0.0,0.0,0.0,0.0,0.0,0.0,0.0,0.0,0.0,0.0,0.0,0.0,0.0,0.0,0.0,0.0,0.0,0.0,0.0,0.0,0.0,0.0,0.0,0.0,0.0,0.0,0.0,0.0,0.0,0.0,0.0,8.3042,9.3704,10.1272,10.2176,10.2326,10.2617,10.3357,10.3418,9.7136,0.0,0.0,0.0,0.0,0.0,0.0,0.0,0.0,0.0,0.0,0.0,0.0,0.0,0.0,0.0,0.0,0.0,0.0,0.0,0.0,0.0,0.0,0.0,0.0,0.0,0.0,0.0,0.0,0.0,0.0,0.0,0.0,0.0,0.0,0.0,0.0,0.0,0.0,0.0,0.0,0.0,0.0,0.0,0.0,0.0,0.0,0.0,0.0,0.0,0.0,0.0,0.0,0.0,0.0,0.0,0.0,0.0,0.0,0.0,0.0,0.0,0.0,0.0,0.0,0.0,0.0,0.0,0.0,0.0,0.0,0.0,0.0,0.0,0.0,0.0,0.0,0.0,0.0,0.0,0.0,0.0,0.0,0.0,0.0,0.0,0.0,0.0,0.0,0.0,0.0,0.0,0.0,0.0,0.0,0.0,0.0,0.0,0.0,0.0,0.0,0.0,0.0,0.0,8.3416,9.2512,9.9585,0.0,10.3052,10.269,10.1753,10.1678,9.5342,8.0461,0.0,0.0,0.0,0.0,0.0,0.0,0.0,0.0,0.0,0.0,0.0,0.0,0.0,0.0,0.0,0.0,0.0,0.0,0.0,0.0,0.0,0.0,0.0,0.0,0.0,0.0,0.0,0.0,0.0,0.0,0.0,0.0,0.0,0.0,0.0,0.0,0.0,0.0,0.0,0.0,0.0,0.0,0.0,0.0,0.0,0.0,0.0,0.0,0.0,0.0,0.0,0.0,0.0,0.0,0.0,0.0,0.0,0.0,0.0,0.0,0.0,0.0,0.0,0.0,0.0,0.0,0.0,0.0,0.0,0.0,0.0,0.0,0.0,0.0,0.0,0.0,0.0,0.0,0.0,0.0,0.0,0.0,0.0,0.0,0.0,0.0,0.0,0.0,0.0,0.0,0.0,0.0,0.0,0.0,0.0,0.0,0.0,0.0,0.0,0.0,0.0,0.0,0.0,9.0239,9.7066,0.0,10.1548,10.1174,10.0127,10.0053,9.3921,7.9654,0.0,0.0,0.0,0.0,0.0,0.0,0.0,0.0,0.0,0.0,0.0,0.0,0.0,0.0,0.0,0.0,0.0,0.0,0.0,0.0,0.0,0.0,0.0,0.0,0.0,0.0,0.0,0.0,0.0,0.0,0.0,0.0,0.0,0.0,0.0,0.0,0.0,0.0,0.0,0.0,0.0,0.0,0.0,0.0,0.0,0.0,0.0,0.0,0.0,0.0,0.0,0.0,0.0,0.0,0.0,0.0,0.0,0.0,0.0,0.0,0.0,0.0,0.0,0.0,0.0,0.0,0.0,0.0,0.0,0.0,0.0,0.0,0.0,0.0,0.0,0.0,0.0,0.0,0.0,0.0,0.0,0.0,0.0,0.0,0.0,0.0,0.0,0.0,0.0,0.0,0.0,0.0,0.0,0.0,0.0,0.0,0.0,0.0,0.0,0.0,0.0,0.0,0.0,8.7241,9.3943,9.7771,9.8202,9.8202,9.8202,9.8202,9.2593,7.9354,7.8606,0.0,0.0,0.0,0.0,0.0,0.0,0.0,0.0,0.0,0.0,0.0,0.0,0.0,0.0,0.0,0.0,0.0,0.0,0.0,0.0,0.0,0.0,0.0,0.0,0.0,0.0,0.0,0.0,0.0,0.0,0.0,0.0,0.0,0.0,0.0,0.0,0.0,0.0,0.0,0.0,0.0,0.0,0.0,0.0,0.0,0.0,0.0,0.0,0.0,0.0,0.0,0.0,0.0,0.0,0.0,0.0,0.0,0.0,0.0,0.0,0.0,0.0,0.0,0.0,0.0,0.0,0.0,0.0,0.0,0.0,0.0,0.0,0.0,0.0,0.0,0.0,0.0,0.0,0.0,0.0,0.0,0.0,0.0,0.0,0.0,0.0,0.0,0.0,0.0,0.0,0.0,0.0,0.0,0.0,0.0,0.0,0.0,0.0,0.0,0.0,0.0,0.0,8.623,9.0897,9.4351,9.4669,9.4669,9.4669,9.4669,8.9584,7.7709,7.6961,0.0,0.0,0.0,0.0,0.0,0.0,0.0,0.0,0.0,0.0,0.0,0.0,0.0,0.0,0.0,0.0,0.0,0.0,0.0,0.0,0.0,0.0,0.0,0.0,0.0,0.0,0.0,0.0,0.0,0.0,0.0,0.0,0.0,0.0,0.0,0.0,0.0,0.0,0.0,0.0,0.0,0.0,0.0,0.0,0.0,0.0,0.0,0.0,0.0,0.0,0.0,0.0,0.0,0.0,0.0,0.0,0.0,0.0,0.0,0.0,0.0,0.0,0.0,0.0,0.0,0.0,0.0,0.0,0.0,0.0,0.0,0.0,0.0,0.0,0.0,0.0,0.0,0.0,0.0,0.0,0.0,0.0,0.0,0.0,0.0,0.0,0.0,0.0,0.0,0.0,0.0,0.0,0.0,0.0,0.0,0.0,0.0,0.0,0.0,0.0,0.0,0.0,7.8686,8.5233,9.2688,9.3472,9.3472,9.3472,9.3472,8.8612,7.7111,7.569,0.0,0.0,0.0,0.0,0.0,0.0,0.0,0.0,0.0,0.0,0.0,0.0,0.0,0.0,0.0,0.0,0.0,0.0,0.0,0.0,0.0,0.0,0.0,0.0,0.0,0.0,0.0,0.0,0.0,0.0,0.0,0.0,0.0,0.0,0.0,0.0,0.0,0.0,0.0,0.0,0.0,0.0,0.0,0.0,0.0,0.0,0.0,0.0,0.0,0.0,0.0,0.0,0.0,0.0,0.0,0.0,0.0,0.0,0.0,0.0,0.0,0.0,0.0,0.0,0.0,0.0,0.0,0.0,0.0,0.0,0.0,0.0,0.0,0.0,0.0,0.0,0.0,0.0,0.0,0.0,0.0,0.0,0.0,0.0,0.0,0.0,0.0,0.0,0.0,0.0,0.0,0.0,0.0,0.0,0.0,0.0,0.0,0.0,0.0,0.0,0.0,0.0,0.0,7.8902,9.0338,9.224,9.2799,9.2799,9.2799,8.8013,7.6737,0.0,0.0,0.0,0.0,0.0,0.0,0.0,0.0,0.0,0.0,0.0,0.0,0.0,0.0,0.0,0.0,0.0,0.0,0.0,0.0,0.0,0.0,0.0,0.0,0.0,0.0,0.0,0.0,0.0,0.0,0.0,0.0,0.0,0.0,0.0,0.0,0.0,0.0,0.0,0.0,0.0,0.0,0.0,0.0,0.0,0.0,0.0,0.0,0.0,0.0,0.0,0.0,0.0,0.0,0.0,0.0,0.0,0.0,0.0,0.0,0.0,0.0,0.0,0.0,0.0,0.0,0.0,0.0,0.0,0.0,0.0,0.0,0.0,0.0,0.0,0.0,0.0,0.0,0.0,0.0,0.0,0.0,0.0,0.0,0.0,0.0,0.0,0.0,0.0,0.0,0.0,0.0,0.0,0.0,0.0,0.0,0.0,0.0,0.0,0.0,0.0,0.0,0.0,0.0,7.4716,8.1737,8.6662,8.9376,8.9376,8.9376,8.5022,7.4927,0.0,0.0,0.0,0.0,0.0,0.0,0.0,0.0,0.0,0.0,0.0,0.0,0.0,0.0]}]]]